<?xml version="1.0" encoding="UTF-8" standalone="no" ?>
<gpx xmlns="http://www.topografix.com/GPX/1/1" xmlns:xsi="http://www.w3.org/2001/XMLSchema-instance" xsi:schemaLocation="http://www.topografix.com/GPX/1/1 http://www.topografix.com/GPX/1/1/gpx.xsd" version="1.1" creator="VisuGPX - https://www.visugpx.com">
  <metadata>
    <name>Projet DMA Dénivellé maximum Admissible</name>
    <desc><![CDATA[Un petit parcours en boucle avec une succession de casse patte du genre terrible, mais aussi de belles descentes et de beau point de vue dans le massif de La Mourre !!! Parcours réservé aux VTTistes en trés grande forme et qui ont envie de se faire mal aux jambes !]]></desc>
  </metadata>
  <trk>
    <name><![CDATA[DMA-total]]></name>
    <trkseg>
      <trkpt lat="43.58473" lon="3.75734">
        <ele>55.3</ele>
        <time>1970-01-01T00:00:00Z</time>
      </trkpt>
      <trkpt lat="43.58459" lon="3.75761">
        <ele>54.4</ele>
        <time>1970-01-01T00:00:00Z</time>
      </trkpt>
      <trkpt lat="43.58121" lon="3.75001">
        <ele>58.3</ele>
        <time>1970-01-01T00:00:00Z</time>
      </trkpt>
      <trkpt lat="43.58074" lon="3.74945">
        <ele>56.1</ele>
        <time>1970-01-01T00:00:00Z</time>
      </trkpt>
      <trkpt lat="43.58016" lon="3.74943">
        <ele>53.2</ele>
        <time>1970-01-01T00:00:00Z</time>
      </trkpt>
      <trkpt lat="43.57932" lon="3.74983">
        <ele>50.2</ele>
        <time>1970-01-01T00:00:00Z</time>
      </trkpt>
      <trkpt lat="43.57879" lon="3.75042">
        <ele>49.1</ele>
        <time>1970-01-01T00:00:00Z</time>
      </trkpt>
      <trkpt lat="43.57797" lon="3.75163">
        <ele>45.8</ele>
        <time>1970-01-01T00:00:00Z</time>
      </trkpt>
      <trkpt lat="43.57757" lon="3.75258">
        <ele>42.3</ele>
        <time>1970-01-01T00:00:00Z</time>
      </trkpt>
      <trkpt lat="43.57735" lon="3.75273">
        <ele>41.7</ele>
        <time>1970-01-01T00:00:00Z</time>
      </trkpt>
      <trkpt lat="43.57642" lon="3.75078">
        <ele>44</ele>
        <time>1970-01-01T00:00:00Z</time>
      </trkpt>
      <trkpt lat="43.57556" lon="3.74804">
        <ele>46.2</ele>
        <time>1970-01-01T00:00:00Z</time>
      </trkpt>
      <trkpt lat="43.57706" lon="3.74591">
        <ele>50.9</ele>
        <time>1970-01-01T00:00:00Z</time>
      </trkpt>
      <trkpt lat="43.57832" lon="3.74417">
        <ele>62.9</ele>
        <time>1970-01-01T00:00:00Z</time>
      </trkpt>
      <trkpt lat="43.57826" lon="3.74388">
        <ele>62.3</ele>
        <time>1970-01-01T00:00:00Z</time>
      </trkpt>
      <trkpt lat="43.57833" lon="3.74384">
        <ele>63</ele>
        <time>1970-01-01T00:00:00Z</time>
      </trkpt>
      <trkpt lat="43.57856" lon="3.74426">
        <ele>64.6</ele>
        <time>1970-01-01T00:00:00Z</time>
      </trkpt>
      <trkpt lat="43.57863" lon="3.74416">
        <ele>65.8</ele>
        <time>1970-01-01T00:00:00Z</time>
      </trkpt>
      <trkpt lat="43.57886" lon="3.74372">
        <ele>69.1</ele>
        <time>1970-01-01T00:00:00Z</time>
      </trkpt>
      <trkpt lat="43.57903" lon="3.74353">
        <ele>71.6</ele>
        <time>1970-01-01T00:00:00Z</time>
      </trkpt>
      <trkpt lat="43.57937" lon="3.74364">
        <ele>75</ele>
        <time>1970-01-01T00:00:00Z</time>
      </trkpt>
      <trkpt lat="43.57975" lon="3.74364">
        <ele>78.8</ele>
        <time>1970-01-01T00:00:00Z</time>
      </trkpt>
      <trkpt lat="43.5801" lon="3.74373">
        <ele>81.9</ele>
        <time>1970-01-01T00:00:00Z</time>
      </trkpt>
      <trkpt lat="43.58043" lon="3.74356">
        <ele>84.7</ele>
        <time>1970-01-01T00:00:00Z</time>
      </trkpt>
      <trkpt lat="43.58043" lon="3.74298">
        <ele>85.7</ele>
        <time>1970-01-01T00:00:00Z</time>
      </trkpt>
      <trkpt lat="43.58056" lon="3.74217">
        <ele>88.6</ele>
        <time>1970-01-01T00:00:00Z</time>
      </trkpt>
      <trkpt lat="43.58071" lon="3.74208">
        <ele>90.3</ele>
        <time>1970-01-01T00:00:00Z</time>
      </trkpt>
      <trkpt lat="43.5809" lon="3.74208">
        <ele>91.8</ele>
        <time>1970-01-01T00:00:00Z</time>
      </trkpt>
      <trkpt lat="43.58125" lon="3.74229">
        <ele>92.8</ele>
        <time>1970-01-01T00:00:00Z</time>
      </trkpt>
      <trkpt lat="43.58132" lon="3.74229">
        <ele>93.1</ele>
        <time>1970-01-01T00:00:00Z</time>
      </trkpt>
      <trkpt lat="43.5814" lon="3.74233">
        <ele>93.3</ele>
        <time>1970-01-01T00:00:00Z</time>
      </trkpt>
      <trkpt lat="43.58144" lon="3.7424">
        <ele>93.3</ele>
        <time>1970-01-01T00:00:00Z</time>
      </trkpt>
      <trkpt lat="43.58156" lon="3.74243">
        <ele>93.7</ele>
        <time>1970-01-01T00:00:00Z</time>
      </trkpt>
      <trkpt lat="43.58164" lon="3.74244">
        <ele>94.1</ele>
        <time>1970-01-01T00:00:00Z</time>
      </trkpt>
      <trkpt lat="43.58168" lon="3.74245">
        <ele>94.2</ele>
        <time>1970-01-01T00:00:00Z</time>
      </trkpt>
      <trkpt lat="43.58172" lon="3.74241">
        <ele>94.4</ele>
        <time>1970-01-01T00:00:00Z</time>
      </trkpt>
      <trkpt lat="43.58179" lon="3.7424">
        <ele>94.4</ele>
        <time>1970-01-01T00:00:00Z</time>
      </trkpt>
      <trkpt lat="43.58187" lon="3.7424">
        <ele>94.4</ele>
        <time>1970-01-01T00:00:00Z</time>
      </trkpt>
      <trkpt lat="43.5819" lon="3.74239">
        <ele>94.5</ele>
        <time>1970-01-01T00:00:00Z</time>
      </trkpt>
      <trkpt lat="43.58195" lon="3.74246">
        <ele>94.2</ele>
        <time>1970-01-01T00:00:00Z</time>
      </trkpt>
      <trkpt lat="43.58202" lon="3.7426">
        <ele>93.4</ele>
        <time>1970-01-01T00:00:00Z</time>
      </trkpt>
      <trkpt lat="43.58204" lon="3.74265">
        <ele>93.2</ele>
        <time>1970-01-01T00:00:00Z</time>
      </trkpt>
      <trkpt lat="43.5821" lon="3.74258">
        <ele>93.6</ele>
        <time>1970-01-01T00:00:00Z</time>
      </trkpt>
      <trkpt lat="43.5826" lon="3.74192">
        <ele>97.4</ele>
        <time>1970-01-01T00:00:00Z</time>
      </trkpt>
      <trkpt lat="43.58286" lon="3.74139">
        <ele>98.4</ele>
        <time>1970-01-01T00:00:00Z</time>
      </trkpt>
      <trkpt lat="43.58289" lon="3.7412">
        <ele>98.2</ele>
        <time>1970-01-01T00:00:00Z</time>
      </trkpt>
      <trkpt lat="43.58274" lon="3.74097">
        <ele>98.1</ele>
        <time>1970-01-01T00:00:00Z</time>
      </trkpt>
      <trkpt lat="43.58251" lon="3.74083">
        <ele>98</ele>
        <time>1970-01-01T00:00:00Z</time>
      </trkpt>
      <trkpt lat="43.58226" lon="3.74049">
        <ele>96.2</ele>
        <time>1970-01-01T00:00:00Z</time>
      </trkpt>
      <trkpt lat="43.58199" lon="3.74021">
        <ele>95.5</ele>
        <time>1970-01-01T00:00:00Z</time>
      </trkpt>
      <trkpt lat="43.58158" lon="3.73957">
        <ele>90.1</ele>
        <time>1970-01-01T00:00:00Z</time>
      </trkpt>
      <trkpt lat="43.5814" lon="3.73938">
        <ele>87.5</ele>
        <time>1970-01-01T00:00:00Z</time>
      </trkpt>
      <trkpt lat="43.58092" lon="3.73924">
        <ele>85.6</ele>
        <time>1970-01-01T00:00:00Z</time>
      </trkpt>
      <trkpt lat="43.58075" lon="3.73935">
        <ele>85.1</ele>
        <time>1970-01-01T00:00:00Z</time>
      </trkpt>
      <trkpt lat="43.58052" lon="3.73957">
        <ele>83.1</ele>
        <time>1970-01-01T00:00:00Z</time>
      </trkpt>
      <trkpt lat="43.58017" lon="3.74027">
        <ele>81.1</ele>
        <time>1970-01-01T00:00:00Z</time>
      </trkpt>
      <trkpt lat="43.57977" lon="3.74098">
        <ele>79.8</ele>
        <time>1970-01-01T00:00:00Z</time>
      </trkpt>
      <trkpt lat="43.57938" lon="3.74115">
        <ele>76.5</ele>
        <time>1970-01-01T00:00:00Z</time>
      </trkpt>
      <trkpt lat="43.57918" lon="3.74117">
        <ele>74.5</ele>
        <time>1970-01-01T00:00:00Z</time>
      </trkpt>
      <trkpt lat="43.5791" lon="3.74113">
        <ele>73.6</ele>
        <time>1970-01-01T00:00:00Z</time>
      </trkpt>
      <trkpt lat="43.57909" lon="3.74096">
        <ele>72.3</ele>
        <time>1970-01-01T00:00:00Z</time>
      </trkpt>
      <trkpt lat="43.57905" lon="3.74093">
        <ele>71.8</ele>
        <time>1970-01-01T00:00:00Z</time>
      </trkpt>
      <trkpt lat="43.57897" lon="3.74086">
        <ele>70.7</ele>
        <time>1970-01-01T00:00:00Z</time>
      </trkpt>
      <trkpt lat="43.57889" lon="3.7408">
        <ele>69.9</ele>
        <time>1970-01-01T00:00:00Z</time>
      </trkpt>
      <trkpt lat="43.57886" lon="3.74077">
        <ele>69.6</ele>
        <time>1970-01-01T00:00:00Z</time>
      </trkpt>
      <trkpt lat="43.57882" lon="3.74072">
        <ele>69.3</ele>
        <time>1970-01-01T00:00:00Z</time>
      </trkpt>
      <trkpt lat="43.57879" lon="3.74067">
        <ele>69</ele>
        <time>1970-01-01T00:00:00Z</time>
      </trkpt>
      <trkpt lat="43.5788" lon="3.74059">
        <ele>68.9</ele>
        <time>1970-01-01T00:00:00Z</time>
      </trkpt>
      <trkpt lat="43.5788" lon="3.74053">
        <ele>68.8</ele>
        <time>1970-01-01T00:00:00Z</time>
      </trkpt>
      <trkpt lat="43.57884" lon="3.74046">
        <ele>68.8</ele>
        <time>1970-01-01T00:00:00Z</time>
      </trkpt>
      <trkpt lat="43.57887" lon="3.74038">
        <ele>68.7</ele>
        <time>1970-01-01T00:00:00Z</time>
      </trkpt>
      <trkpt lat="43.57885" lon="3.74031">
        <ele>68.5</ele>
        <time>1970-01-01T00:00:00Z</time>
      </trkpt>
      <trkpt lat="43.57882" lon="3.74025">
        <ele>68.3</ele>
        <time>1970-01-01T00:00:00Z</time>
      </trkpt>
      <trkpt lat="43.57897" lon="3.74">
        <ele>67.5</ele>
        <time>1970-01-01T00:00:00Z</time>
      </trkpt>
      <trkpt lat="43.57901" lon="3.73988">
        <ele>68.1</ele>
        <time>1970-01-01T00:00:00Z</time>
      </trkpt>
      <trkpt lat="43.57901" lon="3.73968">
        <ele>69.2</ele>
        <time>1970-01-01T00:00:00Z</time>
      </trkpt>
      <trkpt lat="43.57912" lon="3.73951">
        <ele>69.6</ele>
        <time>1970-01-01T00:00:00Z</time>
      </trkpt>
      <trkpt lat="43.57918" lon="3.73933">
        <ele>70.3</ele>
        <time>1970-01-01T00:00:00Z</time>
      </trkpt>
      <trkpt lat="43.57911" lon="3.73887">
        <ele>74.5</ele>
        <time>1970-01-01T00:00:00Z</time>
      </trkpt>
      <trkpt lat="43.57904" lon="3.73861">
        <ele>77.9</ele>
        <time>1970-01-01T00:00:00Z</time>
      </trkpt>
      <trkpt lat="43.57896" lon="3.73838">
        <ele>80.7</ele>
        <time>1970-01-01T00:00:00Z</time>
      </trkpt>
      <trkpt lat="43.57884" lon="3.73821">
        <ele>82.9</ele>
        <time>1970-01-01T00:00:00Z</time>
      </trkpt>
      <trkpt lat="43.57878" lon="3.73801">
        <ele>84.7</ele>
        <time>1970-01-01T00:00:00Z</time>
      </trkpt>
      <trkpt lat="43.57877" lon="3.73791">
        <ele>85.4</ele>
        <time>1970-01-01T00:00:00Z</time>
      </trkpt>
      <trkpt lat="43.57874" lon="3.73783">
        <ele>86.2</ele>
        <time>1970-01-01T00:00:00Z</time>
      </trkpt>
      <trkpt lat="43.57868" lon="3.73776">
        <ele>86.9</ele>
        <time>1970-01-01T00:00:00Z</time>
      </trkpt>
      <trkpt lat="43.57865" lon="3.73766">
        <ele>87.8</ele>
        <time>1970-01-01T00:00:00Z</time>
      </trkpt>
      <trkpt lat="43.57861" lon="3.73752">
        <ele>88.8</ele>
        <time>1970-01-01T00:00:00Z</time>
      </trkpt>
      <trkpt lat="43.57856" lon="3.73742">
        <ele>89.8</ele>
        <time>1970-01-01T00:00:00Z</time>
      </trkpt>
      <trkpt lat="43.57852" lon="3.73729">
        <ele>90.9</ele>
        <time>1970-01-01T00:00:00Z</time>
      </trkpt>
      <trkpt lat="43.57849" lon="3.73715">
        <ele>92.1</ele>
        <time>1970-01-01T00:00:00Z</time>
      </trkpt>
      <trkpt lat="43.57843" lon="3.73701">
        <ele>93.2</ele>
        <time>1970-01-01T00:00:00Z</time>
      </trkpt>
      <trkpt lat="43.57837" lon="3.7369">
        <ele>94.2</ele>
        <time>1970-01-01T00:00:00Z</time>
      </trkpt>
      <trkpt lat="43.57831" lon="3.73672">
        <ele>95.5</ele>
        <time>1970-01-01T00:00:00Z</time>
      </trkpt>
      <trkpt lat="43.57826" lon="3.73637">
        <ele>97.2</ele>
        <time>1970-01-01T00:00:00Z</time>
      </trkpt>
      <trkpt lat="43.5782" lon="3.73628">
        <ele>97.2</ele>
        <time>1970-01-01T00:00:00Z</time>
      </trkpt>
      <trkpt lat="43.57793" lon="3.73598">
        <ele>96.4</ele>
        <time>1970-01-01T00:00:00Z</time>
      </trkpt>
      <trkpt lat="43.57781" lon="3.73567">
        <ele>97</ele>
        <time>1970-01-01T00:00:00Z</time>
      </trkpt>
      <trkpt lat="43.57785" lon="3.7355">
        <ele>98.4</ele>
        <time>1970-01-01T00:00:00Z</time>
      </trkpt>
      <trkpt lat="43.57782" lon="3.73541">
        <ele>98.7</ele>
        <time>1970-01-01T00:00:00Z</time>
      </trkpt>
      <trkpt lat="43.57781" lon="3.73521">
        <ele>99.9</ele>
        <time>1970-01-01T00:00:00Z</time>
      </trkpt>
      <trkpt lat="43.57779" lon="3.73493">
        <ele>101.3</ele>
        <time>1970-01-01T00:00:00Z</time>
      </trkpt>
      <trkpt lat="43.57781" lon="3.73474">
        <ele>102.1</ele>
        <time>1970-01-01T00:00:00Z</time>
      </trkpt>
      <trkpt lat="43.57779" lon="3.73459">
        <ele>102.7</ele>
        <time>1970-01-01T00:00:00Z</time>
      </trkpt>
      <trkpt lat="43.57778" lon="3.73449">
        <ele>103</ele>
        <time>1970-01-01T00:00:00Z</time>
      </trkpt>
      <trkpt lat="43.57779" lon="3.73419">
        <ele>104.2</ele>
        <time>1970-01-01T00:00:00Z</time>
      </trkpt>
      <trkpt lat="43.57775" lon="3.73388">
        <ele>104.8</ele>
        <time>1970-01-01T00:00:00Z</time>
      </trkpt>
      <trkpt lat="43.57771" lon="3.73366">
        <ele>105.2</ele>
        <time>1970-01-01T00:00:00Z</time>
      </trkpt>
      <trkpt lat="43.57768" lon="3.73344">
        <ele>105.6</ele>
        <time>1970-01-01T00:00:00Z</time>
      </trkpt>
      <trkpt lat="43.57767" lon="3.73317">
        <ele>105.3</ele>
        <time>1970-01-01T00:00:00Z</time>
      </trkpt>
      <trkpt lat="43.57759" lon="3.73295">
        <ele>104.6</ele>
        <time>1970-01-01T00:00:00Z</time>
      </trkpt>
      <trkpt lat="43.57745" lon="3.73284">
        <ele>104.2</ele>
        <time>1970-01-01T00:00:00Z</time>
      </trkpt>
      <trkpt lat="43.57732" lon="3.73265">
        <ele>103.7</ele>
        <time>1970-01-01T00:00:00Z</time>
      </trkpt>
      <trkpt lat="43.57721" lon="3.73257">
        <ele>103.5</ele>
        <time>1970-01-01T00:00:00Z</time>
      </trkpt>
      <trkpt lat="43.57726" lon="3.73245">
        <ele>103.2</ele>
        <time>1970-01-01T00:00:00Z</time>
      </trkpt>
      <trkpt lat="43.57753" lon="3.73218">
        <ele>102.2</ele>
        <time>1970-01-01T00:00:00Z</time>
      </trkpt>
      <trkpt lat="43.57755" lon="3.73216">
        <ele>102.2</ele>
        <time>1970-01-01T00:00:00Z</time>
      </trkpt>
      <trkpt lat="43.57765" lon="3.73201">
        <ele>101.9</ele>
        <time>1970-01-01T00:00:00Z</time>
      </trkpt>
      <trkpt lat="43.57747" lon="3.7318">
        <ele>101.4</ele>
        <time>1970-01-01T00:00:00Z</time>
      </trkpt>
      <trkpt lat="43.57735" lon="3.73172">
        <ele>101.5</ele>
        <time>1970-01-01T00:00:00Z</time>
      </trkpt>
      <trkpt lat="43.57709" lon="3.73147">
        <ele>101.4</ele>
        <time>1970-01-01T00:00:00Z</time>
      </trkpt>
      <trkpt lat="43.57686" lon="3.73127">
        <ele>101.2</ele>
        <time>1970-01-01T00:00:00Z</time>
      </trkpt>
      <trkpt lat="43.57657" lon="3.73105">
        <ele>100.6</ele>
        <time>1970-01-01T00:00:00Z</time>
      </trkpt>
      <trkpt lat="43.57633" lon="3.73088">
        <ele>99.4</ele>
        <time>1970-01-01T00:00:00Z</time>
      </trkpt>
      <trkpt lat="43.57613" lon="3.73061">
        <ele>97.9</ele>
        <time>1970-01-01T00:00:00Z</time>
      </trkpt>
      <trkpt lat="43.57596" lon="3.73029">
        <ele>96.7</ele>
        <time>1970-01-01T00:00:00Z</time>
      </trkpt>
      <trkpt lat="43.57553" lon="3.72969">
        <ele>95</ele>
        <time>1970-01-01T00:00:00Z</time>
      </trkpt>
      <trkpt lat="43.57536" lon="3.7296">
        <ele>95.1</ele>
        <time>1970-01-01T00:00:00Z</time>
      </trkpt>
      <trkpt lat="43.5752" lon="3.72956">
        <ele>95.3</ele>
        <time>1970-01-01T00:00:00Z</time>
      </trkpt>
      <trkpt lat="43.57491" lon="3.72942">
        <ele>94.1</ele>
        <time>1970-01-01T00:00:00Z</time>
      </trkpt>
      <trkpt lat="43.57479" lon="3.72945">
        <ele>91.5</ele>
        <time>1970-01-01T00:00:00Z</time>
      </trkpt>
      <trkpt lat="43.57459" lon="3.72946">
        <ele>87.4</ele>
        <time>1970-01-01T00:00:00Z</time>
      </trkpt>
      <trkpt lat="43.57445" lon="3.72954">
        <ele>84.5</ele>
        <time>1970-01-01T00:00:00Z</time>
      </trkpt>
      <trkpt lat="43.57431" lon="3.72954">
        <ele>81.8</ele>
        <time>1970-01-01T00:00:00Z</time>
      </trkpt>
      <trkpt lat="43.57423" lon="3.72954">
        <ele>80.2</ele>
        <time>1970-01-01T00:00:00Z</time>
      </trkpt>
      <trkpt lat="43.5741" lon="3.72943">
        <ele>78</ele>
        <time>1970-01-01T00:00:00Z</time>
      </trkpt>
      <trkpt lat="43.57391" lon="3.72928">
        <ele>76.3</ele>
        <time>1970-01-01T00:00:00Z</time>
      </trkpt>
      <trkpt lat="43.57371" lon="3.72917">
        <ele>74.7</ele>
        <time>1970-01-01T00:00:00Z</time>
      </trkpt>
      <trkpt lat="43.57359" lon="3.72902">
        <ele>75.1</ele>
        <time>1970-01-01T00:00:00Z</time>
      </trkpt>
      <trkpt lat="43.5735" lon="3.72904">
        <ele>74.4</ele>
        <time>1970-01-01T00:00:00Z</time>
      </trkpt>
      <trkpt lat="43.57344" lon="3.72919">
        <ele>72.7</ele>
        <time>1970-01-01T00:00:00Z</time>
      </trkpt>
      <trkpt lat="43.57326" lon="3.7294">
        <ele>72.8</ele>
        <time>1970-01-01T00:00:00Z</time>
      </trkpt>
      <trkpt lat="43.57311" lon="3.72944">
        <ele>75</ele>
        <time>1970-01-01T00:00:00Z</time>
      </trkpt>
      <trkpt lat="43.57292" lon="3.72943">
        <ele>77.9</ele>
        <time>1970-01-01T00:00:00Z</time>
      </trkpt>
      <trkpt lat="43.57279" lon="3.72927">
        <ele>80.2</ele>
        <time>1970-01-01T00:00:00Z</time>
      </trkpt>
      <trkpt lat="43.57268" lon="3.72919">
        <ele>82.1</ele>
        <time>1970-01-01T00:00:00Z</time>
      </trkpt>
      <trkpt lat="43.5725" lon="3.72909">
        <ele>85.9</ele>
        <time>1970-01-01T00:00:00Z</time>
      </trkpt>
      <trkpt lat="43.57224" lon="3.729">
        <ele>88.1</ele>
        <time>1970-01-01T00:00:00Z</time>
      </trkpt>
      <trkpt lat="43.57203" lon="3.72893">
        <ele>89.7</ele>
        <time>1970-01-01T00:00:00Z</time>
      </trkpt>
      <trkpt lat="43.57199" lon="3.7289">
        <ele>90.2</ele>
        <time>1970-01-01T00:00:00Z</time>
      </trkpt>
      <trkpt lat="43.57192" lon="3.7287">
        <ele>91.9</ele>
        <time>1970-01-01T00:00:00Z</time>
      </trkpt>
      <trkpt lat="43.57193" lon="3.72854">
        <ele>93.2</ele>
        <time>1970-01-01T00:00:00Z</time>
      </trkpt>
      <trkpt lat="43.57196" lon="3.72839">
        <ele>94.2</ele>
        <time>1970-01-01T00:00:00Z</time>
      </trkpt>
      <trkpt lat="43.5719" lon="3.7283">
        <ele>94.9</ele>
        <time>1970-01-01T00:00:00Z</time>
      </trkpt>
      <trkpt lat="43.57182" lon="3.72822">
        <ele>95.4</ele>
        <time>1970-01-01T00:00:00Z</time>
      </trkpt>
      <trkpt lat="43.57177" lon="3.72809">
        <ele>96.1</ele>
        <time>1970-01-01T00:00:00Z</time>
      </trkpt>
      <trkpt lat="43.57173" lon="3.72794">
        <ele>96.9</ele>
        <time>1970-01-01T00:00:00Z</time>
      </trkpt>
      <trkpt lat="43.57165" lon="3.72775">
        <ele>97.6</ele>
        <time>1970-01-01T00:00:00Z</time>
      </trkpt>
      <trkpt lat="43.57164" lon="3.7276">
        <ele>98.2</ele>
        <time>1970-01-01T00:00:00Z</time>
      </trkpt>
      <trkpt lat="43.57165" lon="3.72749">
        <ele>98.8</ele>
        <time>1970-01-01T00:00:00Z</time>
      </trkpt>
      <trkpt lat="43.57159" lon="3.72735">
        <ele>98.4</ele>
        <time>1970-01-01T00:00:00Z</time>
      </trkpt>
      <trkpt lat="43.57147" lon="3.72731">
        <ele>97.3</ele>
        <time>1970-01-01T00:00:00Z</time>
      </trkpt>
      <trkpt lat="43.57137" lon="3.72729">
        <ele>96.3</ele>
        <time>1970-01-01T00:00:00Z</time>
      </trkpt>
      <trkpt lat="43.57128" lon="3.72726">
        <ele>95.5</ele>
        <time>1970-01-01T00:00:00Z</time>
      </trkpt>
      <trkpt lat="43.57124" lon="3.72732">
        <ele>94.9</ele>
        <time>1970-01-01T00:00:00Z</time>
      </trkpt>
      <trkpt lat="43.57118" lon="3.72732">
        <ele>94.3</ele>
        <time>1970-01-01T00:00:00Z</time>
      </trkpt>
      <trkpt lat="43.57118" lon="3.72718">
        <ele>94.8</ele>
        <time>1970-01-01T00:00:00Z</time>
      </trkpt>
      <trkpt lat="43.57121" lon="3.72708">
        <ele>95.4</ele>
        <time>1970-01-01T00:00:00Z</time>
      </trkpt>
      <trkpt lat="43.57115" lon="3.72706">
        <ele>94.9</ele>
        <time>1970-01-01T00:00:00Z</time>
      </trkpt>
      <trkpt lat="43.57113" lon="3.72698">
        <ele>95.1</ele>
        <time>1970-01-01T00:00:00Z</time>
      </trkpt>
      <trkpt lat="43.57117" lon="3.72689">
        <ele>95.7</ele>
        <time>1970-01-01T00:00:00Z</time>
      </trkpt>
      <trkpt lat="43.57112" lon="3.72671">
        <ele>95.9</ele>
        <time>1970-01-01T00:00:00Z</time>
      </trkpt>
      <trkpt lat="43.57116" lon="3.7266">
        <ele>96.7</ele>
        <time>1970-01-01T00:00:00Z</time>
      </trkpt>
      <trkpt lat="43.57106" lon="3.72642">
        <ele>97.1</ele>
        <time>1970-01-01T00:00:00Z</time>
      </trkpt>
      <trkpt lat="43.57104" lon="3.72632">
        <ele>97.6</ele>
        <time>1970-01-01T00:00:00Z</time>
      </trkpt>
      <trkpt lat="43.57107" lon="3.72615">
        <ele>98.7</ele>
        <time>1970-01-01T00:00:00Z</time>
      </trkpt>
      <trkpt lat="43.57118" lon="3.72594">
        <ele>100.3</ele>
        <time>1970-01-01T00:00:00Z</time>
      </trkpt>
      <trkpt lat="43.57115" lon="3.72584">
        <ele>100.7</ele>
        <time>1970-01-01T00:00:00Z</time>
      </trkpt>
      <trkpt lat="43.57117" lon="3.72562">
        <ele>102.4</ele>
        <time>1970-01-01T00:00:00Z</time>
      </trkpt>
      <trkpt lat="43.57126" lon="3.7253">
        <ele>104.8</ele>
        <time>1970-01-01T00:00:00Z</time>
      </trkpt>
      <trkpt lat="43.57127" lon="3.72511">
        <ele>106.2</ele>
        <time>1970-01-01T00:00:00Z</time>
      </trkpt>
      <trkpt lat="43.57121" lon="3.72475">
        <ele>107.6</ele>
        <time>1970-01-01T00:00:00Z</time>
      </trkpt>
      <trkpt lat="43.57115" lon="3.72449">
        <ele>108.3</ele>
        <time>1970-01-01T00:00:00Z</time>
      </trkpt>
      <trkpt lat="43.57116" lon="3.72391">
        <ele>109.2</ele>
        <time>1970-01-01T00:00:00Z</time>
      </trkpt>
      <trkpt lat="43.57104" lon="3.72368">
        <ele>110.1</ele>
        <time>1970-01-01T00:00:00Z</time>
      </trkpt>
      <trkpt lat="43.57071" lon="3.72337">
        <ele>112.1</ele>
        <time>1970-01-01T00:00:00Z</time>
      </trkpt>
      <trkpt lat="43.57062" lon="3.72319">
        <ele>111.7</ele>
        <time>1970-01-01T00:00:00Z</time>
      </trkpt>
      <trkpt lat="43.57045" lon="3.72298">
        <ele>111</ele>
        <time>1970-01-01T00:00:00Z</time>
      </trkpt>
      <trkpt lat="43.57019" lon="3.72253">
        <ele>109.1</ele>
        <time>1970-01-01T00:00:00Z</time>
      </trkpt>
      <trkpt lat="43.56999" lon="3.72238">
        <ele>107.9</ele>
        <time>1970-01-01T00:00:00Z</time>
      </trkpt>
      <trkpt lat="43.56983" lon="3.72226">
        <ele>106.9</ele>
        <time>1970-01-01T00:00:00Z</time>
      </trkpt>
      <trkpt lat="43.56969" lon="3.72216">
        <ele>106.2</ele>
        <time>1970-01-01T00:00:00Z</time>
      </trkpt>
      <trkpt lat="43.5691" lon="3.72186">
        <ele>104.9</ele>
        <time>1970-01-01T00:00:00Z</time>
      </trkpt>
      <trkpt lat="43.56894" lon="3.72158">
        <ele>103.1</ele>
        <time>1970-01-01T00:00:00Z</time>
      </trkpt>
      <trkpt lat="43.5688" lon="3.72141">
        <ele>101.7</ele>
        <time>1970-01-01T00:00:00Z</time>
      </trkpt>
      <trkpt lat="43.56863" lon="3.72098">
        <ele>100</ele>
        <time>1970-01-01T00:00:00Z</time>
      </trkpt>
      <trkpt lat="43.56852" lon="3.72074">
        <ele>99.2</ele>
        <time>1970-01-01T00:00:00Z</time>
      </trkpt>
      <trkpt lat="43.56867" lon="3.72051">
        <ele>98.6</ele>
        <time>1970-01-01T00:00:00Z</time>
      </trkpt>
      <trkpt lat="43.5687" lon="3.72032">
        <ele>97.7</ele>
        <time>1970-01-01T00:00:00Z</time>
      </trkpt>
      <trkpt lat="43.56837" lon="3.72001">
        <ele>98.7</ele>
        <time>1970-01-01T00:00:00Z</time>
      </trkpt>
      <trkpt lat="43.56821" lon="3.71976">
        <ele>98.1</ele>
        <time>1970-01-01T00:00:00Z</time>
      </trkpt>
      <trkpt lat="43.56814" lon="3.71946">
        <ele>97.1</ele>
        <time>1970-01-01T00:00:00Z</time>
      </trkpt>
      <trkpt lat="43.56793" lon="3.71909">
        <ele>97.4</ele>
        <time>1970-01-01T00:00:00Z</time>
      </trkpt>
      <trkpt lat="43.56782" lon="3.71886">
        <ele>96.7</ele>
        <time>1970-01-01T00:00:00Z</time>
      </trkpt>
      <trkpt lat="43.56797" lon="3.71874">
        <ele>94.5</ele>
        <time>1970-01-01T00:00:00Z</time>
      </trkpt>
      <trkpt lat="43.56815" lon="3.71862">
        <ele>91.8</ele>
        <time>1970-01-01T00:00:00Z</time>
      </trkpt>
      <trkpt lat="43.5683" lon="3.7183">
        <ele>88</ele>
        <time>1970-01-01T00:00:00Z</time>
      </trkpt>
      <trkpt lat="43.56842" lon="3.71805">
        <ele>84.4</ele>
        <time>1970-01-01T00:00:00Z</time>
      </trkpt>
      <trkpt lat="43.56855" lon="3.71789">
        <ele>82.4</ele>
        <time>1970-01-01T00:00:00Z</time>
      </trkpt>
      <trkpt lat="43.56858" lon="3.71773">
        <ele>81.1</ele>
        <time>1970-01-01T00:00:00Z</time>
      </trkpt>
      <trkpt lat="43.56859" lon="3.71747">
        <ele>79.3</ele>
        <time>1970-01-01T00:00:00Z</time>
      </trkpt>
      <trkpt lat="43.56859" lon="3.71732">
        <ele>79.5</ele>
        <time>1970-01-01T00:00:00Z</time>
      </trkpt>
      <trkpt lat="43.56861" lon="3.71716">
        <ele>79.8</ele>
        <time>1970-01-01T00:00:00Z</time>
      </trkpt>
      <trkpt lat="43.56865" lon="3.71715">
        <ele>79.9</ele>
        <time>1970-01-01T00:00:00Z</time>
      </trkpt>
      <trkpt lat="43.56876" lon="3.71723">
        <ele>80</ele>
        <time>1970-01-01T00:00:00Z</time>
      </trkpt>
      <trkpt lat="43.56894" lon="3.71726">
        <ele>80.4</ele>
        <time>1970-01-01T00:00:00Z</time>
      </trkpt>
      <trkpt lat="43.56916" lon="3.71739">
        <ele>80.4</ele>
        <time>1970-01-01T00:00:00Z</time>
      </trkpt>
      <trkpt lat="43.56927" lon="3.71749">
        <ele>80.5</ele>
        <time>1970-01-01T00:00:00Z</time>
      </trkpt>
      <trkpt lat="43.56941" lon="3.71773">
        <ele>81.2</ele>
        <time>1970-01-01T00:00:00Z</time>
      </trkpt>
      <trkpt lat="43.56963" lon="3.71799">
        <ele>82.2</ele>
        <time>1970-01-01T00:00:00Z</time>
      </trkpt>
      <trkpt lat="43.56982" lon="3.71822">
        <ele>83.1</ele>
        <time>1970-01-01T00:00:00Z</time>
      </trkpt>
      <trkpt lat="43.57008" lon="3.71835">
        <ele>84.8</ele>
        <time>1970-01-01T00:00:00Z</time>
      </trkpt>
      <trkpt lat="43.57008" lon="3.71836">
        <ele>84.8</ele>
        <time>1970-01-01T00:00:00Z</time>
      </trkpt>
      <trkpt lat="43.57034" lon="3.71843">
        <ele>87.5</ele>
        <time>1970-01-01T00:00:00Z</time>
      </trkpt>
      <trkpt lat="43.57051" lon="3.71858">
        <ele>89.3</ele>
        <time>1970-01-01T00:00:00Z</time>
      </trkpt>
      <trkpt lat="43.57065" lon="3.71874">
        <ele>90.8</ele>
        <time>1970-01-01T00:00:00Z</time>
      </trkpt>
      <trkpt lat="43.57082" lon="3.71879">
        <ele>92.4</ele>
        <time>1970-01-01T00:00:00Z</time>
      </trkpt>
      <trkpt lat="43.57091" lon="3.71888">
        <ele>92.9</ele>
        <time>1970-01-01T00:00:00Z</time>
      </trkpt>
      <trkpt lat="43.57095" lon="3.71901">
        <ele>93.2</ele>
        <time>1970-01-01T00:00:00Z</time>
      </trkpt>
      <trkpt lat="43.57116" lon="3.71918">
        <ele>94.2</ele>
        <time>1970-01-01T00:00:00Z</time>
      </trkpt>
      <trkpt lat="43.57137" lon="3.71934">
        <ele>95.3</ele>
        <time>1970-01-01T00:00:00Z</time>
      </trkpt>
      <trkpt lat="43.57154" lon="3.71949">
        <ele>96.3</ele>
        <time>1970-01-01T00:00:00Z</time>
      </trkpt>
      <trkpt lat="43.57164" lon="3.71978">
        <ele>97.3</ele>
        <time>1970-01-01T00:00:00Z</time>
      </trkpt>
      <trkpt lat="43.57186" lon="3.71993">
        <ele>98.1</ele>
        <time>1970-01-01T00:00:00Z</time>
      </trkpt>
      <trkpt lat="43.57195" lon="3.72002">
        <ele>98.4</ele>
        <time>1970-01-01T00:00:00Z</time>
      </trkpt>
      <trkpt lat="43.57204" lon="3.72014">
        <ele>98.6</ele>
        <time>1970-01-01T00:00:00Z</time>
      </trkpt>
      <trkpt lat="43.57205" lon="3.72023">
        <ele>98.7</ele>
        <time>1970-01-01T00:00:00Z</time>
      </trkpt>
      <trkpt lat="43.57203" lon="3.72027">
        <ele>98.7</ele>
        <time>1970-01-01T00:00:00Z</time>
      </trkpt>
      <trkpt lat="43.5721" lon="3.72045">
        <ele>98.7</ele>
        <time>1970-01-01T00:00:00Z</time>
      </trkpt>
      <trkpt lat="43.57213" lon="3.72055">
        <ele>98.7</ele>
        <time>1970-01-01T00:00:00Z</time>
      </trkpt>
      <trkpt lat="43.57214" lon="3.72062">
        <ele>98.7</ele>
        <time>1970-01-01T00:00:00Z</time>
      </trkpt>
      <trkpt lat="43.57218" lon="3.72071">
        <ele>98.6</ele>
        <time>1970-01-01T00:00:00Z</time>
      </trkpt>
      <trkpt lat="43.5722" lon="3.72081">
        <ele>98.4</ele>
        <time>1970-01-01T00:00:00Z</time>
      </trkpt>
      <trkpt lat="43.57225" lon="3.72089">
        <ele>98.3</ele>
        <time>1970-01-01T00:00:00Z</time>
      </trkpt>
      <trkpt lat="43.57226" lon="3.72102">
        <ele>98.5</ele>
        <time>1970-01-01T00:00:00Z</time>
      </trkpt>
      <trkpt lat="43.57226" lon="3.72108">
        <ele>98.6</ele>
        <time>1970-01-01T00:00:00Z</time>
      </trkpt>
      <trkpt lat="43.57231" lon="3.72123">
        <ele>98.6</ele>
        <time>1970-01-01T00:00:00Z</time>
      </trkpt>
      <trkpt lat="43.57236" lon="3.72131">
        <ele>98.4</ele>
        <time>1970-01-01T00:00:00Z</time>
      </trkpt>
      <trkpt lat="43.57252" lon="3.72153">
        <ele>97.8</ele>
        <time>1970-01-01T00:00:00Z</time>
      </trkpt>
      <trkpt lat="43.5726" lon="3.72169">
        <ele>98</ele>
        <time>1970-01-01T00:00:00Z</time>
      </trkpt>
      <trkpt lat="43.57265" lon="3.72176">
        <ele>98.1</ele>
        <time>1970-01-01T00:00:00Z</time>
      </trkpt>
      <trkpt lat="43.57279" lon="3.72184">
        <ele>98.1</ele>
        <time>1970-01-01T00:00:00Z</time>
      </trkpt>
      <trkpt lat="43.57291" lon="3.72202">
        <ele>98</ele>
        <time>1970-01-01T00:00:00Z</time>
      </trkpt>
      <trkpt lat="43.57303" lon="3.7223">
        <ele>97.8</ele>
        <time>1970-01-01T00:00:00Z</time>
      </trkpt>
      <trkpt lat="43.57318" lon="3.72262">
        <ele>97</ele>
        <time>1970-01-01T00:00:00Z</time>
      </trkpt>
      <trkpt lat="43.57318" lon="3.72262">
        <ele>97</ele>
        <time>1970-01-01T00:00:00Z</time>
      </trkpt>
      <trkpt lat="43.57329" lon="3.72284">
        <ele>95.7</ele>
        <time>1970-01-01T00:00:00Z</time>
      </trkpt>
      <trkpt lat="43.57344" lon="3.72315">
        <ele>93.9</ele>
        <time>1970-01-01T00:00:00Z</time>
      </trkpt>
      <trkpt lat="43.57344" lon="3.72348">
        <ele>93.1</ele>
        <time>1970-01-01T00:00:00Z</time>
      </trkpt>
      <trkpt lat="43.57338" lon="3.72361">
        <ele>93.2</ele>
        <time>1970-01-01T00:00:00Z</time>
      </trkpt>
      <trkpt lat="43.57343" lon="3.72374">
        <ele>93.2</ele>
        <time>1970-01-01T00:00:00Z</time>
      </trkpt>
      <trkpt lat="43.57366" lon="3.72408">
        <ele>92.2</ele>
        <time>1970-01-01T00:00:00Z</time>
      </trkpt>
      <trkpt lat="43.57388" lon="3.7244">
        <ele>90.6</ele>
        <time>1970-01-01T00:00:00Z</time>
      </trkpt>
      <trkpt lat="43.57411" lon="3.72472">
        <ele>88.2</ele>
        <time>1970-01-01T00:00:00Z</time>
      </trkpt>
      <trkpt lat="43.57427" lon="3.72496">
        <ele>86.7</ele>
        <time>1970-01-01T00:00:00Z</time>
      </trkpt>
      <trkpt lat="43.5744" lon="3.72511">
        <ele>86.4</ele>
        <time>1970-01-01T00:00:00Z</time>
      </trkpt>
      <trkpt lat="43.57455" lon="3.72526">
        <ele>85.8</ele>
        <time>1970-01-01T00:00:00Z</time>
      </trkpt>
      <trkpt lat="43.57466" lon="3.7253">
        <ele>85.2</ele>
        <time>1970-01-01T00:00:00Z</time>
      </trkpt>
      <trkpt lat="43.57477" lon="3.72541">
        <ele>84.3</ele>
        <time>1970-01-01T00:00:00Z</time>
      </trkpt>
      <trkpt lat="43.57482" lon="3.72561">
        <ele>83.5</ele>
        <time>1970-01-01T00:00:00Z</time>
      </trkpt>
      <trkpt lat="43.57497" lon="3.72588">
        <ele>81.4</ele>
        <time>1970-01-01T00:00:00Z</time>
      </trkpt>
      <trkpt lat="43.57505" lon="3.72605">
        <ele>81.4</ele>
        <time>1970-01-01T00:00:00Z</time>
      </trkpt>
      <trkpt lat="43.5751" lon="3.7262">
        <ele>81.8</ele>
        <time>1970-01-01T00:00:00Z</time>
      </trkpt>
      <trkpt lat="43.57521" lon="3.72671">
        <ele>82.3</ele>
        <time>1970-01-01T00:00:00Z</time>
      </trkpt>
      <trkpt lat="43.57524" lon="3.72678">
        <ele>82.1</ele>
        <time>1970-01-01T00:00:00Z</time>
      </trkpt>
      <trkpt lat="43.57523" lon="3.72692">
        <ele>81.4</ele>
        <time>1970-01-01T00:00:00Z</time>
      </trkpt>
      <trkpt lat="43.57526" lon="3.72705">
        <ele>80.9</ele>
        <time>1970-01-01T00:00:00Z</time>
      </trkpt>
      <trkpt lat="43.57533" lon="3.72714">
        <ele>80.7</ele>
        <time>1970-01-01T00:00:00Z</time>
      </trkpt>
      <trkpt lat="43.5754" lon="3.72725">
        <ele>80.5</ele>
        <time>1970-01-01T00:00:00Z</time>
      </trkpt>
      <trkpt lat="43.57542" lon="3.72729">
        <ele>80.4</ele>
        <time>1970-01-01T00:00:00Z</time>
      </trkpt>
      <trkpt lat="43.57544" lon="3.72737">
        <ele>80.1</ele>
        <time>1970-01-01T00:00:00Z</time>
      </trkpt>
      <trkpt lat="43.57558" lon="3.72748">
        <ele>80.1</ele>
        <time>1970-01-01T00:00:00Z</time>
      </trkpt>
      <trkpt lat="43.57568" lon="3.72757">
        <ele>80.8</ele>
        <time>1970-01-01T00:00:00Z</time>
      </trkpt>
      <trkpt lat="43.57577" lon="3.72763">
        <ele>81.4</ele>
        <time>1970-01-01T00:00:00Z</time>
      </trkpt>
      <trkpt lat="43.57577" lon="3.72764">
        <ele>81.4</ele>
        <time>1970-01-01T00:00:00Z</time>
      </trkpt>
      <trkpt lat="43.57588" lon="3.72775">
        <ele>82.5</ele>
        <time>1970-01-01T00:00:00Z</time>
      </trkpt>
      <trkpt lat="43.57598" lon="3.72782">
        <ele>83.4</ele>
        <time>1970-01-01T00:00:00Z</time>
      </trkpt>
      <trkpt lat="43.57606" lon="3.72786">
        <ele>84.1</ele>
        <time>1970-01-01T00:00:00Z</time>
      </trkpt>
      <trkpt lat="43.57614" lon="3.7279">
        <ele>84.8</ele>
        <time>1970-01-01T00:00:00Z</time>
      </trkpt>
      <trkpt lat="43.57621" lon="3.72801">
        <ele>85.7</ele>
        <time>1970-01-01T00:00:00Z</time>
      </trkpt>
      <trkpt lat="43.57629" lon="3.72811">
        <ele>86.7</ele>
        <time>1970-01-01T00:00:00Z</time>
      </trkpt>
      <trkpt lat="43.57636" lon="3.7282">
        <ele>87.5</ele>
        <time>1970-01-01T00:00:00Z</time>
      </trkpt>
      <trkpt lat="43.57639" lon="3.72823">
        <ele>87.8</ele>
        <time>1970-01-01T00:00:00Z</time>
      </trkpt>
      <trkpt lat="43.57641" lon="3.72829">
        <ele>88.2</ele>
        <time>1970-01-01T00:00:00Z</time>
      </trkpt>
      <trkpt lat="43.57641" lon="3.72836">
        <ele>88.6</ele>
        <time>1970-01-01T00:00:00Z</time>
      </trkpt>
      <trkpt lat="43.57643" lon="3.72849">
        <ele>89.3</ele>
        <time>1970-01-01T00:00:00Z</time>
      </trkpt>
      <trkpt lat="43.57649" lon="3.72862">
        <ele>90.1</ele>
        <time>1970-01-01T00:00:00Z</time>
      </trkpt>
      <trkpt lat="43.57652" lon="3.7287">
        <ele>90.5</ele>
        <time>1970-01-01T00:00:00Z</time>
      </trkpt>
      <trkpt lat="43.57656" lon="3.72884">
        <ele>91.1</ele>
        <time>1970-01-01T00:00:00Z</time>
      </trkpt>
      <trkpt lat="43.57663" lon="3.72895">
        <ele>91.5</ele>
        <time>1970-01-01T00:00:00Z</time>
      </trkpt>
      <trkpt lat="43.57672" lon="3.72905">
        <ele>92</ele>
        <time>1970-01-01T00:00:00Z</time>
      </trkpt>
      <trkpt lat="43.5768" lon="3.72913">
        <ele>92.5</ele>
        <time>1970-01-01T00:00:00Z</time>
      </trkpt>
      <trkpt lat="43.57691" lon="3.72919">
        <ele>93.2</ele>
        <time>1970-01-01T00:00:00Z</time>
      </trkpt>
      <trkpt lat="43.57697" lon="3.72926">
        <ele>93.7</ele>
        <time>1970-01-01T00:00:00Z</time>
      </trkpt>
      <trkpt lat="43.57707" lon="3.72943">
        <ele>94.4</ele>
        <time>1970-01-01T00:00:00Z</time>
      </trkpt>
      <trkpt lat="43.57725" lon="3.72972">
        <ele>95.4</ele>
        <time>1970-01-01T00:00:00Z</time>
      </trkpt>
      <trkpt lat="43.57735" lon="3.72986">
        <ele>95.7</ele>
        <time>1970-01-01T00:00:00Z</time>
      </trkpt>
      <trkpt lat="43.57748" lon="3.73001">
        <ele>96</ele>
        <time>1970-01-01T00:00:00Z</time>
      </trkpt>
      <trkpt lat="43.57763" lon="3.73018">
        <ele>97.3</ele>
        <time>1970-01-01T00:00:00Z</time>
      </trkpt>
      <trkpt lat="43.57767" lon="3.73031">
        <ele>97.9</ele>
        <time>1970-01-01T00:00:00Z</time>
      </trkpt>
      <trkpt lat="43.57778" lon="3.73045">
        <ele>98.8</ele>
        <time>1970-01-01T00:00:00Z</time>
      </trkpt>
      <trkpt lat="43.57781" lon="3.73052">
        <ele>99</ele>
        <time>1970-01-01T00:00:00Z</time>
      </trkpt>
      <trkpt lat="43.57785" lon="3.73068">
        <ele>99.5</ele>
        <time>1970-01-01T00:00:00Z</time>
      </trkpt>
      <trkpt lat="43.57788" lon="3.73096">
        <ele>100.1</ele>
        <time>1970-01-01T00:00:00Z</time>
      </trkpt>
      <trkpt lat="43.57788" lon="3.73097">
        <ele>100.2</ele>
        <time>1970-01-01T00:00:00Z</time>
      </trkpt>
      <trkpt lat="43.57791" lon="3.73126">
        <ele>100.7</ele>
        <time>1970-01-01T00:00:00Z</time>
      </trkpt>
      <trkpt lat="43.57798" lon="3.73142">
        <ele>101.2</ele>
        <time>1970-01-01T00:00:00Z</time>
      </trkpt>
      <trkpt lat="43.57804" lon="3.73156">
        <ele>101.5</ele>
        <time>1970-01-01T00:00:00Z</time>
      </trkpt>
      <trkpt lat="43.57814" lon="3.7317">
        <ele>101.8</ele>
        <time>1970-01-01T00:00:00Z</time>
      </trkpt>
      <trkpt lat="43.57814" lon="3.73171">
        <ele>101.8</ele>
        <time>1970-01-01T00:00:00Z</time>
      </trkpt>
      <trkpt lat="43.57818" lon="3.73196">
        <ele>102.2</ele>
        <time>1970-01-01T00:00:00Z</time>
      </trkpt>
      <trkpt lat="43.57818" lon="3.73196">
        <ele>102.2</ele>
        <time>1970-01-01T00:00:00Z</time>
      </trkpt>
      <trkpt lat="43.57822" lon="3.73215">
        <ele>102.5</ele>
        <time>1970-01-01T00:00:00Z</time>
      </trkpt>
      <trkpt lat="43.57823" lon="3.73216">
        <ele>102.5</ele>
        <time>1970-01-01T00:00:00Z</time>
      </trkpt>
      <trkpt lat="43.5783" lon="3.73231">
        <ele>102.8</ele>
        <time>1970-01-01T00:00:00Z</time>
      </trkpt>
      <trkpt lat="43.57842" lon="3.73249">
        <ele>103.1</ele>
        <time>1970-01-01T00:00:00Z</time>
      </trkpt>
      <trkpt lat="43.57851" lon="3.73258">
        <ele>103.3</ele>
        <time>1970-01-01T00:00:00Z</time>
      </trkpt>
      <trkpt lat="43.57858" lon="3.73269">
        <ele>103.6</ele>
        <time>1970-01-01T00:00:00Z</time>
      </trkpt>
      <trkpt lat="43.57869" lon="3.73294">
        <ele>103.8</ele>
        <time>1970-01-01T00:00:00Z</time>
      </trkpt>
      <trkpt lat="43.57885" lon="3.7335">
        <ele>103.5</ele>
        <time>1970-01-01T00:00:00Z</time>
      </trkpt>
      <trkpt lat="43.57886" lon="3.7336">
        <ele>103.3</ele>
        <time>1970-01-01T00:00:00Z</time>
      </trkpt>
      <trkpt lat="43.57887" lon="3.73376">
        <ele>103.1</ele>
        <time>1970-01-01T00:00:00Z</time>
      </trkpt>
      <trkpt lat="43.57892" lon="3.73385">
        <ele>102.7</ele>
        <time>1970-01-01T00:00:00Z</time>
      </trkpt>
      <trkpt lat="43.579" lon="3.73399">
        <ele>102.1</ele>
        <time>1970-01-01T00:00:00Z</time>
      </trkpt>
      <trkpt lat="43.57908" lon="3.73425">
        <ele>101.4</ele>
        <time>1970-01-01T00:00:00Z</time>
      </trkpt>
      <trkpt lat="43.57915" lon="3.73439">
        <ele>101.1</ele>
        <time>1970-01-01T00:00:00Z</time>
      </trkpt>
      <trkpt lat="43.57935" lon="3.73468">
        <ele>99.5</ele>
        <time>1970-01-01T00:00:00Z</time>
      </trkpt>
      <trkpt lat="43.57966" lon="3.73514">
        <ele>95</ele>
        <time>1970-01-01T00:00:00Z</time>
      </trkpt>
      <trkpt lat="43.5799" lon="3.73536">
        <ele>90.7</ele>
        <time>1970-01-01T00:00:00Z</time>
      </trkpt>
      <trkpt lat="43.57996" lon="3.73556">
        <ele>88.5</ele>
        <time>1970-01-01T00:00:00Z</time>
      </trkpt>
      <trkpt lat="43.58003" lon="3.73578">
        <ele>86.4</ele>
        <time>1970-01-01T00:00:00Z</time>
      </trkpt>
      <trkpt lat="43.58011" lon="3.73602">
        <ele>85</ele>
        <time>1970-01-01T00:00:00Z</time>
      </trkpt>
      <trkpt lat="43.58026" lon="3.73642">
        <ele>81.7</ele>
        <time>1970-01-01T00:00:00Z</time>
      </trkpt>
      <trkpt lat="43.58041" lon="3.73695">
        <ele>76</ele>
        <time>1970-01-01T00:00:00Z</time>
      </trkpt>
      <trkpt lat="43.58048" lon="3.73713">
        <ele>73.8</ele>
        <time>1970-01-01T00:00:00Z</time>
      </trkpt>
      <trkpt lat="43.58046" lon="3.73732">
        <ele>72.3</ele>
        <time>1970-01-01T00:00:00Z</time>
      </trkpt>
      <trkpt lat="43.58047" lon="3.73748">
        <ele>70.8</ele>
        <time>1970-01-01T00:00:00Z</time>
      </trkpt>
      <trkpt lat="43.58058" lon="3.73766">
        <ele>70.5</ele>
        <time>1970-01-01T00:00:00Z</time>
      </trkpt>
      <trkpt lat="43.58067" lon="3.73785">
        <ele>70.9</ele>
        <time>1970-01-01T00:00:00Z</time>
      </trkpt>
      <trkpt lat="43.58074" lon="3.73772">
        <ele>70</ele>
        <time>1970-01-01T00:00:00Z</time>
      </trkpt>
      <trkpt lat="43.58081" lon="3.73765">
        <ele>69.2</ele>
        <time>1970-01-01T00:00:00Z</time>
      </trkpt>
      <trkpt lat="43.5811" lon="3.73761">
        <ele>69.1</ele>
        <time>1970-01-01T00:00:00Z</time>
      </trkpt>
      <trkpt lat="43.58136" lon="3.73757">
        <ele>69.1</ele>
        <time>1970-01-01T00:00:00Z</time>
      </trkpt>
      <trkpt lat="43.58137" lon="3.73757">
        <ele>69.2</ele>
        <time>1970-01-01T00:00:00Z</time>
      </trkpt>
      <trkpt lat="43.58169" lon="3.73745">
        <ele>69.8</ele>
        <time>1970-01-01T00:00:00Z</time>
      </trkpt>
      <trkpt lat="43.58183" lon="3.73734">
        <ele>72.1</ele>
        <time>1970-01-01T00:00:00Z</time>
      </trkpt>
      <trkpt lat="43.58197" lon="3.7372">
        <ele>74.2</ele>
        <time>1970-01-01T00:00:00Z</time>
      </trkpt>
      <trkpt lat="43.58219" lon="3.73707">
        <ele>76.1</ele>
        <time>1970-01-01T00:00:00Z</time>
      </trkpt>
      <trkpt lat="43.58237" lon="3.73701">
        <ele>76.9</ele>
        <time>1970-01-01T00:00:00Z</time>
      </trkpt>
      <trkpt lat="43.58242" lon="3.73702">
        <ele>77.1</ele>
        <time>1970-01-01T00:00:00Z</time>
      </trkpt>
      <trkpt lat="43.58242" lon="3.73715">
        <ele>77.1</ele>
        <time>1970-01-01T00:00:00Z</time>
      </trkpt>
      <trkpt lat="43.58249" lon="3.73728">
        <ele>77.6</ele>
        <time>1970-01-01T00:00:00Z</time>
      </trkpt>
      <trkpt lat="43.58251" lon="3.73739">
        <ele>78</ele>
        <time>1970-01-01T00:00:00Z</time>
      </trkpt>
      <trkpt lat="43.58244" lon="3.73749">
        <ele>77.3</ele>
        <time>1970-01-01T00:00:00Z</time>
      </trkpt>
      <trkpt lat="43.58232" lon="3.73762">
        <ele>76.8</ele>
        <time>1970-01-01T00:00:00Z</time>
      </trkpt>
      <trkpt lat="43.5822" lon="3.73775">
        <ele>76.4</ele>
        <time>1970-01-01T00:00:00Z</time>
      </trkpt>
      <trkpt lat="43.58213" lon="3.73785">
        <ele>76.3</ele>
        <time>1970-01-01T00:00:00Z</time>
      </trkpt>
      <trkpt lat="43.58207" lon="3.73797">
        <ele>76.4</ele>
        <time>1970-01-01T00:00:00Z</time>
      </trkpt>
      <trkpt lat="43.58205" lon="3.73806">
        <ele>76.9</ele>
        <time>1970-01-01T00:00:00Z</time>
      </trkpt>
      <trkpt lat="43.58205" lon="3.73816">
        <ele>77.5</ele>
        <time>1970-01-01T00:00:00Z</time>
      </trkpt>
      <trkpt lat="43.58212" lon="3.73828">
        <ele>79</ele>
        <time>1970-01-01T00:00:00Z</time>
      </trkpt>
      <trkpt lat="43.58224" lon="3.73845">
        <ele>81.2</ele>
        <time>1970-01-01T00:00:00Z</time>
      </trkpt>
      <trkpt lat="43.58233" lon="3.7386">
        <ele>82.5</ele>
        <time>1970-01-01T00:00:00Z</time>
      </trkpt>
      <trkpt lat="43.5824" lon="3.73873">
        <ele>83.4</ele>
        <time>1970-01-01T00:00:00Z</time>
      </trkpt>
      <trkpt lat="43.5824" lon="3.73874">
        <ele>83.4</ele>
        <time>1970-01-01T00:00:00Z</time>
      </trkpt>
      <trkpt lat="43.58244" lon="3.73882">
        <ele>83.9</ele>
        <time>1970-01-01T00:00:00Z</time>
      </trkpt>
      <trkpt lat="43.5825" lon="3.73884">
        <ele>84.2</ele>
        <time>1970-01-01T00:00:00Z</time>
      </trkpt>
      <trkpt lat="43.58259" lon="3.73901">
        <ele>85.6</ele>
        <time>1970-01-01T00:00:00Z</time>
      </trkpt>
      <trkpt lat="43.5827" lon="3.73911">
        <ele>86.8</ele>
        <time>1970-01-01T00:00:00Z</time>
      </trkpt>
      <trkpt lat="43.58276" lon="3.73915">
        <ele>87.5</ele>
        <time>1970-01-01T00:00:00Z</time>
      </trkpt>
      <trkpt lat="43.58284" lon="3.73913">
        <ele>88.2</ele>
        <time>1970-01-01T00:00:00Z</time>
      </trkpt>
      <trkpt lat="43.58292" lon="3.73919">
        <ele>89.2</ele>
        <time>1970-01-01T00:00:00Z</time>
      </trkpt>
      <trkpt lat="43.58299" lon="3.73927">
        <ele>90.2</ele>
        <time>1970-01-01T00:00:00Z</time>
      </trkpt>
      <trkpt lat="43.583" lon="3.73932">
        <ele>90.6</ele>
        <time>1970-01-01T00:00:00Z</time>
      </trkpt>
      <trkpt lat="43.58305" lon="3.73932">
        <ele>90.9</ele>
        <time>1970-01-01T00:00:00Z</time>
      </trkpt>
      <trkpt lat="43.58309" lon="3.73934">
        <ele>91.4</ele>
        <time>1970-01-01T00:00:00Z</time>
      </trkpt>
      <trkpt lat="43.58312" lon="3.73937">
        <ele>91.8</ele>
        <time>1970-01-01T00:00:00Z</time>
      </trkpt>
      <trkpt lat="43.58317" lon="3.7394">
        <ele>92.2</ele>
        <time>1970-01-01T00:00:00Z</time>
      </trkpt>
      <trkpt lat="43.5832" lon="3.73944">
        <ele>92.6</ele>
        <time>1970-01-01T00:00:00Z</time>
      </trkpt>
      <trkpt lat="43.58323" lon="3.73954">
        <ele>93.2</ele>
        <time>1970-01-01T00:00:00Z</time>
      </trkpt>
      <trkpt lat="43.58326" lon="3.73958">
        <ele>93.5</ele>
        <time>1970-01-01T00:00:00Z</time>
      </trkpt>
      <trkpt lat="43.58323" lon="3.73968">
        <ele>93.6</ele>
        <time>1970-01-01T00:00:00Z</time>
      </trkpt>
      <trkpt lat="43.58321" lon="3.73978">
        <ele>93.8</ele>
        <time>1970-01-01T00:00:00Z</time>
      </trkpt>
      <trkpt lat="43.58318" lon="3.7398">
        <ele>93.7</ele>
        <time>1970-01-01T00:00:00Z</time>
      </trkpt>
      <trkpt lat="43.58318" lon="3.73987">
        <ele>94</ele>
        <time>1970-01-01T00:00:00Z</time>
      </trkpt>
      <trkpt lat="43.5832" lon="3.73992">
        <ele>94.2</ele>
        <time>1970-01-01T00:00:00Z</time>
      </trkpt>
      <trkpt lat="43.58323" lon="3.73995">
        <ele>94.4</ele>
        <time>1970-01-01T00:00:00Z</time>
      </trkpt>
      <trkpt lat="43.58321" lon="3.74006">
        <ele>94.8</ele>
        <time>1970-01-01T00:00:00Z</time>
      </trkpt>
      <trkpt lat="43.58318" lon="3.74013">
        <ele>95</ele>
        <time>1970-01-01T00:00:00Z</time>
      </trkpt>
      <trkpt lat="43.58315" lon="3.74023">
        <ele>95.3</ele>
        <time>1970-01-01T00:00:00Z</time>
      </trkpt>
      <trkpt lat="43.58314" lon="3.74028">
        <ele>95.5</ele>
        <time>1970-01-01T00:00:00Z</time>
      </trkpt>
      <trkpt lat="43.58314" lon="3.74028">
        <ele>95.5</ele>
        <time>1970-01-01T00:00:00Z</time>
      </trkpt>
      <trkpt lat="43.58313" lon="3.74033">
        <ele>95.7</ele>
        <time>1970-01-01T00:00:00Z</time>
      </trkpt>
      <trkpt lat="43.58309" lon="3.74038">
        <ele>95.9</ele>
        <time>1970-01-01T00:00:00Z</time>
      </trkpt>
      <trkpt lat="43.58306" lon="3.74043">
        <ele>96.1</ele>
        <time>1970-01-01T00:00:00Z</time>
      </trkpt>
      <trkpt lat="43.58304" lon="3.74046">
        <ele>96.2</ele>
        <time>1970-01-01T00:00:00Z</time>
      </trkpt>
      <trkpt lat="43.58304" lon="3.74051">
        <ele>96.4</ele>
        <time>1970-01-01T00:00:00Z</time>
      </trkpt>
      <trkpt lat="43.58312" lon="3.74059">
        <ele>96.9</ele>
        <time>1970-01-01T00:00:00Z</time>
      </trkpt>
      <trkpt lat="43.58319" lon="3.74066">
        <ele>97.3</ele>
        <time>1970-01-01T00:00:00Z</time>
      </trkpt>
      <trkpt lat="43.5832" lon="3.74067">
        <ele>97.3</ele>
        <time>1970-01-01T00:00:00Z</time>
      </trkpt>
      <trkpt lat="43.58325" lon="3.7408">
        <ele>97.9</ele>
        <time>1970-01-01T00:00:00Z</time>
      </trkpt>
      <trkpt lat="43.58325" lon="3.74105">
        <ele>98</ele>
        <time>1970-01-01T00:00:00Z</time>
      </trkpt>
      <trkpt lat="43.58336" lon="3.74106">
        <ele>97.9</ele>
        <time>1970-01-01T00:00:00Z</time>
      </trkpt>
      <trkpt lat="43.58351" lon="3.74086">
        <ele>97.5</ele>
        <time>1970-01-01T00:00:00Z</time>
      </trkpt>
      <trkpt lat="43.58362" lon="3.74068">
        <ele>97.2</ele>
        <time>1970-01-01T00:00:00Z</time>
      </trkpt>
      <trkpt lat="43.58373" lon="3.74042">
        <ele>97.2</ele>
        <time>1970-01-01T00:00:00Z</time>
      </trkpt>
      <trkpt lat="43.58395" lon="3.74">
        <ele>98.7</ele>
        <time>1970-01-01T00:00:00Z</time>
      </trkpt>
      <trkpt lat="43.58409" lon="3.73974">
        <ele>100.9</ele>
        <time>1970-01-01T00:00:00Z</time>
      </trkpt>
      <trkpt lat="43.58416" lon="3.73946">
        <ele>103.2</ele>
        <time>1970-01-01T00:00:00Z</time>
      </trkpt>
      <trkpt lat="43.58416" lon="3.73928">
        <ele>104.2</ele>
        <time>1970-01-01T00:00:00Z</time>
      </trkpt>
      <trkpt lat="43.58424" lon="3.73884">
        <ele>106.1</ele>
        <time>1970-01-01T00:00:00Z</time>
      </trkpt>
      <trkpt lat="43.58428" lon="3.7386">
        <ele>107</ele>
        <time>1970-01-01T00:00:00Z</time>
      </trkpt>
      <trkpt lat="43.58428" lon="3.73831">
        <ele>108</ele>
        <time>1970-01-01T00:00:00Z</time>
      </trkpt>
      <trkpt lat="43.58434" lon="3.73786">
        <ele>111.2</ele>
        <time>1970-01-01T00:00:00Z</time>
      </trkpt>
      <trkpt lat="43.58451" lon="3.73762">
        <ele>113.8</ele>
        <time>1970-01-01T00:00:00Z</time>
      </trkpt>
      <trkpt lat="43.58473" lon="3.73726">
        <ele>115.5</ele>
        <time>1970-01-01T00:00:00Z</time>
      </trkpt>
      <trkpt lat="43.58501" lon="3.73672">
        <ele>116.1</ele>
        <time>1970-01-01T00:00:00Z</time>
      </trkpt>
      <trkpt lat="43.5853" lon="3.73618">
        <ele>114.5</ele>
        <time>1970-01-01T00:00:00Z</time>
      </trkpt>
      <trkpt lat="43.58538" lon="3.73593">
        <ele>114.1</ele>
        <time>1970-01-01T00:00:00Z</time>
      </trkpt>
      <trkpt lat="43.58548" lon="3.73584">
        <ele>114.2</ele>
        <time>1970-01-01T00:00:00Z</time>
      </trkpt>
      <trkpt lat="43.58548" lon="3.73584">
        <ele>114.2</ele>
        <time>1970-01-01T00:00:00Z</time>
      </trkpt>
      <trkpt lat="43.58557" lon="3.73588">
        <ele>114.4</ele>
        <time>1970-01-01T00:00:00Z</time>
      </trkpt>
      <trkpt lat="43.58575" lon="3.73594">
        <ele>114.8</ele>
        <time>1970-01-01T00:00:00Z</time>
      </trkpt>
      <trkpt lat="43.58599" lon="3.73607">
        <ele>115.6</ele>
        <time>1970-01-01T00:00:00Z</time>
      </trkpt>
      <trkpt lat="43.58618" lon="3.73617">
        <ele>115.9</ele>
        <time>1970-01-01T00:00:00Z</time>
      </trkpt>
      <trkpt lat="43.58628" lon="3.73619">
        <ele>116.1</ele>
        <time>1970-01-01T00:00:00Z</time>
      </trkpt>
      <trkpt lat="43.58644" lon="3.73609">
        <ele>117.1</ele>
        <time>1970-01-01T00:00:00Z</time>
      </trkpt>
      <trkpt lat="43.5865" lon="3.73611">
        <ele>117.1</ele>
        <time>1970-01-01T00:00:00Z</time>
      </trkpt>
      <trkpt lat="43.58656" lon="3.73614">
        <ele>117.1</ele>
        <time>1970-01-01T00:00:00Z</time>
      </trkpt>
      <trkpt lat="43.58662" lon="3.73611">
        <ele>117.5</ele>
        <time>1970-01-01T00:00:00Z</time>
      </trkpt>
      <trkpt lat="43.58672" lon="3.73621">
        <ele>117.2</ele>
        <time>1970-01-01T00:00:00Z</time>
      </trkpt>
      <trkpt lat="43.58682" lon="3.73627">
        <ele>117.3</ele>
        <time>1970-01-01T00:00:00Z</time>
      </trkpt>
      <trkpt lat="43.58698" lon="3.73642">
        <ele>117</ele>
        <time>1970-01-01T00:00:00Z</time>
      </trkpt>
      <trkpt lat="43.58704" lon="3.73648">
        <ele>116.9</ele>
        <time>1970-01-01T00:00:00Z</time>
      </trkpt>
      <trkpt lat="43.58714" lon="3.73654">
        <ele>117.1</ele>
        <time>1970-01-01T00:00:00Z</time>
      </trkpt>
      <trkpt lat="43.58732" lon="3.73663">
        <ele>117.2</ele>
        <time>1970-01-01T00:00:00Z</time>
      </trkpt>
      <trkpt lat="43.58741" lon="3.73658">
        <ele>118.3</ele>
        <time>1970-01-01T00:00:00Z</time>
      </trkpt>
      <trkpt lat="43.58764" lon="3.73636">
        <ele>121.8</ele>
        <time>1970-01-01T00:00:00Z</time>
      </trkpt>
      <trkpt lat="43.58795" lon="3.73629">
        <ele>124.3</ele>
        <time>1970-01-01T00:00:00Z</time>
      </trkpt>
      <trkpt lat="43.58835" lon="3.7359">
        <ele>127.1</ele>
        <time>1970-01-01T00:00:00Z</time>
      </trkpt>
      <trkpt lat="43.58846" lon="3.73573">
        <ele>128.1</ele>
        <time>1970-01-01T00:00:00Z</time>
      </trkpt>
      <trkpt lat="43.58861" lon="3.73562">
        <ele>129.2</ele>
        <time>1970-01-01T00:00:00Z</time>
      </trkpt>
      <trkpt lat="43.58871" lon="3.73557">
        <ele>129.9</ele>
        <time>1970-01-01T00:00:00Z</time>
      </trkpt>
      <trkpt lat="43.58871" lon="3.73557">
        <ele>129.9</ele>
        <time>1970-01-01T00:00:00Z</time>
      </trkpt>
      <trkpt lat="43.58883" lon="3.73547">
        <ele>130.4</ele>
        <time>1970-01-01T00:00:00Z</time>
      </trkpt>
      <trkpt lat="43.58891" lon="3.73549">
        <ele>131.1</ele>
        <time>1970-01-01T00:00:00Z</time>
      </trkpt>
      <trkpt lat="43.58928" lon="3.73487">
        <ele>130</ele>
        <time>1970-01-01T00:00:00Z</time>
      </trkpt>
      <trkpt lat="43.58957" lon="3.73448">
        <ele>129.3</ele>
        <time>1970-01-01T00:00:00Z</time>
      </trkpt>
      <trkpt lat="43.58986" lon="3.73432">
        <ele>129.5</ele>
        <time>1970-01-01T00:00:00Z</time>
      </trkpt>
      <trkpt lat="43.59014" lon="3.73437">
        <ele>131.3</ele>
        <time>1970-01-01T00:00:00Z</time>
      </trkpt>
      <trkpt lat="43.59044" lon="3.73429">
        <ele>132.6</ele>
        <time>1970-01-01T00:00:00Z</time>
      </trkpt>
      <trkpt lat="43.59078" lon="3.73413">
        <ele>134</ele>
        <time>1970-01-01T00:00:00Z</time>
      </trkpt>
      <trkpt lat="43.59089" lon="3.73399">
        <ele>136.1</ele>
        <time>1970-01-01T00:00:00Z</time>
      </trkpt>
      <trkpt lat="43.5911" lon="3.73396">
        <ele>138.3</ele>
        <time>1970-01-01T00:00:00Z</time>
      </trkpt>
      <trkpt lat="43.59151" lon="3.73367">
        <ele>142.9</ele>
        <time>1970-01-01T00:00:00Z</time>
      </trkpt>
      <trkpt lat="43.59197" lon="3.73331">
        <ele>144.6</ele>
        <time>1970-01-01T00:00:00Z</time>
      </trkpt>
      <trkpt lat="43.59235" lon="3.73286">
        <ele>147.4</ele>
        <time>1970-01-01T00:00:00Z</time>
      </trkpt>
      <trkpt lat="43.59237" lon="3.73284">
        <ele>147.5</ele>
        <time>1970-01-01T00:00:00Z</time>
      </trkpt>
      <trkpt lat="43.59256" lon="3.73242">
        <ele>149.6</ele>
        <time>1970-01-01T00:00:00Z</time>
      </trkpt>
      <trkpt lat="43.5928" lon="3.73198">
        <ele>151.4</ele>
        <time>1970-01-01T00:00:00Z</time>
      </trkpt>
      <trkpt lat="43.59304" lon="3.73136">
        <ele>150.3</ele>
        <time>1970-01-01T00:00:00Z</time>
      </trkpt>
      <trkpt lat="43.59338" lon="3.7313">
        <ele>151</ele>
        <time>1970-01-01T00:00:00Z</time>
      </trkpt>
      <trkpt lat="43.59392" lon="3.73115">
        <ele>149.9</ele>
        <time>1970-01-01T00:00:00Z</time>
      </trkpt>
      <trkpt lat="43.59449" lon="3.73089">
        <ele>148.7</ele>
        <time>1970-01-01T00:00:00Z</time>
      </trkpt>
      <trkpt lat="43.59485" lon="3.73068">
        <ele>148.3</ele>
        <time>1970-01-01T00:00:00Z</time>
      </trkpt>
      <trkpt lat="43.59524" lon="3.73043">
        <ele>147.1</ele>
        <time>1970-01-01T00:00:00Z</time>
      </trkpt>
      <trkpt lat="43.59539" lon="3.73028">
        <ele>146.2</ele>
        <time>1970-01-01T00:00:00Z</time>
      </trkpt>
      <trkpt lat="43.59555" lon="3.73039">
        <ele>146.9</ele>
        <time>1970-01-01T00:00:00Z</time>
      </trkpt>
      <trkpt lat="43.59563" lon="3.73051">
        <ele>147.5</ele>
        <time>1970-01-01T00:00:00Z</time>
      </trkpt>
      <trkpt lat="43.59554" lon="3.73095">
        <ele>150.4</ele>
        <time>1970-01-01T00:00:00Z</time>
      </trkpt>
      <trkpt lat="43.59552" lon="3.73131">
        <ele>153.8</ele>
        <time>1970-01-01T00:00:00Z</time>
      </trkpt>
      <trkpt lat="43.59537" lon="3.73191">
        <ele>159.4</ele>
        <time>1970-01-01T00:00:00Z</time>
      </trkpt>
      <trkpt lat="43.59546" lon="3.73217">
        <ele>161.1</ele>
        <time>1970-01-01T00:00:00Z</time>
      </trkpt>
      <trkpt lat="43.59544" lon="3.73267">
        <ele>164.3</ele>
        <time>1970-01-01T00:00:00Z</time>
      </trkpt>
      <trkpt lat="43.59549" lon="3.73302">
        <ele>166.2</ele>
        <time>1970-01-01T00:00:00Z</time>
      </trkpt>
      <trkpt lat="43.59551" lon="3.73335">
        <ele>168</ele>
        <time>1970-01-01T00:00:00Z</time>
      </trkpt>
      <trkpt lat="43.59552" lon="3.73357">
        <ele>170.1</ele>
        <time>1970-01-01T00:00:00Z</time>
      </trkpt>
      <trkpt lat="43.59554" lon="3.7338">
        <ele>172.2</ele>
        <time>1970-01-01T00:00:00Z</time>
      </trkpt>
      <trkpt lat="43.59571" lon="3.73403">
        <ele>175.1</ele>
        <time>1970-01-01T00:00:00Z</time>
      </trkpt>
      <trkpt lat="43.59592" lon="3.7341">
        <ele>175.4</ele>
        <time>1970-01-01T00:00:00Z</time>
      </trkpt>
      <trkpt lat="43.59628" lon="3.73451">
        <ele>174.8</ele>
        <time>1970-01-01T00:00:00Z</time>
      </trkpt>
      <trkpt lat="43.59653" lon="3.73485">
        <ele>176.7</ele>
        <time>1970-01-01T00:00:00Z</time>
      </trkpt>
      <trkpt lat="43.59669" lon="3.73497">
        <ele>177.4</ele>
        <time>1970-01-01T00:00:00Z</time>
      </trkpt>
      <trkpt lat="43.59688" lon="3.73502">
        <ele>176.6</ele>
        <time>1970-01-01T00:00:00Z</time>
      </trkpt>
      <trkpt lat="43.59716" lon="3.73516">
        <ele>175.3</ele>
        <time>1970-01-01T00:00:00Z</time>
      </trkpt>
      <trkpt lat="43.59731" lon="3.73514">
        <ele>174.2</ele>
        <time>1970-01-01T00:00:00Z</time>
      </trkpt>
      <trkpt lat="43.59743" lon="3.7352">
        <ele>173.7</ele>
        <time>1970-01-01T00:00:00Z</time>
      </trkpt>
      <trkpt lat="43.59762" lon="3.73515">
        <ele>171.1</ele>
        <time>1970-01-01T00:00:00Z</time>
      </trkpt>
      <trkpt lat="43.59778" lon="3.73521">
        <ele>168.8</ele>
        <time>1970-01-01T00:00:00Z</time>
      </trkpt>
      <trkpt lat="43.59801" lon="3.7351">
        <ele>165.4</ele>
        <time>1970-01-01T00:00:00Z</time>
      </trkpt>
      <trkpt lat="43.59809" lon="3.73503">
        <ele>164.1</ele>
        <time>1970-01-01T00:00:00Z</time>
      </trkpt>
      <trkpt lat="43.59813" lon="3.73478">
        <ele>161.1</ele>
        <time>1970-01-01T00:00:00Z</time>
      </trkpt>
      <trkpt lat="43.59812" lon="3.73451">
        <ele>158.1</ele>
        <time>1970-01-01T00:00:00Z</time>
      </trkpt>
      <trkpt lat="43.59811" lon="3.73431">
        <ele>156</ele>
        <time>1970-01-01T00:00:00Z</time>
      </trkpt>
      <trkpt lat="43.59817" lon="3.7342">
        <ele>154.1</ele>
        <time>1970-01-01T00:00:00Z</time>
      </trkpt>
      <trkpt lat="43.59816" lon="3.734">
        <ele>152.3</ele>
        <time>1970-01-01T00:00:00Z</time>
      </trkpt>
      <trkpt lat="43.59814" lon="3.73373">
        <ele>149.9</ele>
        <time>1970-01-01T00:00:00Z</time>
      </trkpt>
      <trkpt lat="43.59801" lon="3.73354">
        <ele>149.5</ele>
        <time>1970-01-01T00:00:00Z</time>
      </trkpt>
      <trkpt lat="43.5978" lon="3.73346">
        <ele>151</ele>
        <time>1970-01-01T00:00:00Z</time>
      </trkpt>
      <trkpt lat="43.59747" lon="3.73357">
        <ele>155.5</ele>
        <time>1970-01-01T00:00:00Z</time>
      </trkpt>
      <trkpt lat="43.59732" lon="3.73357">
        <ele>157</ele>
        <time>1970-01-01T00:00:00Z</time>
      </trkpt>
      <trkpt lat="43.59729" lon="3.7334">
        <ele>155.9</ele>
        <time>1970-01-01T00:00:00Z</time>
      </trkpt>
      <trkpt lat="43.59738" lon="3.733">
        <ele>151.8</ele>
        <time>1970-01-01T00:00:00Z</time>
      </trkpt>
      <trkpt lat="43.59747" lon="3.73256">
        <ele>147.7</ele>
        <time>1970-01-01T00:00:00Z</time>
      </trkpt>
      <trkpt lat="43.59744" lon="3.73235">
        <ele>146.3</ele>
        <time>1970-01-01T00:00:00Z</time>
      </trkpt>
      <trkpt lat="43.59723" lon="3.73217">
        <ele>146.5</ele>
        <time>1970-01-01T00:00:00Z</time>
      </trkpt>
      <trkpt lat="43.59698" lon="3.73196">
        <ele>146.8</ele>
        <time>1970-01-01T00:00:00Z</time>
      </trkpt>
      <trkpt lat="43.59695" lon="3.73171">
        <ele>145</ele>
        <time>1970-01-01T00:00:00Z</time>
      </trkpt>
      <trkpt lat="43.59699" lon="3.73135">
        <ele>143.5</ele>
        <time>1970-01-01T00:00:00Z</time>
      </trkpt>
      <trkpt lat="43.59688" lon="3.73107">
        <ele>143.8</ele>
        <time>1970-01-01T00:00:00Z</time>
      </trkpt>
      <trkpt lat="43.59675" lon="3.73028">
        <ele>145.2</ele>
        <time>1970-01-01T00:00:00Z</time>
      </trkpt>
      <trkpt lat="43.59704" lon="3.73028">
        <ele>143.7</ele>
        <time>1970-01-01T00:00:00Z</time>
      </trkpt>
      <trkpt lat="43.59734" lon="3.73046">
        <ele>141.3</ele>
        <time>1970-01-01T00:00:00Z</time>
      </trkpt>
      <trkpt lat="43.5976" lon="3.73059">
        <ele>138.5</ele>
        <time>1970-01-01T00:00:00Z</time>
      </trkpt>
      <trkpt lat="43.59783" lon="3.73066">
        <ele>135.8</ele>
        <time>1970-01-01T00:00:00Z</time>
      </trkpt>
      <trkpt lat="43.59792" lon="3.7306">
        <ele>135.4</ele>
        <time>1970-01-01T00:00:00Z</time>
      </trkpt>
      <trkpt lat="43.59799" lon="3.73052">
        <ele>135.2</ele>
        <time>1970-01-01T00:00:00Z</time>
      </trkpt>
      <trkpt lat="43.59811" lon="3.73043">
        <ele>134.6</ele>
        <time>1970-01-01T00:00:00Z</time>
      </trkpt>
      <trkpt lat="43.59828" lon="3.73043">
        <ele>133</ele>
        <time>1970-01-01T00:00:00Z</time>
      </trkpt>
      <trkpt lat="43.59841" lon="3.7304">
        <ele>132.2</ele>
        <time>1970-01-01T00:00:00Z</time>
      </trkpt>
      <trkpt lat="43.59849" lon="3.73027">
        <ele>132.3</ele>
        <time>1970-01-01T00:00:00Z</time>
      </trkpt>
      <trkpt lat="43.59855" lon="3.72996">
        <ele>133.4</ele>
        <time>1970-01-01T00:00:00Z</time>
      </trkpt>
      <trkpt lat="43.59872" lon="3.7297">
        <ele>133.2</ele>
        <time>1970-01-01T00:00:00Z</time>
      </trkpt>
      <trkpt lat="43.59889" lon="3.72925">
        <ele>133.6</ele>
        <time>1970-01-01T00:00:00Z</time>
      </trkpt>
      <trkpt lat="43.59909" lon="3.72892">
        <ele>132.8</ele>
        <time>1970-01-01T00:00:00Z</time>
      </trkpt>
      <trkpt lat="43.59924" lon="3.72856">
        <ele>133.1</ele>
        <time>1970-01-01T00:00:00Z</time>
      </trkpt>
      <trkpt lat="43.59931" lon="3.72839">
        <ele>133.5</ele>
        <time>1970-01-01T00:00:00Z</time>
      </trkpt>
      <trkpt lat="43.59934" lon="3.72819">
        <ele>133.8</ele>
        <time>1970-01-01T00:00:00Z</time>
      </trkpt>
      <trkpt lat="43.59942" lon="3.72803">
        <ele>134</ele>
        <time>1970-01-01T00:00:00Z</time>
      </trkpt>
      <trkpt lat="43.59956" lon="3.72781">
        <ele>134.3</ele>
        <time>1970-01-01T00:00:00Z</time>
      </trkpt>
      <trkpt lat="43.59974" lon="3.72773">
        <ele>134.3</ele>
        <time>1970-01-01T00:00:00Z</time>
      </trkpt>
      <trkpt lat="43.59975" lon="3.72772">
        <ele>134.4</ele>
        <time>1970-01-01T00:00:00Z</time>
      </trkpt>
      <trkpt lat="43.59986" lon="3.72743">
        <ele>135.3</ele>
        <time>1970-01-01T00:00:00Z</time>
      </trkpt>
      <trkpt lat="43.59993" lon="3.72729">
        <ele>136</ele>
        <time>1970-01-01T00:00:00Z</time>
      </trkpt>
      <trkpt lat="43.5999" lon="3.7271">
        <ele>136.9</ele>
        <time>1970-01-01T00:00:00Z</time>
      </trkpt>
      <trkpt lat="43.59971" lon="3.72686">
        <ele>137.8</ele>
        <time>1970-01-01T00:00:00Z</time>
      </trkpt>
      <trkpt lat="43.59951" lon="3.72667">
        <ele>138.4</ele>
        <time>1970-01-01T00:00:00Z</time>
      </trkpt>
      <trkpt lat="43.59917" lon="3.72626">
        <ele>140</ele>
        <time>1970-01-01T00:00:00Z</time>
      </trkpt>
      <trkpt lat="43.59897" lon="3.72603">
        <ele>140.8</ele>
        <time>1970-01-01T00:00:00Z</time>
      </trkpt>
      <trkpt lat="43.59863" lon="3.72583">
        <ele>140.7</ele>
        <time>1970-01-01T00:00:00Z</time>
      </trkpt>
      <trkpt lat="43.59815" lon="3.72493">
        <ele>143.5</ele>
        <time>1970-01-01T00:00:00Z</time>
      </trkpt>
      <trkpt lat="43.59762" lon="3.72432">
        <ele>148.6</ele>
        <time>1970-01-01T00:00:00Z</time>
      </trkpt>
      <trkpt lat="43.5975" lon="3.72416">
        <ele>150.1</ele>
        <time>1970-01-01T00:00:00Z</time>
      </trkpt>
      <trkpt lat="43.59731" lon="3.72352">
        <ele>154.9</ele>
        <time>1970-01-01T00:00:00Z</time>
      </trkpt>
      <trkpt lat="43.59728" lon="3.72293">
        <ele>157.5</ele>
        <time>1970-01-01T00:00:00Z</time>
      </trkpt>
      <trkpt lat="43.5972" lon="3.72217">
        <ele>159</ele>
        <time>1970-01-01T00:00:00Z</time>
      </trkpt>
      <trkpt lat="43.59719" lon="3.72168">
        <ele>159.6</ele>
        <time>1970-01-01T00:00:00Z</time>
      </trkpt>
      <trkpt lat="43.5971" lon="3.72126">
        <ele>161.5</ele>
        <time>1970-01-01T00:00:00Z</time>
      </trkpt>
      <trkpt lat="43.59724" lon="3.72081">
        <ele>164.6</ele>
        <time>1970-01-01T00:00:00Z</time>
      </trkpt>
      <trkpt lat="43.59717" lon="3.72025">
        <ele>166.9</ele>
        <time>1970-01-01T00:00:00Z</time>
      </trkpt>
      <trkpt lat="43.59726" lon="3.71952">
        <ele>173</ele>
        <time>1970-01-01T00:00:00Z</time>
      </trkpt>
      <trkpt lat="43.59726" lon="3.71902">
        <ele>176.5</ele>
        <time>1970-01-01T00:00:00Z</time>
      </trkpt>
      <trkpt lat="43.59783" lon="3.71762">
        <ele>187.6</ele>
        <time>1970-01-01T00:00:00Z</time>
      </trkpt>
      <trkpt lat="43.59811" lon="3.71749">
        <ele>189.6</ele>
        <time>1970-01-01T00:00:00Z</time>
      </trkpt>
      <trkpt lat="43.59839" lon="3.7176">
        <ele>191.7</ele>
        <time>1970-01-01T00:00:00Z</time>
      </trkpt>
      <trkpt lat="43.59871" lon="3.71748">
        <ele>195.4</ele>
        <time>1970-01-01T00:00:00Z</time>
      </trkpt>
      <trkpt lat="43.59904" lon="3.71749">
        <ele>199.4</ele>
        <time>1970-01-01T00:00:00Z</time>
      </trkpt>
      <trkpt lat="43.5992" lon="3.71743">
        <ele>200.6</ele>
        <time>1970-01-01T00:00:00Z</time>
      </trkpt>
      <trkpt lat="43.5994" lon="3.71742">
        <ele>200.5</ele>
        <time>1970-01-01T00:00:00Z</time>
      </trkpt>
      <trkpt lat="43.59963" lon="3.71768">
        <ele>203.1</ele>
        <time>1970-01-01T00:00:00Z</time>
      </trkpt>
      <trkpt lat="43.59987" lon="3.7179">
        <ele>206.7</ele>
        <time>1970-01-01T00:00:00Z</time>
      </trkpt>
      <trkpt lat="43.60025" lon="3.71825">
        <ele>212.1</ele>
        <time>1970-01-01T00:00:00Z</time>
      </trkpt>
      <trkpt lat="43.60053" lon="3.71838">
        <ele>213.4</ele>
        <time>1970-01-01T00:00:00Z</time>
      </trkpt>
      <trkpt lat="43.60077" lon="3.71847">
        <ele>214.1</ele>
        <time>1970-01-01T00:00:00Z</time>
      </trkpt>
      <trkpt lat="43.60108" lon="3.71883">
        <ele>217.1</ele>
        <time>1970-01-01T00:00:00Z</time>
      </trkpt>
      <trkpt lat="43.60123" lon="3.71913">
        <ele>220.1</ele>
        <time>1970-01-01T00:00:00Z</time>
      </trkpt>
      <trkpt lat="43.60144" lon="3.71971">
        <ele>223.7</ele>
        <time>1970-01-01T00:00:00Z</time>
      </trkpt>
      <trkpt lat="43.60158" lon="3.7201">
        <ele>225.6</ele>
        <time>1970-01-01T00:00:00Z</time>
      </trkpt>
      <trkpt lat="43.60181" lon="3.72023">
        <ele>225.8</ele>
        <time>1970-01-01T00:00:00Z</time>
      </trkpt>
      <trkpt lat="43.60201" lon="3.72018">
        <ele>227.4</ele>
        <time>1970-01-01T00:00:00Z</time>
      </trkpt>
      <trkpt lat="43.60226" lon="3.71992">
        <ele>229.6</ele>
        <time>1970-01-01T00:00:00Z</time>
      </trkpt>
      <trkpt lat="43.60244" lon="3.71997">
        <ele>231.4</ele>
        <time>1970-01-01T00:00:00Z</time>
      </trkpt>
      <trkpt lat="43.60256" lon="3.72022">
        <ele>229.4</ele>
        <time>1970-01-01T00:00:00Z</time>
      </trkpt>
      <trkpt lat="43.60273" lon="3.72034">
        <ele>226.4</ele>
        <time>1970-01-01T00:00:00Z</time>
      </trkpt>
      <trkpt lat="43.60289" lon="3.7206">
        <ele>222.3</ele>
        <time>1970-01-01T00:00:00Z</time>
      </trkpt>
      <trkpt lat="43.6028" lon="3.72104">
        <ele>218.8</ele>
        <time>1970-01-01T00:00:00Z</time>
      </trkpt>
      <trkpt lat="43.60276" lon="3.72132">
        <ele>215.9</ele>
        <time>1970-01-01T00:00:00Z</time>
      </trkpt>
      <trkpt lat="43.60278" lon="3.72161">
        <ele>212</ele>
        <time>1970-01-01T00:00:00Z</time>
      </trkpt>
      <trkpt lat="43.60283" lon="3.72185">
        <ele>207.6</ele>
        <time>1970-01-01T00:00:00Z</time>
      </trkpt>
      <trkpt lat="43.60285" lon="3.72198">
        <ele>205.3</ele>
        <time>1970-01-01T00:00:00Z</time>
      </trkpt>
      <trkpt lat="43.60291" lon="3.72218">
        <ele>200.9</ele>
        <time>1970-01-01T00:00:00Z</time>
      </trkpt>
      <trkpt lat="43.60292" lon="3.7225">
        <ele>195.6</ele>
        <time>1970-01-01T00:00:00Z</time>
      </trkpt>
      <trkpt lat="43.60294" lon="3.72274">
        <ele>190.8</ele>
        <time>1970-01-01T00:00:00Z</time>
      </trkpt>
      <trkpt lat="43.60291" lon="3.72304">
        <ele>185.5</ele>
        <time>1970-01-01T00:00:00Z</time>
      </trkpt>
      <trkpt lat="43.60291" lon="3.72329">
        <ele>181.1</ele>
        <time>1970-01-01T00:00:00Z</time>
      </trkpt>
      <trkpt lat="43.60288" lon="3.72351">
        <ele>177.7</ele>
        <time>1970-01-01T00:00:00Z</time>
      </trkpt>
      <trkpt lat="43.6029" lon="3.72368">
        <ele>174.6</ele>
        <time>1970-01-01T00:00:00Z</time>
      </trkpt>
      <trkpt lat="43.60277" lon="3.72398">
        <ele>170.9</ele>
        <time>1970-01-01T00:00:00Z</time>
      </trkpt>
      <trkpt lat="43.60263" lon="3.72432">
        <ele>166.6</ele>
        <time>1970-01-01T00:00:00Z</time>
      </trkpt>
      <trkpt lat="43.60256" lon="3.72454">
        <ele>163.8</ele>
        <time>1970-01-01T00:00:00Z</time>
      </trkpt>
      <trkpt lat="43.60244" lon="3.72485">
        <ele>159.6</ele>
        <time>1970-01-01T00:00:00Z</time>
      </trkpt>
      <trkpt lat="43.60242" lon="3.72491">
        <ele>158.6</ele>
        <time>1970-01-01T00:00:00Z</time>
      </trkpt>
      <trkpt lat="43.6024" lon="3.72505">
        <ele>156.6</ele>
        <time>1970-01-01T00:00:00Z</time>
      </trkpt>
      <trkpt lat="43.60234" lon="3.72524">
        <ele>154.4</ele>
        <time>1970-01-01T00:00:00Z</time>
      </trkpt>
      <trkpt lat="43.60211" lon="3.72542">
        <ele>152.4</ele>
        <time>1970-01-01T00:00:00Z</time>
      </trkpt>
      <trkpt lat="43.60183" lon="3.72574">
        <ele>148.2</ele>
        <time>1970-01-01T00:00:00Z</time>
      </trkpt>
      <trkpt lat="43.60162" lon="3.72604">
        <ele>145.4</ele>
        <time>1970-01-01T00:00:00Z</time>
      </trkpt>
      <trkpt lat="43.60157" lon="3.72614">
        <ele>144.7</ele>
        <time>1970-01-01T00:00:00Z</time>
      </trkpt>
      <trkpt lat="43.60151" lon="3.72637">
        <ele>142.9</ele>
        <time>1970-01-01T00:00:00Z</time>
      </trkpt>
      <trkpt lat="43.60157" lon="3.72656">
        <ele>141.6</ele>
        <time>1970-01-01T00:00:00Z</time>
      </trkpt>
      <trkpt lat="43.60166" lon="3.72655">
        <ele>141.8</ele>
        <time>1970-01-01T00:00:00Z</time>
      </trkpt>
      <trkpt lat="43.60206" lon="3.72618">
        <ele>146.1</ele>
        <time>1970-01-01T00:00:00Z</time>
      </trkpt>
      <trkpt lat="43.6024" lon="3.72587">
        <ele>147</ele>
        <time>1970-01-01T00:00:00Z</time>
      </trkpt>
      <trkpt lat="43.60267" lon="3.72563">
        <ele>150.5</ele>
        <time>1970-01-01T00:00:00Z</time>
      </trkpt>
      <trkpt lat="43.60295" lon="3.72551">
        <ele>152.9</ele>
        <time>1970-01-01T00:00:00Z</time>
      </trkpt>
      <trkpt lat="43.60332" lon="3.72522">
        <ele>154.3</ele>
        <time>1970-01-01T00:00:00Z</time>
      </trkpt>
      <trkpt lat="43.60349" lon="3.72508">
        <ele>154.4</ele>
        <time>1970-01-01T00:00:00Z</time>
      </trkpt>
      <trkpt lat="43.60374" lon="3.72494">
        <ele>154.9</ele>
        <time>1970-01-01T00:00:00Z</time>
      </trkpt>
      <trkpt lat="43.60393" lon="3.7248">
        <ele>155.8</ele>
        <time>1970-01-01T00:00:00Z</time>
      </trkpt>
      <trkpt lat="43.60428" lon="3.72469">
        <ele>157.1</ele>
        <time>1970-01-01T00:00:00Z</time>
      </trkpt>
      <trkpt lat="43.60451" lon="3.7244">
        <ele>158.9</ele>
        <time>1970-01-01T00:00:00Z</time>
      </trkpt>
      <trkpt lat="43.60466" lon="3.72403">
        <ele>159.4</ele>
        <time>1970-01-01T00:00:00Z</time>
      </trkpt>
      <trkpt lat="43.60475" lon="3.72388">
        <ele>159.7</ele>
        <time>1970-01-01T00:00:00Z</time>
      </trkpt>
      <trkpt lat="43.60499" lon="3.72337">
        <ele>159.1</ele>
        <time>1970-01-01T00:00:00Z</time>
      </trkpt>
      <trkpt lat="43.60522" lon="3.72294">
        <ele>162.7</ele>
        <time>1970-01-01T00:00:00Z</time>
      </trkpt>
      <trkpt lat="43.6054" lon="3.72261">
        <ele>164.7</ele>
        <time>1970-01-01T00:00:00Z</time>
      </trkpt>
      <trkpt lat="43.6055" lon="3.72229">
        <ele>165.9</ele>
        <time>1970-01-01T00:00:00Z</time>
      </trkpt>
      <trkpt lat="43.60559" lon="3.72184">
        <ele>167.5</ele>
        <time>1970-01-01T00:00:00Z</time>
      </trkpt>
      <trkpt lat="43.60569" lon="3.72163">
        <ele>168.2</ele>
        <time>1970-01-01T00:00:00Z</time>
      </trkpt>
      <trkpt lat="43.60575" lon="3.72132">
        <ele>169.4</ele>
        <time>1970-01-01T00:00:00Z</time>
      </trkpt>
      <trkpt lat="43.60587" lon="3.72123">
        <ele>170</ele>
        <time>1970-01-01T00:00:00Z</time>
      </trkpt>
      <trkpt lat="43.60601" lon="3.72125">
        <ele>171.7</ele>
        <time>1970-01-01T00:00:00Z</time>
      </trkpt>
      <trkpt lat="43.60602" lon="3.72125">
        <ele>171.7</ele>
        <time>1970-01-01T00:00:00Z</time>
      </trkpt>
      <trkpt lat="43.60613" lon="3.72115">
        <ele>173.5</ele>
        <time>1970-01-01T00:00:00Z</time>
      </trkpt>
      <trkpt lat="43.60631" lon="3.72112">
        <ele>176</ele>
        <time>1970-01-01T00:00:00Z</time>
      </trkpt>
      <trkpt lat="43.60631" lon="3.72112">
        <ele>176.1</ele>
        <time>1970-01-01T00:00:00Z</time>
      </trkpt>
      <trkpt lat="43.60648" lon="3.72125">
        <ele>177.2</ele>
        <time>1970-01-01T00:00:00Z</time>
      </trkpt>
      <trkpt lat="43.60658" lon="3.72141">
        <ele>177.2</ele>
        <time>1970-01-01T00:00:00Z</time>
      </trkpt>
      <trkpt lat="43.60665" lon="3.72162">
        <ele>176.2</ele>
        <time>1970-01-01T00:00:00Z</time>
      </trkpt>
      <trkpt lat="43.60667" lon="3.72181">
        <ele>176.3</ele>
        <time>1970-01-01T00:00:00Z</time>
      </trkpt>
      <trkpt lat="43.6068" lon="3.72197">
        <ele>178.9</ele>
        <time>1970-01-01T00:00:00Z</time>
      </trkpt>
      <trkpt lat="43.60688" lon="3.72223">
        <ele>179.7</ele>
        <time>1970-01-01T00:00:00Z</time>
      </trkpt>
      <trkpt lat="43.60688" lon="3.72224">
        <ele>179.7</ele>
        <time>1970-01-01T00:00:00Z</time>
      </trkpt>
      <trkpt lat="43.60693" lon="3.72244">
        <ele>179.7</ele>
        <time>1970-01-01T00:00:00Z</time>
      </trkpt>
      <trkpt lat="43.607" lon="3.72253">
        <ele>179.9</ele>
        <time>1970-01-01T00:00:00Z</time>
      </trkpt>
      <trkpt lat="43.60712" lon="3.72259">
        <ele>180.1</ele>
        <time>1970-01-01T00:00:00Z</time>
      </trkpt>
      <trkpt lat="43.60721" lon="3.72252">
        <ele>181.1</ele>
        <time>1970-01-01T00:00:00Z</time>
      </trkpt>
      <trkpt lat="43.60722" lon="3.72236">
        <ele>182.5</ele>
        <time>1970-01-01T00:00:00Z</time>
      </trkpt>
      <trkpt lat="43.60722" lon="3.7219">
        <ele>186.1</ele>
        <time>1970-01-01T00:00:00Z</time>
      </trkpt>
      <trkpt lat="43.60715" lon="3.7214">
        <ele>189</ele>
        <time>1970-01-01T00:00:00Z</time>
      </trkpt>
      <trkpt lat="43.60718" lon="3.72084">
        <ele>195.3</ele>
        <time>1970-01-01T00:00:00Z</time>
      </trkpt>
      <trkpt lat="43.60723" lon="3.72045">
        <ele>200</ele>
        <time>1970-01-01T00:00:00Z</time>
      </trkpt>
      <trkpt lat="43.60716" lon="3.72016">
        <ele>201.8</ele>
        <time>1970-01-01T00:00:00Z</time>
      </trkpt>
      <trkpt lat="43.60681" lon="3.71962">
        <ele>202.6</ele>
        <time>1970-01-01T00:00:00Z</time>
      </trkpt>
      <trkpt lat="43.60676" lon="3.71946">
        <ele>203.7</ele>
        <time>1970-01-01T00:00:00Z</time>
      </trkpt>
      <trkpt lat="43.60665" lon="3.71863">
        <ele>205.3</ele>
        <time>1970-01-01T00:00:00Z</time>
      </trkpt>
      <trkpt lat="43.60655" lon="3.71825">
        <ele>204.1</ele>
        <time>1970-01-01T00:00:00Z</time>
      </trkpt>
      <trkpt lat="43.60635" lon="3.71819">
        <ele>204</ele>
        <time>1970-01-01T00:00:00Z</time>
      </trkpt>
      <trkpt lat="43.60592" lon="3.71795">
        <ele>204.9</ele>
        <time>1970-01-01T00:00:00Z</time>
      </trkpt>
      <trkpt lat="43.60564" lon="3.71777">
        <ele>207.4</ele>
        <time>1970-01-01T00:00:00Z</time>
      </trkpt>
      <trkpt lat="43.60521" lon="3.71757">
        <ele>213.5</ele>
        <time>1970-01-01T00:00:00Z</time>
      </trkpt>
      <trkpt lat="43.60496" lon="3.71758">
        <ele>216.3</ele>
        <time>1970-01-01T00:00:00Z</time>
      </trkpt>
      <trkpt lat="43.60491" lon="3.71753">
        <ele>217.5</ele>
        <time>1970-01-01T00:00:00Z</time>
      </trkpt>
      <trkpt lat="43.60501" lon="3.71712">
        <ele>218.8</ele>
        <time>1970-01-01T00:00:00Z</time>
      </trkpt>
      <trkpt lat="43.60513" lon="3.71643">
        <ele>219.8</ele>
        <time>1970-01-01T00:00:00Z</time>
      </trkpt>
      <trkpt lat="43.60511" lon="3.7163">
        <ele>220.3</ele>
        <time>1970-01-01T00:00:00Z</time>
      </trkpt>
      <trkpt lat="43.60507" lon="3.71615">
        <ele>221.2</ele>
        <time>1970-01-01T00:00:00Z</time>
      </trkpt>
      <trkpt lat="43.60504" lon="3.71582">
        <ele>222.3</ele>
        <time>1970-01-01T00:00:00Z</time>
      </trkpt>
      <trkpt lat="43.60494" lon="3.71571">
        <ele>222.4</ele>
        <time>1970-01-01T00:00:00Z</time>
      </trkpt>
      <trkpt lat="43.60483" lon="3.71562">
        <ele>222.3</ele>
        <time>1970-01-01T00:00:00Z</time>
      </trkpt>
      <trkpt lat="43.60433" lon="3.71565">
        <ele>224.8</ele>
        <time>1970-01-01T00:00:00Z</time>
      </trkpt>
      <trkpt lat="43.60404" lon="3.71566">
        <ele>223.4</ele>
        <time>1970-01-01T00:00:00Z</time>
      </trkpt>
      <trkpt lat="43.60378" lon="3.71571">
        <ele>219</ele>
        <time>1970-01-01T00:00:00Z</time>
      </trkpt>
      <trkpt lat="43.60275" lon="3.71614">
        <ele>205.2</ele>
        <time>1970-01-01T00:00:00Z</time>
      </trkpt>
      <trkpt lat="43.60262" lon="3.71612">
        <ele>203.3</ele>
        <time>1970-01-01T00:00:00Z</time>
      </trkpt>
      <trkpt lat="43.60227" lon="3.71605">
        <ele>196.8</ele>
        <time>1970-01-01T00:00:00Z</time>
      </trkpt>
      <trkpt lat="43.60214" lon="3.71602">
        <ele>194.2</ele>
        <time>1970-01-01T00:00:00Z</time>
      </trkpt>
      <trkpt lat="43.60054" lon="3.71611">
        <ele>183.7</ele>
        <time>1970-01-01T00:00:00Z</time>
      </trkpt>
      <trkpt lat="43.60028" lon="3.71614">
        <ele>187.3</ele>
        <time>1970-01-01T00:00:00Z</time>
      </trkpt>
      <trkpt lat="43.59999" lon="3.71636">
        <ele>192.1</ele>
        <time>1970-01-01T00:00:00Z</time>
      </trkpt>
      <trkpt lat="43.59995" lon="3.71624">
        <ele>191.3</ele>
        <time>1970-01-01T00:00:00Z</time>
      </trkpt>
      <trkpt lat="43.59988" lon="3.71608">
        <ele>189.9</ele>
        <time>1970-01-01T00:00:00Z</time>
      </trkpt>
      <trkpt lat="43.59978" lon="3.71601">
        <ele>188.7</ele>
        <time>1970-01-01T00:00:00Z</time>
      </trkpt>
      <trkpt lat="43.59971" lon="3.71598">
        <ele>188</ele>
        <time>1970-01-01T00:00:00Z</time>
      </trkpt>
      <trkpt lat="43.59968" lon="3.71597">
        <ele>187.7</ele>
        <time>1970-01-01T00:00:00Z</time>
      </trkpt>
      <trkpt lat="43.59956" lon="3.7158">
        <ele>185.1</ele>
        <time>1970-01-01T00:00:00Z</time>
      </trkpt>
      <trkpt lat="43.5995" lon="3.7156">
        <ele>183.4</ele>
        <time>1970-01-01T00:00:00Z</time>
      </trkpt>
      <trkpt lat="43.5994" lon="3.71547">
        <ele>181.2</ele>
        <time>1970-01-01T00:00:00Z</time>
      </trkpt>
      <trkpt lat="43.59929" lon="3.71528">
        <ele>177.9</ele>
        <time>1970-01-01T00:00:00Z</time>
      </trkpt>
      <trkpt lat="43.59927" lon="3.71518">
        <ele>176.6</ele>
        <time>1970-01-01T00:00:00Z</time>
      </trkpt>
      <trkpt lat="43.59925" lon="3.71513">
        <ele>175.8</ele>
        <time>1970-01-01T00:00:00Z</time>
      </trkpt>
      <trkpt lat="43.59924" lon="3.7151">
        <ele>175.3</ele>
        <time>1970-01-01T00:00:00Z</time>
      </trkpt>
      <trkpt lat="43.5992" lon="3.71502">
        <ele>173.9</ele>
        <time>1970-01-01T00:00:00Z</time>
      </trkpt>
      <trkpt lat="43.59917" lon="3.71486">
        <ele>171.8</ele>
        <time>1970-01-01T00:00:00Z</time>
      </trkpt>
      <trkpt lat="43.59912" lon="3.71474">
        <ele>170</ele>
        <time>1970-01-01T00:00:00Z</time>
      </trkpt>
      <trkpt lat="43.5991" lon="3.71463">
        <ele>168.8</ele>
        <time>1970-01-01T00:00:00Z</time>
      </trkpt>
      <trkpt lat="43.59906" lon="3.71449">
        <ele>167</ele>
        <time>1970-01-01T00:00:00Z</time>
      </trkpt>
      <trkpt lat="43.59904" lon="3.71434">
        <ele>165.4</ele>
        <time>1970-01-01T00:00:00Z</time>
      </trkpt>
      <trkpt lat="43.59886" lon="3.71367">
        <ele>157.2</ele>
        <time>1970-01-01T00:00:00Z</time>
      </trkpt>
      <trkpt lat="43.59878" lon="3.71308">
        <ele>150.7</ele>
        <time>1970-01-01T00:00:00Z</time>
      </trkpt>
      <trkpt lat="43.59878" lon="3.7128">
        <ele>148.2</ele>
        <time>1970-01-01T00:00:00Z</time>
      </trkpt>
      <trkpt lat="43.59877" lon="3.71273">
        <ele>147.3</ele>
        <time>1970-01-01T00:00:00Z</time>
      </trkpt>
      <trkpt lat="43.5988" lon="3.71256">
        <ele>146.2</ele>
        <time>1970-01-01T00:00:00Z</time>
      </trkpt>
      <trkpt lat="43.59883" lon="3.71231">
        <ele>144.1</ele>
        <time>1970-01-01T00:00:00Z</time>
      </trkpt>
      <trkpt lat="43.59886" lon="3.71225">
        <ele>143.8</ele>
        <time>1970-01-01T00:00:00Z</time>
      </trkpt>
      <trkpt lat="43.59887" lon="3.71217">
        <ele>143.2</ele>
        <time>1970-01-01T00:00:00Z</time>
      </trkpt>
      <trkpt lat="43.59891" lon="3.71193">
        <ele>141.1</ele>
        <time>1970-01-01T00:00:00Z</time>
      </trkpt>
      <trkpt lat="43.59892" lon="3.71181">
        <ele>140.1</ele>
        <time>1970-01-01T00:00:00Z</time>
      </trkpt>
      <trkpt lat="43.59897" lon="3.71169">
        <ele>139.4</ele>
        <time>1970-01-01T00:00:00Z</time>
      </trkpt>
      <trkpt lat="43.59905" lon="3.71146">
        <ele>138.5</ele>
        <time>1970-01-01T00:00:00Z</time>
      </trkpt>
      <trkpt lat="43.59909" lon="3.71129">
        <ele>137.5</ele>
        <time>1970-01-01T00:00:00Z</time>
      </trkpt>
      <trkpt lat="43.59914" lon="3.71112">
        <ele>136.5</ele>
        <time>1970-01-01T00:00:00Z</time>
      </trkpt>
      <trkpt lat="43.59913" lon="3.7109">
        <ele>134.4</ele>
        <time>1970-01-01T00:00:00Z</time>
      </trkpt>
      <trkpt lat="43.59922" lon="3.71072">
        <ele>134.5</ele>
        <time>1970-01-01T00:00:00Z</time>
      </trkpt>
      <trkpt lat="43.5993" lon="3.71059">
        <ele>135.1</ele>
        <time>1970-01-01T00:00:00Z</time>
      </trkpt>
      <trkpt lat="43.59936" lon="3.7104">
        <ele>135.1</ele>
        <time>1970-01-01T00:00:00Z</time>
      </trkpt>
      <trkpt lat="43.59939" lon="3.71029">
        <ele>135</ele>
        <time>1970-01-01T00:00:00Z</time>
      </trkpt>
      <trkpt lat="43.59952" lon="3.71011">
        <ele>135.2</ele>
        <time>1970-01-01T00:00:00Z</time>
      </trkpt>
      <trkpt lat="43.5995" lon="3.70981">
        <ele>135.6</ele>
        <time>1970-01-01T00:00:00Z</time>
      </trkpt>
      <trkpt lat="43.59951" lon="3.70966">
        <ele>136.4</ele>
        <time>1970-01-01T00:00:00Z</time>
      </trkpt>
      <trkpt lat="43.59957" lon="3.70949">
        <ele>137.4</ele>
        <time>1970-01-01T00:00:00Z</time>
      </trkpt>
      <trkpt lat="43.59958" lon="3.70949">
        <ele>137.4</ele>
        <time>1970-01-01T00:00:00Z</time>
      </trkpt>
      <trkpt lat="43.5996" lon="3.70932">
        <ele>138.3</ele>
        <time>1970-01-01T00:00:00Z</time>
      </trkpt>
      <trkpt lat="43.59977" lon="3.70896">
        <ele>140.4</ele>
        <time>1970-01-01T00:00:00Z</time>
      </trkpt>
      <trkpt lat="43.59982" lon="3.70835">
        <ele>144.3</ele>
        <time>1970-01-01T00:00:00Z</time>
      </trkpt>
      <trkpt lat="43.6001" lon="3.70799">
        <ele>149.5</ele>
        <time>1970-01-01T00:00:00Z</time>
      </trkpt>
      <trkpt lat="43.60011" lon="3.70798">
        <ele>149.6</ele>
        <time>1970-01-01T00:00:00Z</time>
      </trkpt>
      <trkpt lat="43.60017" lon="3.70782">
        <ele>152</ele>
        <time>1970-01-01T00:00:00Z</time>
      </trkpt>
      <trkpt lat="43.60033" lon="3.70743">
        <ele>157</ele>
        <time>1970-01-01T00:00:00Z</time>
      </trkpt>
      <trkpt lat="43.60044" lon="3.70679">
        <ele>159.7</ele>
        <time>1970-01-01T00:00:00Z</time>
      </trkpt>
      <trkpt lat="43.60061" lon="3.70639">
        <ele>160.3</ele>
        <time>1970-01-01T00:00:00Z</time>
      </trkpt>
      <trkpt lat="43.60069" lon="3.70595">
        <ele>160.6</ele>
        <time>1970-01-01T00:00:00Z</time>
      </trkpt>
      <trkpt lat="43.60082" lon="3.70463">
        <ele>169.4</ele>
        <time>1970-01-01T00:00:00Z</time>
      </trkpt>
      <trkpt lat="43.60105" lon="3.70431">
        <ele>171.9</ele>
        <time>1970-01-01T00:00:00Z</time>
      </trkpt>
      <trkpt lat="43.60106" lon="3.70431">
        <ele>171.9</ele>
        <time>1970-01-01T00:00:00Z</time>
      </trkpt>
      <trkpt lat="43.60131" lon="3.70413">
        <ele>173</ele>
        <time>1970-01-01T00:00:00Z</time>
      </trkpt>
      <trkpt lat="43.60164" lon="3.70428">
        <ele>172.3</ele>
        <time>1970-01-01T00:00:00Z</time>
      </trkpt>
      <trkpt lat="43.60205" lon="3.70432">
        <ele>176.5</ele>
        <time>1970-01-01T00:00:00Z</time>
      </trkpt>
      <trkpt lat="43.60247" lon="3.70427">
        <ele>181</ele>
        <time>1970-01-01T00:00:00Z</time>
      </trkpt>
      <trkpt lat="43.60269" lon="3.70433">
        <ele>182.9</ele>
        <time>1970-01-01T00:00:00Z</time>
      </trkpt>
      <trkpt lat="43.60279" lon="3.70461">
        <ele>184.5</ele>
        <time>1970-01-01T00:00:00Z</time>
      </trkpt>
      <trkpt lat="43.60298" lon="3.70467">
        <ele>185.9</ele>
        <time>1970-01-01T00:00:00Z</time>
      </trkpt>
      <trkpt lat="43.60323" lon="3.70464">
        <ele>187.4</ele>
        <time>1970-01-01T00:00:00Z</time>
      </trkpt>
      <trkpt lat="43.60332" lon="3.7044">
        <ele>187.4</ele>
        <time>1970-01-01T00:00:00Z</time>
      </trkpt>
      <trkpt lat="43.6034" lon="3.70426">
        <ele>187.6</ele>
        <time>1970-01-01T00:00:00Z</time>
      </trkpt>
      <trkpt lat="43.60349" lon="3.70414">
        <ele>188.2</ele>
        <time>1970-01-01T00:00:00Z</time>
      </trkpt>
      <trkpt lat="43.60356" lon="3.70401">
        <ele>189.1</ele>
        <time>1970-01-01T00:00:00Z</time>
      </trkpt>
      <trkpt lat="43.60343" lon="3.70386">
        <ele>188.7</ele>
        <time>1970-01-01T00:00:00Z</time>
      </trkpt>
      <trkpt lat="43.60319" lon="3.70365">
        <ele>189.2</ele>
        <time>1970-01-01T00:00:00Z</time>
      </trkpt>
      <trkpt lat="43.60312" lon="3.70356">
        <ele>190.1</ele>
        <time>1970-01-01T00:00:00Z</time>
      </trkpt>
      <trkpt lat="43.60304" lon="3.70354">
        <ele>190.6</ele>
        <time>1970-01-01T00:00:00Z</time>
      </trkpt>
      <trkpt lat="43.60288" lon="3.70351">
        <ele>191.7</ele>
        <time>1970-01-01T00:00:00Z</time>
      </trkpt>
      <trkpt lat="43.60267" lon="3.70345">
        <ele>193.7</ele>
        <time>1970-01-01T00:00:00Z</time>
      </trkpt>
      <trkpt lat="43.60248" lon="3.70337">
        <ele>196.1</ele>
        <time>1970-01-01T00:00:00Z</time>
      </trkpt>
      <trkpt lat="43.60234" lon="3.70323">
        <ele>196.2</ele>
        <time>1970-01-01T00:00:00Z</time>
      </trkpt>
      <trkpt lat="43.60222" lon="3.70312">
        <ele>196.1</ele>
        <time>1970-01-01T00:00:00Z</time>
      </trkpt>
      <trkpt lat="43.60205" lon="3.70301">
        <ele>195.7</ele>
        <time>1970-01-01T00:00:00Z</time>
      </trkpt>
      <trkpt lat="43.60194" lon="3.70286">
        <ele>196.7</ele>
        <time>1970-01-01T00:00:00Z</time>
      </trkpt>
      <trkpt lat="43.60186" lon="3.70273">
        <ele>197.9</ele>
        <time>1970-01-01T00:00:00Z</time>
      </trkpt>
      <trkpt lat="43.60151" lon="3.70222">
        <ele>200</ele>
        <time>1970-01-01T00:00:00Z</time>
      </trkpt>
      <trkpt lat="43.60152" lon="3.70185">
        <ele>199.7</ele>
        <time>1970-01-01T00:00:00Z</time>
      </trkpt>
      <trkpt lat="43.60145" lon="3.70131">
        <ele>197.2</ele>
        <time>1970-01-01T00:00:00Z</time>
      </trkpt>
      <trkpt lat="43.60163" lon="3.7012">
        <ele>193.5</ele>
        <time>1970-01-01T00:00:00Z</time>
      </trkpt>
      <trkpt lat="43.60169" lon="3.70117">
        <ele>192.7</ele>
        <time>1970-01-01T00:00:00Z</time>
      </trkpt>
      <trkpt lat="43.60164" lon="3.70091">
        <ele>190.2</ele>
        <time>1970-01-01T00:00:00Z</time>
      </trkpt>
      <trkpt lat="43.60176" lon="3.70084">
        <ele>189</ele>
        <time>1970-01-01T00:00:00Z</time>
      </trkpt>
      <trkpt lat="43.60184" lon="3.70059">
        <ele>187</ele>
        <time>1970-01-01T00:00:00Z</time>
      </trkpt>
      <trkpt lat="43.60199" lon="3.70027">
        <ele>183.3</ele>
        <time>1970-01-01T00:00:00Z</time>
      </trkpt>
      <trkpt lat="43.60211" lon="3.70008">
        <ele>180</ele>
        <time>1970-01-01T00:00:00Z</time>
      </trkpt>
      <trkpt lat="43.60233" lon="3.6998">
        <ele>174.9</ele>
        <time>1970-01-01T00:00:00Z</time>
      </trkpt>
      <trkpt lat="43.6023" lon="3.69969">
        <ele>174.4</ele>
        <time>1970-01-01T00:00:00Z</time>
      </trkpt>
      <trkpt lat="43.60214" lon="3.69945">
        <ele>173.9</ele>
        <time>1970-01-01T00:00:00Z</time>
      </trkpt>
      <trkpt lat="43.60208" lon="3.69934">
        <ele>173.2</ele>
        <time>1970-01-01T00:00:00Z</time>
      </trkpt>
      <trkpt lat="43.60191" lon="3.69924">
        <ele>173</ele>
        <time>1970-01-01T00:00:00Z</time>
      </trkpt>
      <trkpt lat="43.60176" lon="3.69923">
        <ele>173.6</ele>
        <time>1970-01-01T00:00:00Z</time>
      </trkpt>
      <trkpt lat="43.60178" lon="3.69896">
        <ele>171.2</ele>
        <time>1970-01-01T00:00:00Z</time>
      </trkpt>
      <trkpt lat="43.6017" lon="3.69878">
        <ele>169.8</ele>
        <time>1970-01-01T00:00:00Z</time>
      </trkpt>
      <trkpt lat="43.6017" lon="3.69857">
        <ele>168.2</ele>
        <time>1970-01-01T00:00:00Z</time>
      </trkpt>
      <trkpt lat="43.60162" lon="3.69836">
        <ele>166</ele>
        <time>1970-01-01T00:00:00Z</time>
      </trkpt>
      <trkpt lat="43.60164" lon="3.69824">
        <ele>166.6</ele>
        <time>1970-01-01T00:00:00Z</time>
      </trkpt>
      <trkpt lat="43.60155" lon="3.69812">
        <ele>166.8</ele>
        <time>1970-01-01T00:00:00Z</time>
      </trkpt>
      <trkpt lat="43.60177" lon="3.69799">
        <ele>169.7</ele>
        <time>1970-01-01T00:00:00Z</time>
      </trkpt>
      <trkpt lat="43.60185" lon="3.69808">
        <ele>169.7</ele>
        <time>1970-01-01T00:00:00Z</time>
      </trkpt>
      <trkpt lat="43.60192" lon="3.69821">
        <ele>168.9</ele>
        <time>1970-01-01T00:00:00Z</time>
      </trkpt>
      <trkpt lat="43.60203" lon="3.69829">
        <ele>169.1</ele>
        <time>1970-01-01T00:00:00Z</time>
      </trkpt>
      <trkpt lat="43.60205" lon="3.6983">
        <ele>169.1</ele>
        <time>1970-01-01T00:00:00Z</time>
      </trkpt>
      <trkpt lat="43.60214" lon="3.6984">
        <ele>169.6</ele>
        <time>1970-01-01T00:00:00Z</time>
      </trkpt>
      <trkpt lat="43.60215" lon="3.69841">
        <ele>169.7</ele>
        <time>1970-01-01T00:00:00Z</time>
      </trkpt>
      <trkpt lat="43.60223" lon="3.69852">
        <ele>170.3</ele>
        <time>1970-01-01T00:00:00Z</time>
      </trkpt>
      <trkpt lat="43.60254" lon="3.69858">
        <ele>171.7</ele>
        <time>1970-01-01T00:00:00Z</time>
      </trkpt>
      <trkpt lat="43.6028" lon="3.69873">
        <ele>173</ele>
        <time>1970-01-01T00:00:00Z</time>
      </trkpt>
      <trkpt lat="43.603" lon="3.69861">
        <ele>174.5</ele>
        <time>1970-01-01T00:00:00Z</time>
      </trkpt>
      <trkpt lat="43.60321" lon="3.69835">
        <ele>176.2</ele>
        <time>1970-01-01T00:00:00Z</time>
      </trkpt>
      <trkpt lat="43.60323" lon="3.6982">
        <ele>176.2</ele>
        <time>1970-01-01T00:00:00Z</time>
      </trkpt>
      <trkpt lat="43.60335" lon="3.69815">
        <ele>176.1</ele>
        <time>1970-01-01T00:00:00Z</time>
      </trkpt>
      <trkpt lat="43.60335" lon="3.69815">
        <ele>176</ele>
        <time>1970-01-01T00:00:00Z</time>
      </trkpt>
      <trkpt lat="43.6036" lon="3.69803">
        <ele>171.6</ele>
        <time>1970-01-01T00:00:00Z</time>
      </trkpt>
      <trkpt lat="43.60373" lon="3.69783">
        <ele>168.4</ele>
        <time>1970-01-01T00:00:00Z</time>
      </trkpt>
      <trkpt lat="43.604" lon="3.69776">
        <ele>163.2</ele>
        <time>1970-01-01T00:00:00Z</time>
      </trkpt>
      <trkpt lat="43.60419" lon="3.69769">
        <ele>159.3</ele>
        <time>1970-01-01T00:00:00Z</time>
      </trkpt>
      <trkpt lat="43.60449" lon="3.69751">
        <ele>154.9</ele>
        <time>1970-01-01T00:00:00Z</time>
      </trkpt>
      <trkpt lat="43.6045" lon="3.69751">
        <ele>154.8</ele>
        <time>1970-01-01T00:00:00Z</time>
      </trkpt>
      <trkpt lat="43.60486" lon="3.69735">
        <ele>149.9</ele>
        <time>1970-01-01T00:00:00Z</time>
      </trkpt>
      <trkpt lat="43.60494" lon="3.69687">
        <ele>144.6</ele>
        <time>1970-01-01T00:00:00Z</time>
      </trkpt>
      <trkpt lat="43.60528" lon="3.6964">
        <ele>136.8</ele>
        <time>1970-01-01T00:00:00Z</time>
      </trkpt>
      <trkpt lat="43.60543" lon="3.69628">
        <ele>134.8</ele>
        <time>1970-01-01T00:00:00Z</time>
      </trkpt>
      <trkpt lat="43.6056" lon="3.69592">
        <ele>132.2</ele>
        <time>1970-01-01T00:00:00Z</time>
      </trkpt>
      <trkpt lat="43.60587" lon="3.69583">
        <ele>131.5</ele>
        <time>1970-01-01T00:00:00Z</time>
      </trkpt>
      <trkpt lat="43.60609" lon="3.69565">
        <ele>137.7</ele>
        <time>1970-01-01T00:00:00Z</time>
      </trkpt>
      <trkpt lat="43.60618" lon="3.69558">
        <ele>140.4</ele>
        <time>1970-01-01T00:00:00Z</time>
      </trkpt>
      <trkpt lat="43.60628" lon="3.6956">
        <ele>141.9</ele>
        <time>1970-01-01T00:00:00Z</time>
      </trkpt>
      <trkpt lat="43.60654" lon="3.69583">
        <ele>140.4</ele>
        <time>1970-01-01T00:00:00Z</time>
      </trkpt>
      <trkpt lat="43.6068" lon="3.69612">
        <ele>141.9</ele>
        <time>1970-01-01T00:00:00Z</time>
      </trkpt>
      <trkpt lat="43.60696" lon="3.69641">
        <ele>141.3</ele>
        <time>1970-01-01T00:00:00Z</time>
      </trkpt>
      <trkpt lat="43.60702" lon="3.69652">
        <ele>140.8</ele>
        <time>1970-01-01T00:00:00Z</time>
      </trkpt>
      <trkpt lat="43.60701" lon="3.69666">
        <ele>139.1</ele>
        <time>1970-01-01T00:00:00Z</time>
      </trkpt>
      <trkpt lat="43.60706" lon="3.69685">
        <ele>139.6</ele>
        <time>1970-01-01T00:00:00Z</time>
      </trkpt>
      <trkpt lat="43.60719" lon="3.69702">
        <ele>140.5</ele>
        <time>1970-01-01T00:00:00Z</time>
      </trkpt>
      <trkpt lat="43.60734" lon="3.69706">
        <ele>141.7</ele>
        <time>1970-01-01T00:00:00Z</time>
      </trkpt>
      <trkpt lat="43.60748" lon="3.69706">
        <ele>142.9</ele>
        <time>1970-01-01T00:00:00Z</time>
      </trkpt>
      <trkpt lat="43.60763" lon="3.69713">
        <ele>144.6</ele>
        <time>1970-01-01T00:00:00Z</time>
      </trkpt>
      <trkpt lat="43.60792" lon="3.69701">
        <ele>149.3</ele>
        <time>1970-01-01T00:00:00Z</time>
      </trkpt>
      <trkpt lat="43.60816" lon="3.69696">
        <ele>153.1</ele>
        <time>1970-01-01T00:00:00Z</time>
      </trkpt>
      <trkpt lat="43.60824" lon="3.69689">
        <ele>154.7</ele>
        <time>1970-01-01T00:00:00Z</time>
      </trkpt>
      <trkpt lat="43.60836" lon="3.69681">
        <ele>157.1</ele>
        <time>1970-01-01T00:00:00Z</time>
      </trkpt>
      <trkpt lat="43.60857" lon="3.69683">
        <ele>158.9</ele>
        <time>1970-01-01T00:00:00Z</time>
      </trkpt>
      <trkpt lat="43.60867" lon="3.69682">
        <ele>159.9</ele>
        <time>1970-01-01T00:00:00Z</time>
      </trkpt>
      <trkpt lat="43.60901" lon="3.69679">
        <ele>163.2</ele>
        <time>1970-01-01T00:00:00Z</time>
      </trkpt>
      <trkpt lat="43.60937" lon="3.69672">
        <ele>163.2</ele>
        <time>1970-01-01T00:00:00Z</time>
      </trkpt>
      <trkpt lat="43.6095" lon="3.69674">
        <ele>162.2</ele>
        <time>1970-01-01T00:00:00Z</time>
      </trkpt>
      <trkpt lat="43.60973" lon="3.6969">
        <ele>160.4</ele>
        <time>1970-01-01T00:00:00Z</time>
      </trkpt>
      <trkpt lat="43.60983" lon="3.69698">
        <ele>159.9</ele>
        <time>1970-01-01T00:00:00Z</time>
      </trkpt>
      <trkpt lat="43.61007" lon="3.69689">
        <ele>157.6</ele>
        <time>1970-01-01T00:00:00Z</time>
      </trkpt>
      <trkpt lat="43.61016" lon="3.69674">
        <ele>156.3</ele>
        <time>1970-01-01T00:00:00Z</time>
      </trkpt>
      <trkpt lat="43.61024" lon="3.6966">
        <ele>154.8</ele>
        <time>1970-01-01T00:00:00Z</time>
      </trkpt>
      <trkpt lat="43.61029" lon="3.69636">
        <ele>153.2</ele>
        <time>1970-01-01T00:00:00Z</time>
      </trkpt>
      <trkpt lat="43.61056" lon="3.69592">
        <ele>147.1</ele>
        <time>1970-01-01T00:00:00Z</time>
      </trkpt>
      <trkpt lat="43.61048" lon="3.69552">
        <ele>147.2</ele>
        <time>1970-01-01T00:00:00Z</time>
      </trkpt>
      <trkpt lat="43.61025" lon="3.6947">
        <ele>147.7</ele>
        <time>1970-01-01T00:00:00Z</time>
      </trkpt>
      <trkpt lat="43.61024" lon="3.6942">
        <ele>146.8</ele>
        <time>1970-01-01T00:00:00Z</time>
      </trkpt>
      <trkpt lat="43.61033" lon="3.69387">
        <ele>145.4</ele>
        <time>1970-01-01T00:00:00Z</time>
      </trkpt>
      <trkpt lat="43.61034" lon="3.69347">
        <ele>144.8</ele>
        <time>1970-01-01T00:00:00Z</time>
      </trkpt>
      <trkpt lat="43.61029" lon="3.69316">
        <ele>143.5</ele>
        <time>1970-01-01T00:00:00Z</time>
      </trkpt>
      <trkpt lat="43.61024" lon="3.69301">
        <ele>142.5</ele>
        <time>1970-01-01T00:00:00Z</time>
      </trkpt>
      <trkpt lat="43.61021" lon="3.69251">
        <ele>138.1</ele>
        <time>1970-01-01T00:00:00Z</time>
      </trkpt>
      <trkpt lat="43.61019" lon="3.69219">
        <ele>137</ele>
        <time>1970-01-01T00:00:00Z</time>
      </trkpt>
      <trkpt lat="43.61013" lon="3.69195">
        <ele>136</ele>
        <time>1970-01-01T00:00:00Z</time>
      </trkpt>
      <trkpt lat="43.60998" lon="3.69189">
        <ele>135.6</ele>
        <time>1970-01-01T00:00:00Z</time>
      </trkpt>
      <trkpt lat="43.60984" lon="3.6919">
        <ele>138.6</ele>
        <time>1970-01-01T00:00:00Z</time>
      </trkpt>
      <trkpt lat="43.60984" lon="3.69169">
        <ele>138</ele>
        <time>1970-01-01T00:00:00Z</time>
      </trkpt>
      <trkpt lat="43.60974" lon="3.69159">
        <ele>140.2</ele>
        <time>1970-01-01T00:00:00Z</time>
      </trkpt>
      <trkpt lat="43.6097" lon="3.69167">
        <ele>141.3</ele>
        <time>1970-01-01T00:00:00Z</time>
      </trkpt>
      <trkpt lat="43.60967" lon="3.69162">
        <ele>142</ele>
        <time>1970-01-01T00:00:00Z</time>
      </trkpt>
      <trkpt lat="43.60966" lon="3.69139">
        <ele>142.5</ele>
        <time>1970-01-01T00:00:00Z</time>
      </trkpt>
      <trkpt lat="43.60963" lon="3.69129">
        <ele>143.3</ele>
        <time>1970-01-01T00:00:00Z</time>
      </trkpt>
      <trkpt lat="43.60964" lon="3.69097">
        <ele>143.2</ele>
        <time>1970-01-01T00:00:00Z</time>
      </trkpt>
      <trkpt lat="43.60957" lon="3.69081">
        <ele>144.5</ele>
        <time>1970-01-01T00:00:00Z</time>
      </trkpt>
      <trkpt lat="43.60949" lon="3.6907">
        <ele>144.9</ele>
        <time>1970-01-01T00:00:00Z</time>
      </trkpt>
      <trkpt lat="43.60938" lon="3.69068">
        <ele>146.7</ele>
        <time>1970-01-01T00:00:00Z</time>
      </trkpt>
      <trkpt lat="43.60925" lon="3.69041">
        <ele>145.5</ele>
        <time>1970-01-01T00:00:00Z</time>
      </trkpt>
      <trkpt lat="43.60917" lon="3.69032">
        <ele>145.6</ele>
        <time>1970-01-01T00:00:00Z</time>
      </trkpt>
      <trkpt lat="43.60895" lon="3.69068">
        <ele>154.7</ele>
        <time>1970-01-01T00:00:00Z</time>
      </trkpt>
      <trkpt lat="43.60887" lon="3.69101">
        <ele>159.2</ele>
        <time>1970-01-01T00:00:00Z</time>
      </trkpt>
      <trkpt lat="43.60876" lon="3.69094">
        <ele>161.1</ele>
        <time>1970-01-01T00:00:00Z</time>
      </trkpt>
      <trkpt lat="43.60859" lon="3.69066">
        <ele>161</ele>
        <time>1970-01-01T00:00:00Z</time>
      </trkpt>
      <trkpt lat="43.60845" lon="3.69036">
        <ele>159</ele>
        <time>1970-01-01T00:00:00Z</time>
      </trkpt>
      <trkpt lat="43.60826" lon="3.69036">
        <ele>161.8</ele>
        <time>1970-01-01T00:00:00Z</time>
      </trkpt>
      <trkpt lat="43.60816" lon="3.69008">
        <ele>158.2</ele>
        <time>1970-01-01T00:00:00Z</time>
      </trkpt>
      <trkpt lat="43.60802" lon="3.68986">
        <ele>155.4</ele>
        <time>1970-01-01T00:00:00Z</time>
      </trkpt>
      <trkpt lat="43.60788" lon="3.68956">
        <ele>151.2</ele>
        <time>1970-01-01T00:00:00Z</time>
      </trkpt>
      <trkpt lat="43.60775" lon="3.68942">
        <ele>150</ele>
        <time>1970-01-01T00:00:00Z</time>
      </trkpt>
      <trkpt lat="43.60759" lon="3.68954">
        <ele>153.6</ele>
        <time>1970-01-01T00:00:00Z</time>
      </trkpt>
      <trkpt lat="43.60749" lon="3.6897">
        <ele>156.8</ele>
        <time>1970-01-01T00:00:00Z</time>
      </trkpt>
      <trkpt lat="43.60727" lon="3.6897">
        <ele>160.6</ele>
        <time>1970-01-01T00:00:00Z</time>
      </trkpt>
      <trkpt lat="43.60718" lon="3.68966">
        <ele>161.4</ele>
        <time>1970-01-01T00:00:00Z</time>
      </trkpt>
      <trkpt lat="43.60706" lon="3.68958">
        <ele>162</ele>
        <time>1970-01-01T00:00:00Z</time>
      </trkpt>
      <trkpt lat="43.60693" lon="3.68958">
        <ele>164.3</ele>
        <time>1970-01-01T00:00:00Z</time>
      </trkpt>
      <trkpt lat="43.60679" lon="3.68948">
        <ele>164.8</ele>
        <time>1970-01-01T00:00:00Z</time>
      </trkpt>
      <trkpt lat="43.60673" lon="3.68939">
        <ele>164.5</ele>
        <time>1970-01-01T00:00:00Z</time>
      </trkpt>
      <trkpt lat="43.6066" lon="3.68933">
        <ele>163.4</ele>
        <time>1970-01-01T00:00:00Z</time>
      </trkpt>
      <trkpt lat="43.60652" lon="3.68938">
        <ele>162.8</ele>
        <time>1970-01-01T00:00:00Z</time>
      </trkpt>
      <trkpt lat="43.60635" lon="3.68922">
        <ele>157.8</ele>
        <time>1970-01-01T00:00:00Z</time>
      </trkpt>
      <trkpt lat="43.60622" lon="3.68907">
        <ele>153.4</ele>
        <time>1970-01-01T00:00:00Z</time>
      </trkpt>
      <trkpt lat="43.60611" lon="3.68883">
        <ele>148.9</ele>
        <time>1970-01-01T00:00:00Z</time>
      </trkpt>
      <trkpt lat="43.60591" lon="3.68867">
        <ele>145.4</ele>
        <time>1970-01-01T00:00:00Z</time>
      </trkpt>
      <trkpt lat="43.60588" lon="3.68852">
        <ele>143.7</ele>
        <time>1970-01-01T00:00:00Z</time>
      </trkpt>
      <trkpt lat="43.60576" lon="3.6882">
        <ele>138.2</ele>
        <time>1970-01-01T00:00:00Z</time>
      </trkpt>
      <trkpt lat="43.60557" lon="3.68775">
        <ele>128.3</ele>
        <time>1970-01-01T00:00:00Z</time>
      </trkpt>
      <trkpt lat="43.60549" lon="3.6876">
        <ele>125.2</ele>
        <time>1970-01-01T00:00:00Z</time>
      </trkpt>
      <trkpt lat="43.60532" lon="3.6874">
        <ele>120.3</ele>
        <time>1970-01-01T00:00:00Z</time>
      </trkpt>
      <trkpt lat="43.60532" lon="3.68712">
        <ele>115.6</ele>
        <time>1970-01-01T00:00:00Z</time>
      </trkpt>
      <trkpt lat="43.60531" lon="3.68692">
        <ele>112.3</ele>
        <time>1970-01-01T00:00:00Z</time>
      </trkpt>
      <trkpt lat="43.60533" lon="3.68684">
        <ele>111.1</ele>
        <time>1970-01-01T00:00:00Z</time>
      </trkpt>
      <trkpt lat="43.60528" lon="3.68678">
        <ele>109.9</ele>
        <time>1970-01-01T00:00:00Z</time>
      </trkpt>
      <trkpt lat="43.60527" lon="3.68667">
        <ele>108</ele>
        <time>1970-01-01T00:00:00Z</time>
      </trkpt>
      <trkpt lat="43.60517" lon="3.68669">
        <ele>107.6</ele>
        <time>1970-01-01T00:00:00Z</time>
      </trkpt>
      <trkpt lat="43.60513" lon="3.68663">
        <ele>106.9</ele>
        <time>1970-01-01T00:00:00Z</time>
      </trkpt>
      <trkpt lat="43.60511" lon="3.68651">
        <ele>106.6</ele>
        <time>1970-01-01T00:00:00Z</time>
      </trkpt>
      <trkpt lat="43.60501" lon="3.68656">
        <ele>106</ele>
        <time>1970-01-01T00:00:00Z</time>
      </trkpt>
      <trkpt lat="43.60488" lon="3.68664">
        <ele>106.9</ele>
        <time>1970-01-01T00:00:00Z</time>
      </trkpt>
      <trkpt lat="43.6048" lon="3.68664">
        <ele>107.4</ele>
        <time>1970-01-01T00:00:00Z</time>
      </trkpt>
      <trkpt lat="43.60476" lon="3.68655">
        <ele>107.8</ele>
        <time>1970-01-01T00:00:00Z</time>
      </trkpt>
      <trkpt lat="43.60481" lon="3.68624">
        <ele>107.5</ele>
        <time>1970-01-01T00:00:00Z</time>
      </trkpt>
      <trkpt lat="43.60473" lon="3.68619">
        <ele>108.1</ele>
        <time>1970-01-01T00:00:00Z</time>
      </trkpt>
      <trkpt lat="43.60451" lon="3.68614">
        <ele>109.9</ele>
        <time>1970-01-01T00:00:00Z</time>
      </trkpt>
      <trkpt lat="43.60444" lon="3.68618">
        <ele>110.4</ele>
        <time>1970-01-01T00:00:00Z</time>
      </trkpt>
      <trkpt lat="43.60435" lon="3.6866">
        <ele>110.7</ele>
        <time>1970-01-01T00:00:00Z</time>
      </trkpt>
      <trkpt lat="43.60419" lon="3.68698">
        <ele>109.8</ele>
        <time>1970-01-01T00:00:00Z</time>
      </trkpt>
      <trkpt lat="43.60407" lon="3.68738">
        <ele>108.4</ele>
        <time>1970-01-01T00:00:00Z</time>
      </trkpt>
      <trkpt lat="43.60386" lon="3.68807">
        <ele>110.2</ele>
        <time>1970-01-01T00:00:00Z</time>
      </trkpt>
      <trkpt lat="43.60374" lon="3.68847">
        <ele>110.9</ele>
        <time>1970-01-01T00:00:00Z</time>
      </trkpt>
      <trkpt lat="43.60367" lon="3.68885">
        <ele>110.9</ele>
        <time>1970-01-01T00:00:00Z</time>
      </trkpt>
      <trkpt lat="43.60357" lon="3.68914">
        <ele>111</ele>
        <time>1970-01-01T00:00:00Z</time>
      </trkpt>
      <trkpt lat="43.60346" lon="3.68939">
        <ele>110.1</ele>
        <time>1970-01-01T00:00:00Z</time>
      </trkpt>
      <trkpt lat="43.60332" lon="3.68944">
        <ele>110.1</ele>
        <time>1970-01-01T00:00:00Z</time>
      </trkpt>
      <trkpt lat="43.6032" lon="3.68924">
        <ele>110.9</ele>
        <time>1970-01-01T00:00:00Z</time>
      </trkpt>
      <trkpt lat="43.60316" lon="3.68905">
        <ele>111.3</ele>
        <time>1970-01-01T00:00:00Z</time>
      </trkpt>
      <trkpt lat="43.60337" lon="3.6886">
        <ele>113.7</ele>
        <time>1970-01-01T00:00:00Z</time>
      </trkpt>
      <trkpt lat="43.60335" lon="3.6881">
        <ele>116</ele>
        <time>1970-01-01T00:00:00Z</time>
      </trkpt>
      <trkpt lat="43.60371" lon="3.68742">
        <ele>114</ele>
        <time>1970-01-01T00:00:00Z</time>
      </trkpt>
      <trkpt lat="43.6038" lon="3.68718">
        <ele>114.8</ele>
        <time>1970-01-01T00:00:00Z</time>
      </trkpt>
      <trkpt lat="43.60384" lon="3.68643">
        <ele>119.2</ele>
        <time>1970-01-01T00:00:00Z</time>
      </trkpt>
      <trkpt lat="43.60377" lon="3.68618">
        <ele>121.1</ele>
        <time>1970-01-01T00:00:00Z</time>
      </trkpt>
      <trkpt lat="43.60355" lon="3.68581">
        <ele>126.3</ele>
        <time>1970-01-01T00:00:00Z</time>
      </trkpt>
      <trkpt lat="43.60332" lon="3.68535">
        <ele>128.9</ele>
        <time>1970-01-01T00:00:00Z</time>
      </trkpt>
      <trkpt lat="43.60317" lon="3.68499">
        <ele>130.1</ele>
        <time>1970-01-01T00:00:00Z</time>
      </trkpt>
      <trkpt lat="43.60282" lon="3.6848">
        <ele>135.7</ele>
        <time>1970-01-01T00:00:00Z</time>
      </trkpt>
      <trkpt lat="43.60246" lon="3.68466">
        <ele>141.4</ele>
        <time>1970-01-01T00:00:00Z</time>
      </trkpt>
      <trkpt lat="43.60214" lon="3.68448">
        <ele>143.9</ele>
        <time>1970-01-01T00:00:00Z</time>
      </trkpt>
      <trkpt lat="43.60201" lon="3.68436">
        <ele>145</ele>
        <time>1970-01-01T00:00:00Z</time>
      </trkpt>
      <trkpt lat="43.60136" lon="3.68312">
        <ele>152.1</ele>
        <time>1970-01-01T00:00:00Z</time>
      </trkpt>
      <trkpt lat="43.60124" lon="3.68311">
        <ele>154</ele>
        <time>1970-01-01T00:00:00Z</time>
      </trkpt>
      <trkpt lat="43.60117" lon="3.68336">
        <ele>157.4</ele>
        <time>1970-01-01T00:00:00Z</time>
      </trkpt>
      <trkpt lat="43.60101" lon="3.68372">
        <ele>160</ele>
        <time>1970-01-01T00:00:00Z</time>
      </trkpt>
      <trkpt lat="43.60065" lon="3.68406">
        <ele>165.4</ele>
        <time>1970-01-01T00:00:00Z</time>
      </trkpt>
      <trkpt lat="43.60053" lon="3.68421">
        <ele>166.7</ele>
        <time>1970-01-01T00:00:00Z</time>
      </trkpt>
      <trkpt lat="43.60037" lon="3.68431">
        <ele>168.1</ele>
        <time>1970-01-01T00:00:00Z</time>
      </trkpt>
      <trkpt lat="43.60015" lon="3.68447">
        <ele>169.4</ele>
        <time>1970-01-01T00:00:00Z</time>
      </trkpt>
      <trkpt lat="43.60005" lon="3.68444">
        <ele>170.8</ele>
        <time>1970-01-01T00:00:00Z</time>
      </trkpt>
      <trkpt lat="43.60001" lon="3.68411">
        <ele>174</ele>
        <time>1970-01-01T00:00:00Z</time>
      </trkpt>
      <trkpt lat="43.59984" lon="3.68401">
        <ele>175.4</ele>
        <time>1970-01-01T00:00:00Z</time>
      </trkpt>
      <trkpt lat="43.59956" lon="3.68398">
        <ele>177.6</ele>
        <time>1970-01-01T00:00:00Z</time>
      </trkpt>
      <trkpt lat="43.59929" lon="3.68382">
        <ele>180.2</ele>
        <time>1970-01-01T00:00:00Z</time>
      </trkpt>
      <trkpt lat="43.59915" lon="3.68375">
        <ele>181.7</ele>
        <time>1970-01-01T00:00:00Z</time>
      </trkpt>
      <trkpt lat="43.59891" lon="3.68372">
        <ele>184</ele>
        <time>1970-01-01T00:00:00Z</time>
      </trkpt>
      <trkpt lat="43.59881" lon="3.68367">
        <ele>185.2</ele>
        <time>1970-01-01T00:00:00Z</time>
      </trkpt>
      <trkpt lat="43.59879" lon="3.68338">
        <ele>186.1</ele>
        <time>1970-01-01T00:00:00Z</time>
      </trkpt>
      <trkpt lat="43.59863" lon="3.6832">
        <ele>187</ele>
        <time>1970-01-01T00:00:00Z</time>
      </trkpt>
      <trkpt lat="43.59846" lon="3.68319">
        <ele>188.3</ele>
        <time>1970-01-01T00:00:00Z</time>
      </trkpt>
      <trkpt lat="43.59835" lon="3.68306">
        <ele>188.6</ele>
        <time>1970-01-01T00:00:00Z</time>
      </trkpt>
      <trkpt lat="43.59823" lon="3.68297">
        <ele>190.2</ele>
        <time>1970-01-01T00:00:00Z</time>
      </trkpt>
      <trkpt lat="43.59803" lon="3.6823">
        <ele>191</ele>
        <time>1970-01-01T00:00:00Z</time>
      </trkpt>
      <trkpt lat="43.59778" lon="3.68172">
        <ele>193</ele>
        <time>1970-01-01T00:00:00Z</time>
      </trkpt>
      <trkpt lat="43.59759" lon="3.68132">
        <ele>194.4</ele>
        <time>1970-01-01T00:00:00Z</time>
      </trkpt>
      <trkpt lat="43.59749" lon="3.6811">
        <ele>195</ele>
        <time>1970-01-01T00:00:00Z</time>
      </trkpt>
      <trkpt lat="43.59738" lon="3.68056">
        <ele>193.6</ele>
        <time>1970-01-01T00:00:00Z</time>
      </trkpt>
      <trkpt lat="43.59723" lon="3.68029">
        <ele>194.6</ele>
        <time>1970-01-01T00:00:00Z</time>
      </trkpt>
      <trkpt lat="43.5969" lon="3.6801">
        <ele>198.3</ele>
        <time>1970-01-01T00:00:00Z</time>
      </trkpt>
      <trkpt lat="43.59666" lon="3.68">
        <ele>201</ele>
        <time>1970-01-01T00:00:00Z</time>
      </trkpt>
      <trkpt lat="43.59659" lon="3.68003">
        <ele>201</ele>
        <time>1970-01-01T00:00:00Z</time>
      </trkpt>
      <trkpt lat="43.59641" lon="3.68014">
        <ele>200.9</ele>
        <time>1970-01-01T00:00:00Z</time>
      </trkpt>
      <trkpt lat="43.59627" lon="3.68016">
        <ele>200.6</ele>
        <time>1970-01-01T00:00:00Z</time>
      </trkpt>
      <trkpt lat="43.59603" lon="3.68013">
        <ele>200</ele>
        <time>1970-01-01T00:00:00Z</time>
      </trkpt>
      <trkpt lat="43.59594" lon="3.68013">
        <ele>199.8</ele>
        <time>1970-01-01T00:00:00Z</time>
      </trkpt>
      <trkpt lat="43.59571" lon="3.68019">
        <ele>198.1</ele>
        <time>1970-01-01T00:00:00Z</time>
      </trkpt>
      <trkpt lat="43.5956" lon="3.68027">
        <ele>196.8</ele>
        <time>1970-01-01T00:00:00Z</time>
      </trkpt>
      <trkpt lat="43.59516" lon="3.68026">
        <ele>192.3</ele>
        <time>1970-01-01T00:00:00Z</time>
      </trkpt>
      <trkpt lat="43.59496" lon="3.6803">
        <ele>190</ele>
        <time>1970-01-01T00:00:00Z</time>
      </trkpt>
      <trkpt lat="43.59475" lon="3.68031">
        <ele>187.2</ele>
        <time>1970-01-01T00:00:00Z</time>
      </trkpt>
      <trkpt lat="43.59453" lon="3.68032">
        <ele>184.4</ele>
        <time>1970-01-01T00:00:00Z</time>
      </trkpt>
      <trkpt lat="43.59439" lon="3.68034">
        <ele>182.6</ele>
        <time>1970-01-01T00:00:00Z</time>
      </trkpt>
      <trkpt lat="43.59423" lon="3.68038">
        <ele>180.4</ele>
        <time>1970-01-01T00:00:00Z</time>
      </trkpt>
      <trkpt lat="43.59419" lon="3.68064">
        <ele>178.9</ele>
        <time>1970-01-01T00:00:00Z</time>
      </trkpt>
      <trkpt lat="43.59417" lon="3.68081">
        <ele>178.1</ele>
        <time>1970-01-01T00:00:00Z</time>
      </trkpt>
      <trkpt lat="43.59413" lon="3.68102">
        <ele>178.5</ele>
        <time>1970-01-01T00:00:00Z</time>
      </trkpt>
      <trkpt lat="43.59395" lon="3.68095">
        <ele>176.6</ele>
        <time>1970-01-01T00:00:00Z</time>
      </trkpt>
      <trkpt lat="43.59367" lon="3.68084">
        <ele>173.8</ele>
        <time>1970-01-01T00:00:00Z</time>
      </trkpt>
      <trkpt lat="43.59351" lon="3.68093">
        <ele>172.5</ele>
        <time>1970-01-01T00:00:00Z</time>
      </trkpt>
      <trkpt lat="43.59323" lon="3.68118">
        <ele>170</ele>
        <time>1970-01-01T00:00:00Z</time>
      </trkpt>
      <trkpt lat="43.59308" lon="3.68138">
        <ele>168.7</ele>
        <time>1970-01-01T00:00:00Z</time>
      </trkpt>
      <trkpt lat="43.59269" lon="3.68177">
        <ele>165.4</ele>
        <time>1970-01-01T00:00:00Z</time>
      </trkpt>
      <trkpt lat="43.5922" lon="3.68204">
        <ele>163</ele>
        <time>1970-01-01T00:00:00Z</time>
      </trkpt>
      <trkpt lat="43.59173" lon="3.6825">
        <ele>153.5</ele>
        <time>1970-01-01T00:00:00Z</time>
      </trkpt>
      <trkpt lat="43.59141" lon="3.68278">
        <ele>152</ele>
        <time>1970-01-01T00:00:00Z</time>
      </trkpt>
      <trkpt lat="43.59104" lon="3.68314">
        <ele>147.5</ele>
        <time>1970-01-01T00:00:00Z</time>
      </trkpt>
      <trkpt lat="43.59093" lon="3.68317">
        <ele>146</ele>
        <time>1970-01-01T00:00:00Z</time>
      </trkpt>
      <trkpt lat="43.5908" lon="3.68319">
        <ele>144.2</ele>
        <time>1970-01-01T00:00:00Z</time>
      </trkpt>
      <trkpt lat="43.5907" lon="3.68314">
        <ele>144</ele>
        <time>1970-01-01T00:00:00Z</time>
      </trkpt>
      <trkpt lat="43.59058" lon="3.68322">
        <ele>142</ele>
        <time>1970-01-01T00:00:00Z</time>
      </trkpt>
      <trkpt lat="43.59052" lon="3.68336">
        <ele>140</ele>
        <time>1970-01-01T00:00:00Z</time>
      </trkpt>
      <trkpt lat="43.59039" lon="3.68352">
        <ele>139</ele>
        <time>1970-01-01T00:00:00Z</time>
      </trkpt>
      <trkpt lat="43.59022" lon="3.68381">
        <ele>137.3</ele>
        <time>1970-01-01T00:00:00Z</time>
      </trkpt>
      <trkpt lat="43.58995" lon="3.68428">
        <ele>133.8</ele>
        <time>1970-01-01T00:00:00Z</time>
      </trkpt>
      <trkpt lat="43.58982" lon="3.68461">
        <ele>133.7</ele>
        <time>1970-01-01T00:00:00Z</time>
      </trkpt>
      <trkpt lat="43.58991" lon="3.68493">
        <ele>134.6</ele>
        <time>1970-01-01T00:00:00Z</time>
      </trkpt>
      <trkpt lat="43.59015" lon="3.68523">
        <ele>135.5</ele>
        <time>1970-01-01T00:00:00Z</time>
      </trkpt>
      <trkpt lat="43.5903" lon="3.68538">
        <ele>136.1</ele>
        <time>1970-01-01T00:00:00Z</time>
      </trkpt>
      <trkpt lat="43.59012" lon="3.68546">
        <ele>133.9</ele>
        <time>1970-01-01T00:00:00Z</time>
      </trkpt>
      <trkpt lat="43.5899" lon="3.6854">
        <ele>132.6</ele>
        <time>1970-01-01T00:00:00Z</time>
      </trkpt>
      <trkpt lat="43.5894" lon="3.6857">
        <ele>128.3</ele>
        <time>1970-01-01T00:00:00Z</time>
      </trkpt>
      <trkpt lat="43.58876" lon="3.68601">
        <ele>121.3</ele>
        <time>1970-01-01T00:00:00Z</time>
      </trkpt>
      <trkpt lat="43.58824" lon="3.68608">
        <ele>116.1</ele>
        <time>1970-01-01T00:00:00Z</time>
      </trkpt>
      <trkpt lat="43.58804" lon="3.68588">
        <ele>115.7</ele>
        <time>1970-01-01T00:00:00Z</time>
      </trkpt>
      <trkpt lat="43.5879" lon="3.68403">
        <ele>119.4</ele>
        <time>1970-01-01T00:00:00Z</time>
      </trkpt>
      <trkpt lat="43.58761" lon="3.6846">
        <ele>115.8</ele>
        <time>1970-01-01T00:00:00Z</time>
      </trkpt>
      <trkpt lat="43.58742" lon="3.68472">
        <ele>115.5</ele>
        <time>1970-01-01T00:00:00Z</time>
      </trkpt>
      <trkpt lat="43.58677" lon="3.6847">
        <ele>124.7</ele>
        <time>1970-01-01T00:00:00Z</time>
      </trkpt>
      <trkpt lat="43.587" lon="3.68525">
        <ele>120</ele>
        <time>1970-01-01T00:00:00Z</time>
      </trkpt>
      <trkpt lat="43.58702" lon="3.68556">
        <ele>120.3</ele>
        <time>1970-01-01T00:00:00Z</time>
      </trkpt>
      <trkpt lat="43.58669" lon="3.68602">
        <ele>126.8</ele>
        <time>1970-01-01T00:00:00Z</time>
      </trkpt>
      <trkpt lat="43.58657" lon="3.68623">
        <ele>129.6</ele>
        <time>1970-01-01T00:00:00Z</time>
      </trkpt>
      <trkpt lat="43.58683" lon="3.68681">
        <ele>124.9</ele>
        <time>1970-01-01T00:00:00Z</time>
      </trkpt>
      <trkpt lat="43.58661" lon="3.68792">
        <ele>133.5</ele>
        <time>1970-01-01T00:00:00Z</time>
      </trkpt>
      <trkpt lat="43.58631" lon="3.68809">
        <ele>139.2</ele>
        <time>1970-01-01T00:00:00Z</time>
      </trkpt>
      <trkpt lat="43.58626" lon="3.68866">
        <ele>142.3</ele>
        <time>1970-01-01T00:00:00Z</time>
      </trkpt>
      <trkpt lat="43.58657" lon="3.68887">
        <ele>139.4</ele>
        <time>1970-01-01T00:00:00Z</time>
      </trkpt>
      <trkpt lat="43.58666" lon="3.68913">
        <ele>140.7</ele>
        <time>1970-01-01T00:00:00Z</time>
      </trkpt>
      <trkpt lat="43.5863" lon="3.68974">
        <ele>143.9</ele>
        <time>1970-01-01T00:00:00Z</time>
      </trkpt>
      <trkpt lat="43.58606" lon="3.68992">
        <ele>146.3</ele>
        <time>1970-01-01T00:00:00Z</time>
      </trkpt>
      <trkpt lat="43.58562" lon="3.69024">
        <ele>147.8</ele>
        <time>1970-01-01T00:00:00Z</time>
      </trkpt>
      <trkpt lat="43.58514" lon="3.69078">
        <ele>146.8</ele>
        <time>1970-01-01T00:00:00Z</time>
      </trkpt>
      <trkpt lat="43.58491" lon="3.69114">
        <ele>146</ele>
        <time>1970-01-01T00:00:00Z</time>
      </trkpt>
      <trkpt lat="43.58462" lon="3.69212">
        <ele>141.9</ele>
        <time>1970-01-01T00:00:00Z</time>
      </trkpt>
      <trkpt lat="43.58454" lon="3.6925">
        <ele>139.9</ele>
        <time>1970-01-01T00:00:00Z</time>
      </trkpt>
      <trkpt lat="43.58432" lon="3.69277">
        <ele>137.8</ele>
        <time>1970-01-01T00:00:00Z</time>
      </trkpt>
      <trkpt lat="43.58415" lon="3.69301">
        <ele>136</ele>
        <time>1970-01-01T00:00:00Z</time>
      </trkpt>
      <trkpt lat="43.58392" lon="3.69324">
        <ele>135.2</ele>
        <time>1970-01-01T00:00:00Z</time>
      </trkpt>
      <trkpt lat="43.58379" lon="3.69302">
        <ele>137</ele>
        <time>1970-01-01T00:00:00Z</time>
      </trkpt>
      <trkpt lat="43.5837" lon="3.69278">
        <ele>138.8</ele>
        <time>1970-01-01T00:00:00Z</time>
      </trkpt>
      <trkpt lat="43.58365" lon="3.69266">
        <ele>139.8</ele>
        <time>1970-01-01T00:00:00Z</time>
      </trkpt>
      <trkpt lat="43.58353" lon="3.6925">
        <ele>141.3</ele>
        <time>1970-01-01T00:00:00Z</time>
      </trkpt>
      <trkpt lat="43.58347" lon="3.69236">
        <ele>142.2</ele>
        <time>1970-01-01T00:00:00Z</time>
      </trkpt>
      <trkpt lat="43.58328" lon="3.69193">
        <ele>144.9</ele>
        <time>1970-01-01T00:00:00Z</time>
      </trkpt>
      <trkpt lat="43.58324" lon="3.69183">
        <ele>145.6</ele>
        <time>1970-01-01T00:00:00Z</time>
      </trkpt>
      <trkpt lat="43.58316" lon="3.69175">
        <ele>146.3</ele>
        <time>1970-01-01T00:00:00Z</time>
      </trkpt>
      <trkpt lat="43.58315" lon="3.6914">
        <ele>147.7</ele>
        <time>1970-01-01T00:00:00Z</time>
      </trkpt>
      <trkpt lat="43.58297" lon="3.69079">
        <ele>150</ele>
        <time>1970-01-01T00:00:00Z</time>
      </trkpt>
      <trkpt lat="43.58274" lon="3.69047">
        <ele>149</ele>
        <time>1970-01-01T00:00:00Z</time>
      </trkpt>
      <trkpt lat="43.58261" lon="3.69034">
        <ele>148.1</ele>
        <time>1970-01-01T00:00:00Z</time>
      </trkpt>
      <trkpt lat="43.58256" lon="3.69023">
        <ele>147.4</ele>
        <time>1970-01-01T00:00:00Z</time>
      </trkpt>
      <trkpt lat="43.58258" lon="3.68999">
        <ele>146.6</ele>
        <time>1970-01-01T00:00:00Z</time>
      </trkpt>
      <trkpt lat="43.5825" lon="3.68983">
        <ele>145.8</ele>
        <time>1970-01-01T00:00:00Z</time>
      </trkpt>
      <trkpt lat="43.5824" lon="3.68962">
        <ele>144.9</ele>
        <time>1970-01-01T00:00:00Z</time>
      </trkpt>
      <trkpt lat="43.58225" lon="3.6894">
        <ele>143.5</ele>
        <time>1970-01-01T00:00:00Z</time>
      </trkpt>
      <trkpt lat="43.58216" lon="3.68917">
        <ele>142.5</ele>
        <time>1970-01-01T00:00:00Z</time>
      </trkpt>
      <trkpt lat="43.58214" lon="3.6891">
        <ele>142.8</ele>
        <time>1970-01-01T00:00:00Z</time>
      </trkpt>
      <trkpt lat="43.582" lon="3.68893">
        <ele>142.7</ele>
        <time>1970-01-01T00:00:00Z</time>
      </trkpt>
      <trkpt lat="43.58168" lon="3.68884">
        <ele>141</ele>
        <time>1970-01-01T00:00:00Z</time>
      </trkpt>
      <trkpt lat="43.58156" lon="3.6888">
        <ele>140.9</ele>
        <time>1970-01-01T00:00:00Z</time>
      </trkpt>
      <trkpt lat="43.58147" lon="3.68869">
        <ele>141.3</ele>
        <time>1970-01-01T00:00:00Z</time>
      </trkpt>
      <trkpt lat="43.5813" lon="3.68862">
        <ele>141.2</ele>
        <time>1970-01-01T00:00:00Z</time>
      </trkpt>
      <trkpt lat="43.58115" lon="3.68849">
        <ele>141.7</ele>
        <time>1970-01-01T00:00:00Z</time>
      </trkpt>
      <trkpt lat="43.58104" lon="3.68834">
        <ele>142.4</ele>
        <time>1970-01-01T00:00:00Z</time>
      </trkpt>
      <trkpt lat="43.58096" lon="3.6882">
        <ele>143</ele>
        <time>1970-01-01T00:00:00Z</time>
      </trkpt>
      <trkpt lat="43.58084" lon="3.68806">
        <ele>143.3</ele>
        <time>1970-01-01T00:00:00Z</time>
      </trkpt>
      <trkpt lat="43.58068" lon="3.68765">
        <ele>144.9</ele>
        <time>1970-01-01T00:00:00Z</time>
      </trkpt>
      <trkpt lat="43.58056" lon="3.6876">
        <ele>144.9</ele>
        <time>1970-01-01T00:00:00Z</time>
      </trkpt>
      <trkpt lat="43.58038" lon="3.68769">
        <ele>144</ele>
        <time>1970-01-01T00:00:00Z</time>
      </trkpt>
      <trkpt lat="43.58023" lon="3.68783">
        <ele>143</ele>
        <time>1970-01-01T00:00:00Z</time>
      </trkpt>
      <trkpt lat="43.58013" lon="3.68788">
        <ele>142.5</ele>
        <time>1970-01-01T00:00:00Z</time>
      </trkpt>
      <trkpt lat="43.57999" lon="3.6879">
        <ele>142</ele>
        <time>1970-01-01T00:00:00Z</time>
      </trkpt>
      <trkpt lat="43.57987" lon="3.68796">
        <ele>141</ele>
        <time>1970-01-01T00:00:00Z</time>
      </trkpt>
      <trkpt lat="43.57977" lon="3.68813">
        <ele>139.7</ele>
        <time>1970-01-01T00:00:00Z</time>
      </trkpt>
      <trkpt lat="43.57962" lon="3.68831">
        <ele>138.2</ele>
        <time>1970-01-01T00:00:00Z</time>
      </trkpt>
      <trkpt lat="43.57947" lon="3.68844">
        <ele>136.8</ele>
        <time>1970-01-01T00:00:00Z</time>
      </trkpt>
      <trkpt lat="43.57926" lon="3.68836">
        <ele>136.3</ele>
        <time>1970-01-01T00:00:00Z</time>
      </trkpt>
      <trkpt lat="43.57908" lon="3.68825">
        <ele>135.8</ele>
        <time>1970-01-01T00:00:00Z</time>
      </trkpt>
      <trkpt lat="43.57896" lon="3.68826">
        <ele>135.2</ele>
        <time>1970-01-01T00:00:00Z</time>
      </trkpt>
      <trkpt lat="43.57872" lon="3.68826">
        <ele>134.1</ele>
        <time>1970-01-01T00:00:00Z</time>
      </trkpt>
      <trkpt lat="43.57859" lon="3.68824">
        <ele>133.6</ele>
        <time>1970-01-01T00:00:00Z</time>
      </trkpt>
      <trkpt lat="43.57842" lon="3.68817">
        <ele>133.2</ele>
        <time>1970-01-01T00:00:00Z</time>
      </trkpt>
      <trkpt lat="43.57836" lon="3.6881">
        <ele>133.2</ele>
        <time>1970-01-01T00:00:00Z</time>
      </trkpt>
      <trkpt lat="43.57825" lon="3.68786">
        <ele>134.2</ele>
        <time>1970-01-01T00:00:00Z</time>
      </trkpt>
      <trkpt lat="43.57819" lon="3.68771">
        <ele>134.9</ele>
        <time>1970-01-01T00:00:00Z</time>
      </trkpt>
      <trkpt lat="43.57822" lon="3.68763">
        <ele>135.3</ele>
        <time>1970-01-01T00:00:00Z</time>
      </trkpt>
      <trkpt lat="43.57797" lon="3.68723">
        <ele>137.4</ele>
        <time>1970-01-01T00:00:00Z</time>
      </trkpt>
      <trkpt lat="43.57781" lon="3.68675">
        <ele>140</ele>
        <time>1970-01-01T00:00:00Z</time>
      </trkpt>
      <trkpt lat="43.57783" lon="3.68651">
        <ele>141.3</ele>
        <time>1970-01-01T00:00:00Z</time>
      </trkpt>
      <trkpt lat="43.57767" lon="3.68602">
        <ele>142.5</ele>
        <time>1970-01-01T00:00:00Z</time>
      </trkpt>
      <trkpt lat="43.57762" lon="3.68592">
        <ele>142.5</ele>
        <time>1970-01-01T00:00:00Z</time>
      </trkpt>
      <trkpt lat="43.57756" lon="3.68583">
        <ele>142.4</ele>
        <time>1970-01-01T00:00:00Z</time>
      </trkpt>
      <trkpt lat="43.57752" lon="3.68564">
        <ele>141.9</ele>
        <time>1970-01-01T00:00:00Z</time>
      </trkpt>
      <trkpt lat="43.57744" lon="3.68547">
        <ele>141</ele>
        <time>1970-01-01T00:00:00Z</time>
      </trkpt>
      <trkpt lat="43.57722" lon="3.68526">
        <ele>138.8</ele>
        <time>1970-01-01T00:00:00Z</time>
      </trkpt>
      <trkpt lat="43.57719" lon="3.68513">
        <ele>138.7</ele>
        <time>1970-01-01T00:00:00Z</time>
      </trkpt>
      <trkpt lat="43.57697" lon="3.68483">
        <ele>137.8</ele>
        <time>1970-01-01T00:00:00Z</time>
      </trkpt>
      <trkpt lat="43.57688" lon="3.68473">
        <ele>137.5</ele>
        <time>1970-01-01T00:00:00Z</time>
      </trkpt>
      <trkpt lat="43.57681" lon="3.68466">
        <ele>137.3</ele>
        <time>1970-01-01T00:00:00Z</time>
      </trkpt>
      <trkpt lat="43.57668" lon="3.68441">
        <ele>137.2</ele>
        <time>1970-01-01T00:00:00Z</time>
      </trkpt>
      <trkpt lat="43.57671" lon="3.68422">
        <ele>138.1</ele>
        <time>1970-01-01T00:00:00Z</time>
      </trkpt>
      <trkpt lat="43.57681" lon="3.68369">
        <ele>139.5</ele>
        <time>1970-01-01T00:00:00Z</time>
      </trkpt>
      <trkpt lat="43.57687" lon="3.68363">
        <ele>139.9</ele>
        <time>1970-01-01T00:00:00Z</time>
      </trkpt>
      <trkpt lat="43.57697" lon="3.68333">
        <ele>140.9</ele>
        <time>1970-01-01T00:00:00Z</time>
      </trkpt>
      <trkpt lat="43.57693" lon="3.68319">
        <ele>141.9</ele>
        <time>1970-01-01T00:00:00Z</time>
      </trkpt>
      <trkpt lat="43.57686" lon="3.68323">
        <ele>141.1</ele>
        <time>1970-01-01T00:00:00Z</time>
      </trkpt>
      <trkpt lat="43.57676" lon="3.68331">
        <ele>139.8</ele>
        <time>1970-01-01T00:00:00Z</time>
      </trkpt>
      <trkpt lat="43.57667" lon="3.68336">
        <ele>139</ele>
        <time>1970-01-01T00:00:00Z</time>
      </trkpt>
      <trkpt lat="43.57641" lon="3.68353">
        <ele>139</ele>
        <time>1970-01-01T00:00:00Z</time>
      </trkpt>
      <trkpt lat="43.57624" lon="3.68363">
        <ele>139</ele>
        <time>1970-01-01T00:00:00Z</time>
      </trkpt>
      <trkpt lat="43.57599" lon="3.6836">
        <ele>139.2</ele>
        <time>1970-01-01T00:00:00Z</time>
      </trkpt>
      <trkpt lat="43.57586" lon="3.68348">
        <ele>139.6</ele>
        <time>1970-01-01T00:00:00Z</time>
      </trkpt>
      <trkpt lat="43.5755" lon="3.68333">
        <ele>139.6</ele>
        <time>1970-01-01T00:00:00Z</time>
      </trkpt>
      <trkpt lat="43.57545" lon="3.68334">
        <ele>139.5</ele>
        <time>1970-01-01T00:00:00Z</time>
      </trkpt>
      <trkpt lat="43.57535" lon="3.68332">
        <ele>139.5</ele>
        <time>1970-01-01T00:00:00Z</time>
      </trkpt>
      <trkpt lat="43.57525" lon="3.68319">
        <ele>140.1</ele>
        <time>1970-01-01T00:00:00Z</time>
      </trkpt>
      <trkpt lat="43.57453" lon="3.6829">
        <ele>140.5</ele>
        <time>1970-01-01T00:00:00Z</time>
      </trkpt>
      <trkpt lat="43.57449" lon="3.68277">
        <ele>140.9</ele>
        <time>1970-01-01T00:00:00Z</time>
      </trkpt>
      <trkpt lat="43.57436" lon="3.68262">
        <ele>141.1</ele>
        <time>1970-01-01T00:00:00Z</time>
      </trkpt>
      <trkpt lat="43.57399" lon="3.68197">
        <ele>141.3</ele>
        <time>1970-01-01T00:00:00Z</time>
      </trkpt>
      <trkpt lat="43.57391" lon="3.68196">
        <ele>140.9</ele>
        <time>1970-01-01T00:00:00Z</time>
      </trkpt>
      <trkpt lat="43.5737" lon="3.68174">
        <ele>140.1</ele>
        <time>1970-01-01T00:00:00Z</time>
      </trkpt>
      <trkpt lat="43.57366" lon="3.68164">
        <ele>140</ele>
        <time>1970-01-01T00:00:00Z</time>
      </trkpt>
      <trkpt lat="43.57358" lon="3.68161">
        <ele>139.6</ele>
        <time>1970-01-01T00:00:00Z</time>
      </trkpt>
      <trkpt lat="43.57347" lon="3.68136">
        <ele>139.3</ele>
        <time>1970-01-01T00:00:00Z</time>
      </trkpt>
      <trkpt lat="43.57338" lon="3.68137">
        <ele>138.7</ele>
        <time>1970-01-01T00:00:00Z</time>
      </trkpt>
      <trkpt lat="43.57287" lon="3.68103">
        <ele>138.9</ele>
        <time>1970-01-01T00:00:00Z</time>
      </trkpt>
      <trkpt lat="43.57268" lon="3.68061">
        <ele>140.4</ele>
        <time>1970-01-01T00:00:00Z</time>
      </trkpt>
      <trkpt lat="43.57242" lon="3.68057">
        <ele>140.5</ele>
        <time>1970-01-01T00:00:00Z</time>
      </trkpt>
      <trkpt lat="43.57206" lon="3.67988">
        <ele>141.9</ele>
        <time>1970-01-01T00:00:00Z</time>
      </trkpt>
      <trkpt lat="43.57166" lon="3.67964">
        <ele>142.7</ele>
        <time>1970-01-01T00:00:00Z</time>
      </trkpt>
      <trkpt lat="43.57159" lon="3.67945">
        <ele>143.4</ele>
        <time>1970-01-01T00:00:00Z</time>
      </trkpt>
      <trkpt lat="43.57117" lon="3.67944">
        <ele>141.9</ele>
        <time>1970-01-01T00:00:00Z</time>
      </trkpt>
      <trkpt lat="43.57128" lon="3.67925">
        <ele>142.9</ele>
        <time>1970-01-01T00:00:00Z</time>
      </trkpt>
      <trkpt lat="43.57145" lon="3.67919">
        <ele>143.9</ele>
        <time>1970-01-01T00:00:00Z</time>
      </trkpt>
      <trkpt lat="43.57153" lon="3.67902">
        <ele>144.2</ele>
        <time>1970-01-01T00:00:00Z</time>
      </trkpt>
      <trkpt lat="43.57164" lon="3.67868">
        <ele>144.3</ele>
        <time>1970-01-01T00:00:00Z</time>
      </trkpt>
      <trkpt lat="43.57246" lon="3.67828">
        <ele>146.1</ele>
        <time>1970-01-01T00:00:00Z</time>
      </trkpt>
      <trkpt lat="43.57305" lon="3.67791">
        <ele>149.5</ele>
        <time>1970-01-01T00:00:00Z</time>
      </trkpt>
      <trkpt lat="43.57317" lon="3.67774">
        <ele>150.2</ele>
        <time>1970-01-01T00:00:00Z</time>
      </trkpt>
      <trkpt lat="43.57335" lon="3.67758">
        <ele>151.1</ele>
        <time>1970-01-01T00:00:00Z</time>
      </trkpt>
      <trkpt lat="43.574" lon="3.67648">
        <ele>157.7</ele>
        <time>1970-01-01T00:00:00Z</time>
      </trkpt>
      <trkpt lat="43.57415" lon="3.67627">
        <ele>158.9</ele>
        <time>1970-01-01T00:00:00Z</time>
      </trkpt>
      <trkpt lat="43.5747" lon="3.67632">
        <ele>164.6</ele>
        <time>1970-01-01T00:00:00Z</time>
      </trkpt>
      <trkpt lat="43.57542" lon="3.67641">
        <ele>174.7</ele>
        <time>1970-01-01T00:00:00Z</time>
      </trkpt>
      <trkpt lat="43.57589" lon="3.67653">
        <ele>182.3</ele>
        <time>1970-01-01T00:00:00Z</time>
      </trkpt>
      <trkpt lat="43.5761" lon="3.67663">
        <ele>183.8</ele>
        <time>1970-01-01T00:00:00Z</time>
      </trkpt>
      <trkpt lat="43.57641" lon="3.677">
        <ele>186.8</ele>
        <time>1970-01-01T00:00:00Z</time>
      </trkpt>
      <trkpt lat="43.57676" lon="3.6767">
        <ele>188.8</ele>
        <time>1970-01-01T00:00:00Z</time>
      </trkpt>
      <trkpt lat="43.57686" lon="3.67653">
        <ele>190.4</ele>
        <time>1970-01-01T00:00:00Z</time>
      </trkpt>
      <trkpt lat="43.57692" lon="3.67629">
        <ele>193.2</ele>
        <time>1970-01-01T00:00:00Z</time>
      </trkpt>
      <trkpt lat="43.57704" lon="3.67612">
        <ele>195.1</ele>
        <time>1970-01-01T00:00:00Z</time>
      </trkpt>
      <trkpt lat="43.57686" lon="3.67576">
        <ele>199.5</ele>
        <time>1970-01-01T00:00:00Z</time>
      </trkpt>
      <trkpt lat="43.57704" lon="3.67544">
        <ele>201.7</ele>
        <time>1970-01-01T00:00:00Z</time>
      </trkpt>
      <trkpt lat="43.57704" lon="3.67534">
        <ele>202.5</ele>
        <time>1970-01-01T00:00:00Z</time>
      </trkpt>
      <trkpt lat="43.57689" lon="3.67503">
        <ele>205.6</ele>
        <time>1970-01-01T00:00:00Z</time>
      </trkpt>
      <trkpt lat="43.57672" lon="3.6746">
        <ele>211</ele>
        <time>1970-01-01T00:00:00Z</time>
      </trkpt>
      <trkpt lat="43.57676" lon="3.67425">
        <ele>214.2</ele>
        <time>1970-01-01T00:00:00Z</time>
      </trkpt>
      <trkpt lat="43.57664" lon="3.67386">
        <ele>218.3</ele>
        <time>1970-01-01T00:00:00Z</time>
      </trkpt>
      <trkpt lat="43.5767" lon="3.67331">
        <ele>222.5</ele>
        <time>1970-01-01T00:00:00Z</time>
      </trkpt>
      <trkpt lat="43.57683" lon="3.67303">
        <ele>220.9</ele>
        <time>1970-01-01T00:00:00Z</time>
      </trkpt>
      <trkpt lat="43.57705" lon="3.67267">
        <ele>219</ele>
        <time>1970-01-01T00:00:00Z</time>
      </trkpt>
      <trkpt lat="43.57713" lon="3.67234">
        <ele>218.8</ele>
        <time>1970-01-01T00:00:00Z</time>
      </trkpt>
      <trkpt lat="43.57716" lon="3.67196">
        <ele>219</ele>
        <time>1970-01-01T00:00:00Z</time>
      </trkpt>
      <trkpt lat="43.57762" lon="3.67131">
        <ele>224.7</ele>
        <time>1970-01-01T00:00:00Z</time>
      </trkpt>
      <trkpt lat="43.57755" lon="3.67108">
        <ele>228.4</ele>
        <time>1970-01-01T00:00:00Z</time>
      </trkpt>
      <trkpt lat="43.57745" lon="3.67066">
        <ele>234.3</ele>
        <time>1970-01-01T00:00:00Z</time>
      </trkpt>
      <trkpt lat="43.57739" lon="3.67022">
        <ele>241.2</ele>
        <time>1970-01-01T00:00:00Z</time>
      </trkpt>
      <trkpt lat="43.57725" lon="3.67003">
        <ele>242.1</ele>
        <time>1970-01-01T00:00:00Z</time>
      </trkpt>
      <trkpt lat="43.57807" lon="3.6701">
        <ele>245</ele>
        <time>1970-01-01T00:00:00Z</time>
      </trkpt>
      <trkpt lat="43.57841" lon="3.66969">
        <ele>250.1</ele>
        <time>1970-01-01T00:00:00Z</time>
      </trkpt>
      <trkpt lat="43.57845" lon="3.66888">
        <ele>257.8</ele>
        <time>1970-01-01T00:00:00Z</time>
      </trkpt>
      <trkpt lat="43.57821" lon="3.66886">
        <ele>261.4</ele>
        <time>1970-01-01T00:00:00Z</time>
      </trkpt>
      <trkpt lat="43.57808" lon="3.66898">
        <ele>261</ele>
        <time>1970-01-01T00:00:00Z</time>
      </trkpt>
      <trkpt lat="43.57791" lon="3.66893">
        <ele>262.1</ele>
        <time>1970-01-01T00:00:00Z</time>
      </trkpt>
      <trkpt lat="43.57778" lon="3.66827">
        <ele>269.1</ele>
        <time>1970-01-01T00:00:00Z</time>
      </trkpt>
      <trkpt lat="43.57773" lon="3.66781">
        <ele>272.8</ele>
        <time>1970-01-01T00:00:00Z</time>
      </trkpt>
      <trkpt lat="43.57738" lon="3.66755">
        <ele>279</ele>
        <time>1970-01-01T00:00:00Z</time>
      </trkpt>
      <trkpt lat="43.57726" lon="3.66712">
        <ele>284</ele>
        <time>1970-01-01T00:00:00Z</time>
      </trkpt>
      <trkpt lat="43.57699" lon="3.66715">
        <ele>285.7</ele>
        <time>1970-01-01T00:00:00Z</time>
      </trkpt>
      <trkpt lat="43.57672" lon="3.66676">
        <ele>293.1</ele>
        <time>1970-01-01T00:00:00Z</time>
      </trkpt>
      <trkpt lat="43.57643" lon="3.66615">
        <ele>297.8</ele>
        <time>1970-01-01T00:00:00Z</time>
      </trkpt>
      <trkpt lat="43.5762" lon="3.66562">
        <ele>301.5</ele>
        <time>1970-01-01T00:00:00Z</time>
      </trkpt>
      <trkpt lat="43.57594" lon="3.66551">
        <ele>304.9</ele>
        <time>1970-01-01T00:00:00Z</time>
      </trkpt>
      <trkpt lat="43.57573" lon="3.66537">
        <ele>307.1</ele>
        <time>1970-01-01T00:00:00Z</time>
      </trkpt>
      <trkpt lat="43.57546" lon="3.66472">
        <ele>309.8</ele>
        <time>1970-01-01T00:00:00Z</time>
      </trkpt>
      <trkpt lat="43.57501" lon="3.66412">
        <ele>313.6</ele>
        <time>1970-01-01T00:00:00Z</time>
      </trkpt>
      <trkpt lat="43.57483" lon="3.6638">
        <ele>310.6</ele>
        <time>1970-01-01T00:00:00Z</time>
      </trkpt>
      <trkpt lat="43.57451" lon="3.66352">
        <ele>306</ele>
        <time>1970-01-01T00:00:00Z</time>
      </trkpt>
      <trkpt lat="43.5744" lon="3.66274">
        <ele>301.2</ele>
        <time>1970-01-01T00:00:00Z</time>
      </trkpt>
      <trkpt lat="43.57429" lon="3.66226">
        <ele>301.5</ele>
        <time>1970-01-01T00:00:00Z</time>
      </trkpt>
      <trkpt lat="43.57428" lon="3.6623">
        <ele>301.4</ele>
        <time>1970-01-01T00:00:00Z</time>
      </trkpt>
      <trkpt lat="43.57426" lon="3.66274">
        <ele>301.1</ele>
        <time>1970-01-01T00:00:00Z</time>
      </trkpt>
      <trkpt lat="43.57409" lon="3.66304">
        <ele>300.9</ele>
        <time>1970-01-01T00:00:00Z</time>
      </trkpt>
      <trkpt lat="43.57396" lon="3.66327">
        <ele>301.1</ele>
        <time>1970-01-01T00:00:00Z</time>
      </trkpt>
      <trkpt lat="43.57383" lon="3.66338">
        <ele>302</ele>
        <time>1970-01-01T00:00:00Z</time>
      </trkpt>
      <trkpt lat="43.57352" lon="3.66336">
        <ele>302</ele>
        <time>1970-01-01T00:00:00Z</time>
      </trkpt>
      <trkpt lat="43.57293" lon="3.66291">
        <ele>299.2</ele>
        <time>1970-01-01T00:00:00Z</time>
      </trkpt>
      <trkpt lat="43.57248" lon="3.66257">
        <ele>294.6</ele>
        <time>1970-01-01T00:00:00Z</time>
      </trkpt>
      <trkpt lat="43.57216" lon="3.66241">
        <ele>289</ele>
        <time>1970-01-01T00:00:00Z</time>
      </trkpt>
      <trkpt lat="43.57193" lon="3.66249">
        <ele>286.3</ele>
        <time>1970-01-01T00:00:00Z</time>
      </trkpt>
      <trkpt lat="43.57156" lon="3.66296">
        <ele>281.2</ele>
        <time>1970-01-01T00:00:00Z</time>
      </trkpt>
      <trkpt lat="43.57146" lon="3.66333">
        <ele>279.3</ele>
        <time>1970-01-01T00:00:00Z</time>
      </trkpt>
      <trkpt lat="43.57183" lon="3.66444">
        <ele>278.5</ele>
        <time>1970-01-01T00:00:00Z</time>
      </trkpt>
      <trkpt lat="43.57214" lon="3.66551">
        <ele>268.1</ele>
        <time>1970-01-01T00:00:00Z</time>
      </trkpt>
      <trkpt lat="43.57243" lon="3.66666">
        <ele>256.5</ele>
        <time>1970-01-01T00:00:00Z</time>
      </trkpt>
      <trkpt lat="43.57248" lon="3.66719">
        <ele>252.6</ele>
        <time>1970-01-01T00:00:00Z</time>
      </trkpt>
      <trkpt lat="43.57241" lon="3.66737">
        <ele>249.7</ele>
        <time>1970-01-01T00:00:00Z</time>
      </trkpt>
      <trkpt lat="43.57244" lon="3.66745">
        <ele>249.4</ele>
        <time>1970-01-01T00:00:00Z</time>
      </trkpt>
      <trkpt lat="43.57236" lon="3.66775">
        <ele>245.4</ele>
        <time>1970-01-01T00:00:00Z</time>
      </trkpt>
      <trkpt lat="43.57231" lon="3.66784">
        <ele>244</ele>
        <time>1970-01-01T00:00:00Z</time>
      </trkpt>
      <trkpt lat="43.57229" lon="3.66798">
        <ele>242.7</ele>
        <time>1970-01-01T00:00:00Z</time>
      </trkpt>
      <trkpt lat="43.57228" lon="3.66814">
        <ele>241.2</ele>
        <time>1970-01-01T00:00:00Z</time>
      </trkpt>
      <trkpt lat="43.57222" lon="3.66841">
        <ele>238.4</ele>
        <time>1970-01-01T00:00:00Z</time>
      </trkpt>
      <trkpt lat="43.57219" lon="3.66862">
        <ele>235.9</ele>
        <time>1970-01-01T00:00:00Z</time>
      </trkpt>
      <trkpt lat="43.57222" lon="3.66882">
        <ele>233.9</ele>
        <time>1970-01-01T00:00:00Z</time>
      </trkpt>
      <trkpt lat="43.57233" lon="3.66902">
        <ele>232.4</ele>
        <time>1970-01-01T00:00:00Z</time>
      </trkpt>
      <trkpt lat="43.57234" lon="3.66909">
        <ele>231.8</ele>
        <time>1970-01-01T00:00:00Z</time>
      </trkpt>
      <trkpt lat="43.57234" lon="3.66931">
        <ele>228.5</ele>
        <time>1970-01-01T00:00:00Z</time>
      </trkpt>
      <trkpt lat="43.57234" lon="3.6694">
        <ele>226.9</ele>
        <time>1970-01-01T00:00:00Z</time>
      </trkpt>
      <trkpt lat="43.57235" lon="3.66955">
        <ele>224.4</ele>
        <time>1970-01-01T00:00:00Z</time>
      </trkpt>
      <trkpt lat="43.57238" lon="3.66967">
        <ele>222.6</ele>
        <time>1970-01-01T00:00:00Z</time>
      </trkpt>
      <trkpt lat="43.57237" lon="3.66976">
        <ele>220.9</ele>
        <time>1970-01-01T00:00:00Z</time>
      </trkpt>
      <trkpt lat="43.57237" lon="3.66985">
        <ele>219.4</ele>
        <time>1970-01-01T00:00:00Z</time>
      </trkpt>
      <trkpt lat="43.57242" lon="3.67003">
        <ele>216.9</ele>
        <time>1970-01-01T00:00:00Z</time>
      </trkpt>
      <trkpt lat="43.57242" lon="3.67015">
        <ele>215.3</ele>
        <time>1970-01-01T00:00:00Z</time>
      </trkpt>
      <trkpt lat="43.57241" lon="3.67022">
        <ele>214.2</ele>
        <time>1970-01-01T00:00:00Z</time>
      </trkpt>
      <trkpt lat="43.57243" lon="3.67028">
        <ele>213.7</ele>
        <time>1970-01-01T00:00:00Z</time>
      </trkpt>
      <trkpt lat="43.57242" lon="3.67034">
        <ele>212.7</ele>
        <time>1970-01-01T00:00:00Z</time>
      </trkpt>
      <trkpt lat="43.57247" lon="3.67039">
        <ele>212.5</ele>
        <time>1970-01-01T00:00:00Z</time>
      </trkpt>
      <trkpt lat="43.5725" lon="3.67042">
        <ele>212.4</ele>
        <time>1970-01-01T00:00:00Z</time>
      </trkpt>
      <trkpt lat="43.57251" lon="3.67055">
        <ele>210.7</ele>
        <time>1970-01-01T00:00:00Z</time>
      </trkpt>
      <trkpt lat="43.57254" lon="3.67061">
        <ele>209.7</ele>
        <time>1970-01-01T00:00:00Z</time>
      </trkpt>
      <trkpt lat="43.5725" lon="3.67074">
        <ele>208.2</ele>
        <time>1970-01-01T00:00:00Z</time>
      </trkpt>
      <trkpt lat="43.57253" lon="3.67081">
        <ele>207</ele>
        <time>1970-01-01T00:00:00Z</time>
      </trkpt>
      <trkpt lat="43.5725" lon="3.67099">
        <ele>204.2</ele>
        <time>1970-01-01T00:00:00Z</time>
      </trkpt>
      <trkpt lat="43.57248" lon="3.67112">
        <ele>201.7</ele>
        <time>1970-01-01T00:00:00Z</time>
      </trkpt>
      <trkpt lat="43.57248" lon="3.67113">
        <ele>201.3</ele>
        <time>1970-01-01T00:00:00Z</time>
      </trkpt>
      <trkpt lat="43.57243" lon="3.67128">
        <ele>198.1</ele>
        <time>1970-01-01T00:00:00Z</time>
      </trkpt>
      <trkpt lat="43.57242" lon="3.67144">
        <ele>195.1</ele>
        <time>1970-01-01T00:00:00Z</time>
      </trkpt>
      <trkpt lat="43.57238" lon="3.67171">
        <ele>189.6</ele>
        <time>1970-01-01T00:00:00Z</time>
      </trkpt>
      <trkpt lat="43.57237" lon="3.67181">
        <ele>187.6</ele>
        <time>1970-01-01T00:00:00Z</time>
      </trkpt>
      <trkpt lat="43.57223" lon="3.67201">
        <ele>182.4</ele>
        <time>1970-01-01T00:00:00Z</time>
      </trkpt>
      <trkpt lat="43.57215" lon="3.67207">
        <ele>180.3</ele>
        <time>1970-01-01T00:00:00Z</time>
      </trkpt>
      <trkpt lat="43.57207" lon="3.67221">
        <ele>176.9</ele>
        <time>1970-01-01T00:00:00Z</time>
      </trkpt>
      <trkpt lat="43.57198" lon="3.67228">
        <ele>174.7</ele>
        <time>1970-01-01T00:00:00Z</time>
      </trkpt>
      <trkpt lat="43.57194" lon="3.67245">
        <ele>171.4</ele>
        <time>1970-01-01T00:00:00Z</time>
      </trkpt>
      <trkpt lat="43.57188" lon="3.67278">
        <ele>166.9</ele>
        <time>1970-01-01T00:00:00Z</time>
      </trkpt>
      <trkpt lat="43.57187" lon="3.67293">
        <ele>165.1</ele>
        <time>1970-01-01T00:00:00Z</time>
      </trkpt>
      <trkpt lat="43.57189" lon="3.67305">
        <ele>163.9</ele>
        <time>1970-01-01T00:00:00Z</time>
      </trkpt>
      <trkpt lat="43.57192" lon="3.67315">
        <ele>162.9</ele>
        <time>1970-01-01T00:00:00Z</time>
      </trkpt>
      <trkpt lat="43.57184" lon="3.6733">
        <ele>160.6</ele>
        <time>1970-01-01T00:00:00Z</time>
      </trkpt>
      <trkpt lat="43.57181" lon="3.67345">
        <ele>159</ele>
        <time>1970-01-01T00:00:00Z</time>
      </trkpt>
      <trkpt lat="43.5718" lon="3.67362">
        <ele>157.4</ele>
        <time>1970-01-01T00:00:00Z</time>
      </trkpt>
      <trkpt lat="43.57174" lon="3.6738">
        <ele>155.5</ele>
        <time>1970-01-01T00:00:00Z</time>
      </trkpt>
      <trkpt lat="43.57167" lon="3.67409">
        <ele>152.7</ele>
        <time>1970-01-01T00:00:00Z</time>
      </trkpt>
      <trkpt lat="43.57159" lon="3.67424">
        <ele>151.2</ele>
        <time>1970-01-01T00:00:00Z</time>
      </trkpt>
      <trkpt lat="43.57154" lon="3.67431">
        <ele>150.7</ele>
        <time>1970-01-01T00:00:00Z</time>
      </trkpt>
      <trkpt lat="43.57132" lon="3.67457">
        <ele>148.6</ele>
        <time>1970-01-01T00:00:00Z</time>
      </trkpt>
      <trkpt lat="43.57102" lon="3.67489">
        <ele>145.7</ele>
        <time>1970-01-01T00:00:00Z</time>
      </trkpt>
      <trkpt lat="43.57091" lon="3.6751">
        <ele>144.3</ele>
        <time>1970-01-01T00:00:00Z</time>
      </trkpt>
      <trkpt lat="43.5707" lon="3.67575">
        <ele>142</ele>
        <time>1970-01-01T00:00:00Z</time>
      </trkpt>
      <trkpt lat="43.57048" lon="3.67615">
        <ele>141.5</ele>
        <time>1970-01-01T00:00:00Z</time>
      </trkpt>
      <trkpt lat="43.57025" lon="3.67626">
        <ele>140.7</ele>
        <time>1970-01-01T00:00:00Z</time>
      </trkpt>
      <trkpt lat="43.57019" lon="3.67643">
        <ele>140.3</ele>
        <time>1970-01-01T00:00:00Z</time>
      </trkpt>
      <trkpt lat="43.56993" lon="3.67675">
        <ele>139.1</ele>
        <time>1970-01-01T00:00:00Z</time>
      </trkpt>
      <trkpt lat="43.56976" lon="3.67709">
        <ele>139.9</ele>
        <time>1970-01-01T00:00:00Z</time>
      </trkpt>
      <trkpt lat="43.56968" lon="3.67723">
        <ele>140.2</ele>
        <time>1970-01-01T00:00:00Z</time>
      </trkpt>
      <trkpt lat="43.56979" lon="3.6778">
        <ele>141.7</ele>
        <time>1970-01-01T00:00:00Z</time>
      </trkpt>
      <trkpt lat="43.5696" lon="3.67819">
        <ele>142.7</ele>
        <time>1970-01-01T00:00:00Z</time>
      </trkpt>
      <trkpt lat="43.56953" lon="3.67865">
        <ele>143</ele>
        <time>1970-01-01T00:00:00Z</time>
      </trkpt>
      <trkpt lat="43.56923" lon="3.67904">
        <ele>143</ele>
        <time>1970-01-01T00:00:00Z</time>
      </trkpt>
      <trkpt lat="43.56866" lon="3.68">
        <ele>141.8</ele>
        <time>1970-01-01T00:00:00Z</time>
      </trkpt>
      <trkpt lat="43.56866" lon="3.68001">
        <ele>141.8</ele>
        <time>1970-01-01T00:00:00Z</time>
      </trkpt>
      <trkpt lat="43.56893" lon="3.68089">
        <ele>141.2</ele>
        <time>1970-01-01T00:00:00Z</time>
      </trkpt>
      <trkpt lat="43.56984" lon="3.68143">
        <ele>139.2</ele>
        <time>1970-01-01T00:00:00Z</time>
      </trkpt>
      <trkpt lat="43.56999" lon="3.68133">
        <ele>138.8</ele>
        <time>1970-01-01T00:00:00Z</time>
      </trkpt>
      <trkpt lat="43.57017" lon="3.68117">
        <ele>138.4</ele>
        <time>1970-01-01T00:00:00Z</time>
      </trkpt>
      <trkpt lat="43.57049" lon="3.68131">
        <ele>136.5</ele>
        <time>1970-01-01T00:00:00Z</time>
      </trkpt>
      <trkpt lat="43.5706" lon="3.6814">
        <ele>135.7</ele>
        <time>1970-01-01T00:00:00Z</time>
      </trkpt>
      <trkpt lat="43.57096" lon="3.68147">
        <ele>134.5</ele>
        <time>1970-01-01T00:00:00Z</time>
      </trkpt>
      <trkpt lat="43.57107" lon="3.68161">
        <ele>134.2</ele>
        <time>1970-01-01T00:00:00Z</time>
      </trkpt>
      <trkpt lat="43.57127" lon="3.68165">
        <ele>134.1</ele>
        <time>1970-01-01T00:00:00Z</time>
      </trkpt>
      <trkpt lat="43.57143" lon="3.68168">
        <ele>134</ele>
        <time>1970-01-01T00:00:00Z</time>
      </trkpt>
      <trkpt lat="43.57165" lon="3.68182">
        <ele>133.8</ele>
        <time>1970-01-01T00:00:00Z</time>
      </trkpt>
      <trkpt lat="43.57174" lon="3.68199">
        <ele>133.7</ele>
        <time>1970-01-01T00:00:00Z</time>
      </trkpt>
      <trkpt lat="43.57186" lon="3.68196">
        <ele>134</ele>
        <time>1970-01-01T00:00:00Z</time>
      </trkpt>
      <trkpt lat="43.57193" lon="3.68199">
        <ele>134.1</ele>
        <time>1970-01-01T00:00:00Z</time>
      </trkpt>
      <trkpt lat="43.57204" lon="3.68181">
        <ele>134.7</ele>
        <time>1970-01-01T00:00:00Z</time>
      </trkpt>
      <trkpt lat="43.57218" lon="3.68173">
        <ele>135.1</ele>
        <time>1970-01-01T00:00:00Z</time>
      </trkpt>
      <trkpt lat="43.57252" lon="3.68183">
        <ele>135.7</ele>
        <time>1970-01-01T00:00:00Z</time>
      </trkpt>
      <trkpt lat="43.57271" lon="3.68195">
        <ele>135.9</ele>
        <time>1970-01-01T00:00:00Z</time>
      </trkpt>
      <trkpt lat="43.5728" lon="3.68207">
        <ele>135.9</ele>
        <time>1970-01-01T00:00:00Z</time>
      </trkpt>
      <trkpt lat="43.573" lon="3.68215">
        <ele>136.4</ele>
        <time>1970-01-01T00:00:00Z</time>
      </trkpt>
      <trkpt lat="43.57326" lon="3.68237">
        <ele>136.9</ele>
        <time>1970-01-01T00:00:00Z</time>
      </trkpt>
      <trkpt lat="43.57343" lon="3.68244">
        <ele>137.6</ele>
        <time>1970-01-01T00:00:00Z</time>
      </trkpt>
      <trkpt lat="43.57362" lon="3.68264">
        <ele>138.4</ele>
        <time>1970-01-01T00:00:00Z</time>
      </trkpt>
      <trkpt lat="43.57376" lon="3.68275">
        <ele>138.9</ele>
        <time>1970-01-01T00:00:00Z</time>
      </trkpt>
      <trkpt lat="43.57395" lon="3.68275">
        <ele>139.6</ele>
        <time>1970-01-01T00:00:00Z</time>
      </trkpt>
      <trkpt lat="43.57412" lon="3.68281">
        <ele>140.1</ele>
        <time>1970-01-01T00:00:00Z</time>
      </trkpt>
      <trkpt lat="43.57431" lon="3.68298">
        <ele>140</ele>
        <time>1970-01-01T00:00:00Z</time>
      </trkpt>
      <trkpt lat="43.57451" lon="3.68318">
        <ele>139.5</ele>
        <time>1970-01-01T00:00:00Z</time>
      </trkpt>
      <trkpt lat="43.5748" lon="3.68359">
        <ele>139.2</ele>
        <time>1970-01-01T00:00:00Z</time>
      </trkpt>
      <trkpt lat="43.57479" lon="3.68381">
        <ele>139.4</ele>
        <time>1970-01-01T00:00:00Z</time>
      </trkpt>
      <trkpt lat="43.57479" lon="3.68417">
        <ele>139.8</ele>
        <time>1970-01-01T00:00:00Z</time>
      </trkpt>
      <trkpt lat="43.5749" lon="3.68451">
        <ele>139.2</ele>
        <time>1970-01-01T00:00:00Z</time>
      </trkpt>
      <trkpt lat="43.57508" lon="3.6849">
        <ele>138.7</ele>
        <time>1970-01-01T00:00:00Z</time>
      </trkpt>
      <trkpt lat="43.57518" lon="3.68515">
        <ele>137.7</ele>
        <time>1970-01-01T00:00:00Z</time>
      </trkpt>
      <trkpt lat="43.57514" lon="3.68545">
        <ele>137</ele>
        <time>1970-01-01T00:00:00Z</time>
      </trkpt>
      <trkpt lat="43.57514" lon="3.68557">
        <ele>136.6</ele>
        <time>1970-01-01T00:00:00Z</time>
      </trkpt>
      <trkpt lat="43.57506" lon="3.68574">
        <ele>136.7</ele>
        <time>1970-01-01T00:00:00Z</time>
      </trkpt>
      <trkpt lat="43.57506" lon="3.6859">
        <ele>136.1</ele>
        <time>1970-01-01T00:00:00Z</time>
      </trkpt>
      <trkpt lat="43.57494" lon="3.68606">
        <ele>135.6</ele>
        <time>1970-01-01T00:00:00Z</time>
      </trkpt>
      <trkpt lat="43.5749" lon="3.68619">
        <ele>134.9</ele>
        <time>1970-01-01T00:00:00Z</time>
      </trkpt>
      <trkpt lat="43.5748" lon="3.68639">
        <ele>134.3</ele>
        <time>1970-01-01T00:00:00Z</time>
      </trkpt>
      <trkpt lat="43.57479" lon="3.68664">
        <ele>132.9</ele>
        <time>1970-01-01T00:00:00Z</time>
      </trkpt>
      <trkpt lat="43.57485" lon="3.68702">
        <ele>130.1</ele>
        <time>1970-01-01T00:00:00Z</time>
      </trkpt>
      <trkpt lat="43.57484" lon="3.68745">
        <ele>127.6</ele>
        <time>1970-01-01T00:00:00Z</time>
      </trkpt>
      <trkpt lat="43.57481" lon="3.68787">
        <ele>125.9</ele>
        <time>1970-01-01T00:00:00Z</time>
      </trkpt>
      <trkpt lat="43.57486" lon="3.68817">
        <ele>124.4</ele>
        <time>1970-01-01T00:00:00Z</time>
      </trkpt>
      <trkpt lat="43.57491" lon="3.68833">
        <ele>123.5</ele>
        <time>1970-01-01T00:00:00Z</time>
      </trkpt>
      <trkpt lat="43.57492" lon="3.68852">
        <ele>123.9</ele>
        <time>1970-01-01T00:00:00Z</time>
      </trkpt>
      <trkpt lat="43.57492" lon="3.68882">
        <ele>124.6</ele>
        <time>1970-01-01T00:00:00Z</time>
      </trkpt>
      <trkpt lat="43.57494" lon="3.689">
        <ele>125.2</ele>
        <time>1970-01-01T00:00:00Z</time>
      </trkpt>
      <trkpt lat="43.57494" lon="3.68924">
        <ele>125.8</ele>
        <time>1970-01-01T00:00:00Z</time>
      </trkpt>
      <trkpt lat="43.57497" lon="3.68938">
        <ele>126.3</ele>
        <time>1970-01-01T00:00:00Z</time>
      </trkpt>
      <trkpt lat="43.57496" lon="3.68963">
        <ele>126.9</ele>
        <time>1970-01-01T00:00:00Z</time>
      </trkpt>
      <trkpt lat="43.57498" lon="3.68992">
        <ele>127.7</ele>
        <time>1970-01-01T00:00:00Z</time>
      </trkpt>
      <trkpt lat="43.57502" lon="3.69014">
        <ele>128.5</ele>
        <time>1970-01-01T00:00:00Z</time>
      </trkpt>
      <trkpt lat="43.57503" lon="3.69035">
        <ele>129.2</ele>
        <time>1970-01-01T00:00:00Z</time>
      </trkpt>
      <trkpt lat="43.57515" lon="3.69063">
        <ele>129.8</ele>
        <time>1970-01-01T00:00:00Z</time>
      </trkpt>
      <trkpt lat="43.57521" lon="3.69093">
        <ele>130.3</ele>
        <time>1970-01-01T00:00:00Z</time>
      </trkpt>
      <trkpt lat="43.57531" lon="3.69126">
        <ele>130</ele>
        <time>1970-01-01T00:00:00Z</time>
      </trkpt>
      <trkpt lat="43.57538" lon="3.69149">
        <ele>129.7</ele>
        <time>1970-01-01T00:00:00Z</time>
      </trkpt>
      <trkpt lat="43.57539" lon="3.6917">
        <ele>129.7</ele>
        <time>1970-01-01T00:00:00Z</time>
      </trkpt>
      <trkpt lat="43.57545" lon="3.69206">
        <ele>129.3</ele>
        <time>1970-01-01T00:00:00Z</time>
      </trkpt>
      <trkpt lat="43.57548" lon="3.69246">
        <ele>129.1</ele>
        <time>1970-01-01T00:00:00Z</time>
      </trkpt>
      <trkpt lat="43.57555" lon="3.69272">
        <ele>128.3</ele>
        <time>1970-01-01T00:00:00Z</time>
      </trkpt>
      <trkpt lat="43.57561" lon="3.69295">
        <ele>127.5</ele>
        <time>1970-01-01T00:00:00Z</time>
      </trkpt>
      <trkpt lat="43.57565" lon="3.6932">
        <ele>126.9</ele>
        <time>1970-01-01T00:00:00Z</time>
      </trkpt>
      <trkpt lat="43.57575" lon="3.69346">
        <ele>125.3</ele>
        <time>1970-01-01T00:00:00Z</time>
      </trkpt>
      <trkpt lat="43.57594" lon="3.69358">
        <ele>123.1</ele>
        <time>1970-01-01T00:00:00Z</time>
      </trkpt>
      <trkpt lat="43.57614" lon="3.69359">
        <ele>121.5</ele>
        <time>1970-01-01T00:00:00Z</time>
      </trkpt>
      <trkpt lat="43.57637" lon="3.69367">
        <ele>119.4</ele>
        <time>1970-01-01T00:00:00Z</time>
      </trkpt>
      <trkpt lat="43.57669" lon="3.69372">
        <ele>117</ele>
        <time>1970-01-01T00:00:00Z</time>
      </trkpt>
      <trkpt lat="43.5774" lon="3.69395">
        <ele>113</ele>
        <time>1970-01-01T00:00:00Z</time>
      </trkpt>
      <trkpt lat="43.57794" lon="3.6942">
        <ele>114.8</ele>
        <time>1970-01-01T00:00:00Z</time>
      </trkpt>
      <trkpt lat="43.57836" lon="3.69396">
        <ele>116.9</ele>
        <time>1970-01-01T00:00:00Z</time>
      </trkpt>
      <trkpt lat="43.57872" lon="3.69381">
        <ele>118.2</ele>
        <time>1970-01-01T00:00:00Z</time>
      </trkpt>
      <trkpt lat="43.57889" lon="3.69375">
        <ele>118.8</ele>
        <time>1970-01-01T00:00:00Z</time>
      </trkpt>
      <trkpt lat="43.57906" lon="3.69387">
        <ele>119.6</ele>
        <time>1970-01-01T00:00:00Z</time>
      </trkpt>
      <trkpt lat="43.57968" lon="3.695">
        <ele>126.5</ele>
        <time>1970-01-01T00:00:00Z</time>
      </trkpt>
      <trkpt lat="43.57988" lon="3.69501">
        <ele>127.4</ele>
        <time>1970-01-01T00:00:00Z</time>
      </trkpt>
      <trkpt lat="43.57999" lon="3.69505">
        <ele>128</ele>
        <time>1970-01-01T00:00:00Z</time>
      </trkpt>
      <trkpt lat="43.58018" lon="3.69534">
        <ele>129.4</ele>
        <time>1970-01-01T00:00:00Z</time>
      </trkpt>
      <trkpt lat="43.58023" lon="3.69555">
        <ele>129.4</ele>
        <time>1970-01-01T00:00:00Z</time>
      </trkpt>
      <trkpt lat="43.58023" lon="3.69572">
        <ele>129.1</ele>
        <time>1970-01-01T00:00:00Z</time>
      </trkpt>
      <trkpt lat="43.58023" lon="3.69575">
        <ele>129</ele>
        <time>1970-01-01T00:00:00Z</time>
      </trkpt>
      <trkpt lat="43.58022" lon="3.69593">
        <ele>128.4</ele>
        <time>1970-01-01T00:00:00Z</time>
      </trkpt>
      <trkpt lat="43.58031" lon="3.69616">
        <ele>127.6</ele>
        <time>1970-01-01T00:00:00Z</time>
      </trkpt>
      <trkpt lat="43.58034" lon="3.69645">
        <ele>126.3</ele>
        <time>1970-01-01T00:00:00Z</time>
      </trkpt>
      <trkpt lat="43.58039" lon="3.69666">
        <ele>125.1</ele>
        <time>1970-01-01T00:00:00Z</time>
      </trkpt>
      <trkpt lat="43.58035" lon="3.69678">
        <ele>124.4</ele>
        <time>1970-01-01T00:00:00Z</time>
      </trkpt>
      <trkpt lat="43.58022" lon="3.69694">
        <ele>124</ele>
        <time>1970-01-01T00:00:00Z</time>
      </trkpt>
      <trkpt lat="43.58006" lon="3.69725">
        <ele>123.5</ele>
        <time>1970-01-01T00:00:00Z</time>
      </trkpt>
      <trkpt lat="43.58005" lon="3.69791">
        <ele>120.8</ele>
        <time>1970-01-01T00:00:00Z</time>
      </trkpt>
      <trkpt lat="43.57963" lon="3.69858">
        <ele>122.7</ele>
        <time>1970-01-01T00:00:00Z</time>
      </trkpt>
      <trkpt lat="43.57952" lon="3.69908">
        <ele>122.6</ele>
        <time>1970-01-01T00:00:00Z</time>
      </trkpt>
      <trkpt lat="43.57943" lon="3.69983">
        <ele>123.6</ele>
        <time>1970-01-01T00:00:00Z</time>
      </trkpt>
      <trkpt lat="43.57948" lon="3.70105">
        <ele>125.3</ele>
        <time>1970-01-01T00:00:00Z</time>
      </trkpt>
      <trkpt lat="43.57978" lon="3.70191">
        <ele>127.1</ele>
        <time>1970-01-01T00:00:00Z</time>
      </trkpt>
      <trkpt lat="43.57991" lon="3.70267">
        <ele>125.5</ele>
        <time>1970-01-01T00:00:00Z</time>
      </trkpt>
      <trkpt lat="43.57976" lon="3.70322">
        <ele>120.4</ele>
        <time>1970-01-01T00:00:00Z</time>
      </trkpt>
      <trkpt lat="43.57951" lon="3.70395">
        <ele>113.2</ele>
        <time>1970-01-01T00:00:00Z</time>
      </trkpt>
      <trkpt lat="43.57923" lon="3.70454">
        <ele>110.2</ele>
        <time>1970-01-01T00:00:00Z</time>
      </trkpt>
      <trkpt lat="43.57915" lon="3.70504">
        <ele>108.7</ele>
        <time>1970-01-01T00:00:00Z</time>
      </trkpt>
      <trkpt lat="43.57912" lon="3.70582">
        <ele>106.6</ele>
        <time>1970-01-01T00:00:00Z</time>
      </trkpt>
      <trkpt lat="43.57924" lon="3.70638">
        <ele>101.9</ele>
        <time>1970-01-01T00:00:00Z</time>
      </trkpt>
      <trkpt lat="43.57945" lon="3.70651">
        <ele>96.1</ele>
        <time>1970-01-01T00:00:00Z</time>
      </trkpt>
      <trkpt lat="43.57998" lon="3.70665">
        <ele>82.6</ele>
        <time>1970-01-01T00:00:00Z</time>
      </trkpt>
      <trkpt lat="43.58026" lon="3.70659">
        <ele>80.4</ele>
        <time>1970-01-01T00:00:00Z</time>
      </trkpt>
      <trkpt lat="43.58033" lon="3.70671">
        <ele>79.6</ele>
        <time>1970-01-01T00:00:00Z</time>
      </trkpt>
      <trkpt lat="43.58033" lon="3.70701">
        <ele>79.7</ele>
        <time>1970-01-01T00:00:00Z</time>
      </trkpt>
      <trkpt lat="43.58034" lon="3.70708">
        <ele>79.7</ele>
        <time>1970-01-01T00:00:00Z</time>
      </trkpt>
      <trkpt lat="43.58041" lon="3.70717">
        <ele>79.1</ele>
        <time>1970-01-01T00:00:00Z</time>
      </trkpt>
      <trkpt lat="43.58048" lon="3.70718">
        <ele>78.5</ele>
        <time>1970-01-01T00:00:00Z</time>
      </trkpt>
      <trkpt lat="43.58054" lon="3.70723">
        <ele>77.9</ele>
        <time>1970-01-01T00:00:00Z</time>
      </trkpt>
      <trkpt lat="43.58065" lon="3.70719">
        <ele>77</ele>
        <time>1970-01-01T00:00:00Z</time>
      </trkpt>
      <trkpt lat="43.58073" lon="3.7071">
        <ele>76.4</ele>
        <time>1970-01-01T00:00:00Z</time>
      </trkpt>
      <trkpt lat="43.58081" lon="3.7071">
        <ele>75.7</ele>
        <time>1970-01-01T00:00:00Z</time>
      </trkpt>
      <trkpt lat="43.5809" lon="3.70714">
        <ele>77.1</ele>
        <time>1970-01-01T00:00:00Z</time>
      </trkpt>
      <trkpt lat="43.581" lon="3.70717">
        <ele>79.4</ele>
        <time>1970-01-01T00:00:00Z</time>
      </trkpt>
      <trkpt lat="43.5811" lon="3.70721">
        <ele>81.9</ele>
        <time>1970-01-01T00:00:00Z</time>
      </trkpt>
      <trkpt lat="43.58112" lon="3.70711">
        <ele>82.3</ele>
        <time>1970-01-01T00:00:00Z</time>
      </trkpt>
      <trkpt lat="43.58139" lon="3.70681">
        <ele>88.8</ele>
        <time>1970-01-01T00:00:00Z</time>
      </trkpt>
      <trkpt lat="43.58163" lon="3.70664">
        <ele>93.9</ele>
        <time>1970-01-01T00:00:00Z</time>
      </trkpt>
      <trkpt lat="43.58204" lon="3.70649">
        <ele>98.7</ele>
        <time>1970-01-01T00:00:00Z</time>
      </trkpt>
      <trkpt lat="43.58225" lon="3.70642">
        <ele>100.9</ele>
        <time>1970-01-01T00:00:00Z</time>
      </trkpt>
      <trkpt lat="43.58298" lon="3.70646">
        <ele>108.7</ele>
        <time>1970-01-01T00:00:00Z</time>
      </trkpt>
      <trkpt lat="43.5833" lon="3.70654">
        <ele>112.4</ele>
        <time>1970-01-01T00:00:00Z</time>
      </trkpt>
      <trkpt lat="43.58347" lon="3.70662">
        <ele>114.7</ele>
        <time>1970-01-01T00:00:00Z</time>
      </trkpt>
      <trkpt lat="43.58434" lon="3.70663">
        <ele>121.5</ele>
        <time>1970-01-01T00:00:00Z</time>
      </trkpt>
      <trkpt lat="43.58456" lon="3.70676">
        <ele>122.4</ele>
        <time>1970-01-01T00:00:00Z</time>
      </trkpt>
      <trkpt lat="43.58466" lon="3.70693">
        <ele>122.7</ele>
        <time>1970-01-01T00:00:00Z</time>
      </trkpt>
      <trkpt lat="43.58468" lon="3.7072">
        <ele>122.6</ele>
        <time>1970-01-01T00:00:00Z</time>
      </trkpt>
      <trkpt lat="43.58478" lon="3.70733">
        <ele>122.5</ele>
        <time>1970-01-01T00:00:00Z</time>
      </trkpt>
      <trkpt lat="43.58486" lon="3.70749">
        <ele>122.2</ele>
        <time>1970-01-01T00:00:00Z</time>
      </trkpt>
      <trkpt lat="43.58495" lon="3.70763">
        <ele>121.9</ele>
        <time>1970-01-01T00:00:00Z</time>
      </trkpt>
      <trkpt lat="43.5851" lon="3.70771">
        <ele>122.3</ele>
        <time>1970-01-01T00:00:00Z</time>
      </trkpt>
      <trkpt lat="43.58511" lon="3.70783">
        <ele>122.2</ele>
        <time>1970-01-01T00:00:00Z</time>
      </trkpt>
      <trkpt lat="43.5851" lon="3.70804">
        <ele>121.9</ele>
        <time>1970-01-01T00:00:00Z</time>
      </trkpt>
      <trkpt lat="43.58501" lon="3.7082">
        <ele>121.2</ele>
        <time>1970-01-01T00:00:00Z</time>
      </trkpt>
      <trkpt lat="43.58494" lon="3.70844">
        <ele>120.7</ele>
        <time>1970-01-01T00:00:00Z</time>
      </trkpt>
      <trkpt lat="43.58493" lon="3.70859">
        <ele>120.4</ele>
        <time>1970-01-01T00:00:00Z</time>
      </trkpt>
      <trkpt lat="43.58489" lon="3.70881">
        <ele>119.8</ele>
        <time>1970-01-01T00:00:00Z</time>
      </trkpt>
      <trkpt lat="43.5848" lon="3.70896">
        <ele>119.3</ele>
        <time>1970-01-01T00:00:00Z</time>
      </trkpt>
      <trkpt lat="43.58471" lon="3.7092">
        <ele>118.5</ele>
        <time>1970-01-01T00:00:00Z</time>
      </trkpt>
      <trkpt lat="43.58458" lon="3.70939">
        <ele>117.4</ele>
        <time>1970-01-01T00:00:00Z</time>
      </trkpt>
      <trkpt lat="43.58433" lon="3.70982">
        <ele>115.1</ele>
        <time>1970-01-01T00:00:00Z</time>
      </trkpt>
      <trkpt lat="43.58423" lon="3.71015">
        <ele>114.1</ele>
        <time>1970-01-01T00:00:00Z</time>
      </trkpt>
      <trkpt lat="43.58414" lon="3.71044">
        <ele>113.8</ele>
        <time>1970-01-01T00:00:00Z</time>
      </trkpt>
      <trkpt lat="43.58397" lon="3.71073">
        <ele>112.4</ele>
        <time>1970-01-01T00:00:00Z</time>
      </trkpt>
      <trkpt lat="43.58391" lon="3.71088">
        <ele>111.9</ele>
        <time>1970-01-01T00:00:00Z</time>
      </trkpt>
      <trkpt lat="43.58393" lon="3.71108">
        <ele>112.1</ele>
        <time>1970-01-01T00:00:00Z</time>
      </trkpt>
      <trkpt lat="43.58399" lon="3.71113">
        <ele>112.5</ele>
        <time>1970-01-01T00:00:00Z</time>
      </trkpt>
      <trkpt lat="43.58383" lon="3.71175">
        <ele>112.2</ele>
        <time>1970-01-01T00:00:00Z</time>
      </trkpt>
      <trkpt lat="43.58375" lon="3.71201">
        <ele>112</ele>
        <time>1970-01-01T00:00:00Z</time>
      </trkpt>
      <trkpt lat="43.58371" lon="3.71223">
        <ele>112</ele>
        <time>1970-01-01T00:00:00Z</time>
      </trkpt>
      <trkpt lat="43.58365" lon="3.71245">
        <ele>112</ele>
        <time>1970-01-01T00:00:00Z</time>
      </trkpt>
      <trkpt lat="43.58364" lon="3.7127">
        <ele>111.5</ele>
        <time>1970-01-01T00:00:00Z</time>
      </trkpt>
      <trkpt lat="43.58362" lon="3.71286">
        <ele>111</ele>
        <time>1970-01-01T00:00:00Z</time>
      </trkpt>
      <trkpt lat="43.58362" lon="3.71293">
        <ele>110.8</ele>
        <time>1970-01-01T00:00:00Z</time>
      </trkpt>
      <trkpt lat="43.58355" lon="3.71298">
        <ele>110.6</ele>
        <time>1970-01-01T00:00:00Z</time>
      </trkpt>
      <trkpt lat="43.58351" lon="3.71307">
        <ele>110.2</ele>
        <time>1970-01-01T00:00:00Z</time>
      </trkpt>
      <trkpt lat="43.5835" lon="3.71318">
        <ele>109.9</ele>
        <time>1970-01-01T00:00:00Z</time>
      </trkpt>
      <trkpt lat="43.58338" lon="3.71355">
        <ele>109.1</ele>
        <time>1970-01-01T00:00:00Z</time>
      </trkpt>
      <trkpt lat="43.58323" lon="3.71403">
        <ele>109.1</ele>
        <time>1970-01-01T00:00:00Z</time>
      </trkpt>
      <trkpt lat="43.58312" lon="3.71438">
        <ele>108.9</ele>
        <time>1970-01-01T00:00:00Z</time>
      </trkpt>
      <trkpt lat="43.58307" lon="3.71456">
        <ele>108.7</ele>
        <time>1970-01-01T00:00:00Z</time>
      </trkpt>
      <trkpt lat="43.58295" lon="3.71485">
        <ele>108.3</ele>
        <time>1970-01-01T00:00:00Z</time>
      </trkpt>
      <trkpt lat="43.58286" lon="3.71508">
        <ele>108</ele>
        <time>1970-01-01T00:00:00Z</time>
      </trkpt>
      <trkpt lat="43.58285" lon="3.7151">
        <ele>108</ele>
        <time>1970-01-01T00:00:00Z</time>
      </trkpt>
      <trkpt lat="43.58271" lon="3.71534">
        <ele>108</ele>
        <time>1970-01-01T00:00:00Z</time>
      </trkpt>
      <trkpt lat="43.58269" lon="3.71544">
        <ele>108</ele>
        <time>1970-01-01T00:00:00Z</time>
      </trkpt>
      <trkpt lat="43.58265" lon="3.71557">
        <ele>108</ele>
        <time>1970-01-01T00:00:00Z</time>
      </trkpt>
      <trkpt lat="43.58262" lon="3.71568">
        <ele>108</ele>
        <time>1970-01-01T00:00:00Z</time>
      </trkpt>
      <trkpt lat="43.58261" lon="3.71572">
        <ele>108</ele>
        <time>1970-01-01T00:00:00Z</time>
      </trkpt>
      <trkpt lat="43.58255" lon="3.71578">
        <ele>108</ele>
        <time>1970-01-01T00:00:00Z</time>
      </trkpt>
      <trkpt lat="43.58249" lon="3.71587">
        <ele>107.9</ele>
        <time>1970-01-01T00:00:00Z</time>
      </trkpt>
      <trkpt lat="43.58241" lon="3.71595">
        <ele>107.7</ele>
        <time>1970-01-01T00:00:00Z</time>
      </trkpt>
      <trkpt lat="43.58241" lon="3.71596">
        <ele>107.7</ele>
        <time>1970-01-01T00:00:00Z</time>
      </trkpt>
      <trkpt lat="43.58233" lon="3.71608">
        <ele>107.5</ele>
        <time>1970-01-01T00:00:00Z</time>
      </trkpt>
      <trkpt lat="43.58224" lon="3.71621">
        <ele>107.2</ele>
        <time>1970-01-01T00:00:00Z</time>
      </trkpt>
      <trkpt lat="43.58207" lon="3.71645">
        <ele>106.7</ele>
        <time>1970-01-01T00:00:00Z</time>
      </trkpt>
      <trkpt lat="43.58198" lon="3.71657">
        <ele>106.5</ele>
        <time>1970-01-01T00:00:00Z</time>
      </trkpt>
      <trkpt lat="43.5819" lon="3.71667">
        <ele>106.3</ele>
        <time>1970-01-01T00:00:00Z</time>
      </trkpt>
      <trkpt lat="43.58183" lon="3.71679">
        <ele>106.6</ele>
        <time>1970-01-01T00:00:00Z</time>
      </trkpt>
      <trkpt lat="43.58178" lon="3.7169">
        <ele>107</ele>
        <time>1970-01-01T00:00:00Z</time>
      </trkpt>
      <trkpt lat="43.58172" lon="3.71699">
        <ele>107.2</ele>
        <time>1970-01-01T00:00:00Z</time>
      </trkpt>
      <trkpt lat="43.5817" lon="3.71712">
        <ele>107.6</ele>
        <time>1970-01-01T00:00:00Z</time>
      </trkpt>
      <trkpt lat="43.58166" lon="3.71718">
        <ele>107.9</ele>
        <time>1970-01-01T00:00:00Z</time>
      </trkpt>
      <trkpt lat="43.58161" lon="3.71727">
        <ele>108.2</ele>
        <time>1970-01-01T00:00:00Z</time>
      </trkpt>
      <trkpt lat="43.58156" lon="3.71733">
        <ele>108.4</ele>
        <time>1970-01-01T00:00:00Z</time>
      </trkpt>
      <trkpt lat="43.58153" lon="3.71739">
        <ele>108.6</ele>
        <time>1970-01-01T00:00:00Z</time>
      </trkpt>
      <trkpt lat="43.5815" lon="3.71745">
        <ele>108.8</ele>
        <time>1970-01-01T00:00:00Z</time>
      </trkpt>
      <trkpt lat="43.58146" lon="3.71754">
        <ele>109.1</ele>
        <time>1970-01-01T00:00:00Z</time>
      </trkpt>
      <trkpt lat="43.58146" lon="3.71758">
        <ele>109.3</ele>
        <time>1970-01-01T00:00:00Z</time>
      </trkpt>
      <trkpt lat="43.58143" lon="3.71764">
        <ele>109.5</ele>
        <time>1970-01-01T00:00:00Z</time>
      </trkpt>
      <trkpt lat="43.5814" lon="3.71767">
        <ele>109.7</ele>
        <time>1970-01-01T00:00:00Z</time>
      </trkpt>
      <trkpt lat="43.58137" lon="3.71772">
        <ele>109.9</ele>
        <time>1970-01-01T00:00:00Z</time>
      </trkpt>
      <trkpt lat="43.58133" lon="3.71776">
        <ele>110</ele>
        <time>1970-01-01T00:00:00Z</time>
      </trkpt>
      <trkpt lat="43.5813" lon="3.71785">
        <ele>110.4</ele>
        <time>1970-01-01T00:00:00Z</time>
      </trkpt>
      <trkpt lat="43.58125" lon="3.71789">
        <ele>110.6</ele>
        <time>1970-01-01T00:00:00Z</time>
      </trkpt>
      <trkpt lat="43.58122" lon="3.71799">
        <ele>111.1</ele>
        <time>1970-01-01T00:00:00Z</time>
      </trkpt>
      <trkpt lat="43.58118" lon="3.71809">
        <ele>111.5</ele>
        <time>1970-01-01T00:00:00Z</time>
      </trkpt>
      <trkpt lat="43.58118" lon="3.71814">
        <ele>111.8</ele>
        <time>1970-01-01T00:00:00Z</time>
      </trkpt>
      <trkpt lat="43.58107" lon="3.71834">
        <ele>112.7</ele>
        <time>1970-01-01T00:00:00Z</time>
      </trkpt>
      <trkpt lat="43.58104" lon="3.7184">
        <ele>113</ele>
        <time>1970-01-01T00:00:00Z</time>
      </trkpt>
      <trkpt lat="43.58102" lon="3.71842">
        <ele>113.2</ele>
        <time>1970-01-01T00:00:00Z</time>
      </trkpt>
      <trkpt lat="43.581" lon="3.71845">
        <ele>113.3</ele>
        <time>1970-01-01T00:00:00Z</time>
      </trkpt>
      <trkpt lat="43.58096" lon="3.71849">
        <ele>113.6</ele>
        <time>1970-01-01T00:00:00Z</time>
      </trkpt>
      <trkpt lat="43.58093" lon="3.71856">
        <ele>114</ele>
        <time>1970-01-01T00:00:00Z</time>
      </trkpt>
      <trkpt lat="43.58092" lon="3.71859">
        <ele>114.1</ele>
        <time>1970-01-01T00:00:00Z</time>
      </trkpt>
      <trkpt lat="43.58086" lon="3.71871">
        <ele>114.8</ele>
        <time>1970-01-01T00:00:00Z</time>
      </trkpt>
      <trkpt lat="43.58083" lon="3.71884">
        <ele>115.4</ele>
        <time>1970-01-01T00:00:00Z</time>
      </trkpt>
      <trkpt lat="43.58077" lon="3.71891">
        <ele>115.6</ele>
        <time>1970-01-01T00:00:00Z</time>
      </trkpt>
      <trkpt lat="43.58075" lon="3.719">
        <ele>115.9</ele>
        <time>1970-01-01T00:00:00Z</time>
      </trkpt>
      <trkpt lat="43.58069" lon="3.71914">
        <ele>116.3</ele>
        <time>1970-01-01T00:00:00Z</time>
      </trkpt>
      <trkpt lat="43.58065" lon="3.71932">
        <ele>116.3</ele>
        <time>1970-01-01T00:00:00Z</time>
      </trkpt>
      <trkpt lat="43.58055" lon="3.71961">
        <ele>116</ele>
        <time>1970-01-01T00:00:00Z</time>
      </trkpt>
      <trkpt lat="43.5805" lon="3.71974">
        <ele>115.8</ele>
        <time>1970-01-01T00:00:00Z</time>
      </trkpt>
      <trkpt lat="43.58041" lon="3.71993">
        <ele>115.5</ele>
        <time>1970-01-01T00:00:00Z</time>
      </trkpt>
      <trkpt lat="43.58033" lon="3.72001">
        <ele>115.2</ele>
        <time>1970-01-01T00:00:00Z</time>
      </trkpt>
      <trkpt lat="43.58021" lon="3.7203">
        <ele>114.2</ele>
        <time>1970-01-01T00:00:00Z</time>
      </trkpt>
      <trkpt lat="43.58014" lon="3.72039">
        <ele>113.7</ele>
        <time>1970-01-01T00:00:00Z</time>
      </trkpt>
      <trkpt lat="43.58012" lon="3.72051">
        <ele>113.4</ele>
        <time>1970-01-01T00:00:00Z</time>
      </trkpt>
      <trkpt lat="43.58014" lon="3.72067">
        <ele>113.2</ele>
        <time>1970-01-01T00:00:00Z</time>
      </trkpt>
      <trkpt lat="43.58009" lon="3.72079">
        <ele>112.6</ele>
        <time>1970-01-01T00:00:00Z</time>
      </trkpt>
      <trkpt lat="43.57991" lon="3.7209">
        <ele>111.3</ele>
        <time>1970-01-01T00:00:00Z</time>
      </trkpt>
      <trkpt lat="43.57976" lon="3.72129">
        <ele>110</ele>
        <time>1970-01-01T00:00:00Z</time>
      </trkpt>
      <trkpt lat="43.57972" lon="3.72153">
        <ele>109.7</ele>
        <time>1970-01-01T00:00:00Z</time>
      </trkpt>
      <trkpt lat="43.57968" lon="3.72158">
        <ele>109.5</ele>
        <time>1970-01-01T00:00:00Z</time>
      </trkpt>
      <trkpt lat="43.57955" lon="3.72167">
        <ele>108.8</ele>
        <time>1970-01-01T00:00:00Z</time>
      </trkpt>
      <trkpt lat="43.57952" lon="3.72178">
        <ele>108.7</ele>
        <time>1970-01-01T00:00:00Z</time>
      </trkpt>
      <trkpt lat="43.57957" lon="3.72193">
        <ele>108.9</ele>
        <time>1970-01-01T00:00:00Z</time>
      </trkpt>
      <trkpt lat="43.57956" lon="3.72234">
        <ele>108.9</ele>
        <time>1970-01-01T00:00:00Z</time>
      </trkpt>
      <trkpt lat="43.57949" lon="3.72255">
        <ele>108.4</ele>
        <time>1970-01-01T00:00:00Z</time>
      </trkpt>
      <trkpt lat="43.57942" lon="3.7227">
        <ele>107.8</ele>
        <time>1970-01-01T00:00:00Z</time>
      </trkpt>
      <trkpt lat="43.57933" lon="3.72287">
        <ele>106.9</ele>
        <time>1970-01-01T00:00:00Z</time>
      </trkpt>
      <trkpt lat="43.57934" lon="3.72307">
        <ele>106.5</ele>
        <time>1970-01-01T00:00:00Z</time>
      </trkpt>
      <trkpt lat="43.57924" lon="3.72337">
        <ele>105.3</ele>
        <time>1970-01-01T00:00:00Z</time>
      </trkpt>
      <trkpt lat="43.57911" lon="3.72357">
        <ele>104.4</ele>
        <time>1970-01-01T00:00:00Z</time>
      </trkpt>
      <trkpt lat="43.57901" lon="3.72383">
        <ele>103.6</ele>
        <time>1970-01-01T00:00:00Z</time>
      </trkpt>
      <trkpt lat="43.57888" lon="3.72406">
        <ele>102.7</ele>
        <time>1970-01-01T00:00:00Z</time>
      </trkpt>
      <trkpt lat="43.5788" lon="3.72425">
        <ele>102.2</ele>
        <time>1970-01-01T00:00:00Z</time>
      </trkpt>
      <trkpt lat="43.57866" lon="3.72452">
        <ele>101.5</ele>
        <time>1970-01-01T00:00:00Z</time>
      </trkpt>
      <trkpt lat="43.57859" lon="3.72478">
        <ele>100.9</ele>
        <time>1970-01-01T00:00:00Z</time>
      </trkpt>
      <trkpt lat="43.5786" lon="3.72518">
        <ele>100.5</ele>
        <time>1970-01-01T00:00:00Z</time>
      </trkpt>
      <trkpt lat="43.57858" lon="3.72531">
        <ele>100</ele>
        <time>1970-01-01T00:00:00Z</time>
      </trkpt>
      <trkpt lat="43.57852" lon="3.72561">
        <ele>98.9</ele>
        <time>1970-01-01T00:00:00Z</time>
      </trkpt>
      <trkpt lat="43.57853" lon="3.72587">
        <ele>98.3</ele>
        <time>1970-01-01T00:00:00Z</time>
      </trkpt>
      <trkpt lat="43.57852" lon="3.72606">
        <ele>97.9</ele>
        <time>1970-01-01T00:00:00Z</time>
      </trkpt>
      <trkpt lat="43.5784" lon="3.72678">
        <ele>95.7</ele>
        <time>1970-01-01T00:00:00Z</time>
      </trkpt>
      <trkpt lat="43.57842" lon="3.72703">
        <ele>96.2</ele>
        <time>1970-01-01T00:00:00Z</time>
      </trkpt>
      <trkpt lat="43.57838" lon="3.72733">
        <ele>96.2</ele>
        <time>1970-01-01T00:00:00Z</time>
      </trkpt>
      <trkpt lat="43.57836" lon="3.72775">
        <ele>96.8</ele>
        <time>1970-01-01T00:00:00Z</time>
      </trkpt>
      <trkpt lat="43.57821" lon="3.72814">
        <ele>96.8</ele>
        <time>1970-01-01T00:00:00Z</time>
      </trkpt>
      <trkpt lat="43.57822" lon="3.72856">
        <ele>97.9</ele>
        <time>1970-01-01T00:00:00Z</time>
      </trkpt>
      <trkpt lat="43.57808" lon="3.72939">
        <ele>99</ele>
        <time>1970-01-01T00:00:00Z</time>
      </trkpt>
      <trkpt lat="43.57813" lon="3.72978">
        <ele>99.6</ele>
        <time>1970-01-01T00:00:00Z</time>
      </trkpt>
      <trkpt lat="43.57814" lon="3.72997">
        <ele>99.8</ele>
        <time>1970-01-01T00:00:00Z</time>
      </trkpt>
      <trkpt lat="43.57819" lon="3.73014">
        <ele>100.2</ele>
        <time>1970-01-01T00:00:00Z</time>
      </trkpt>
      <trkpt lat="43.57827" lon="3.73073">
        <ele>100.8</ele>
        <time>1970-01-01T00:00:00Z</time>
      </trkpt>
      <trkpt lat="43.57824" lon="3.7309">
        <ele>100.9</ele>
        <time>1970-01-01T00:00:00Z</time>
      </trkpt>
      <trkpt lat="43.57803" lon="3.73136">
        <ele>101.1</ele>
        <time>1970-01-01T00:00:00Z</time>
      </trkpt>
      <trkpt lat="43.57794" lon="3.73154">
        <ele>101.3</ele>
        <time>1970-01-01T00:00:00Z</time>
      </trkpt>
      <trkpt lat="43.57779" lon="3.73188">
        <ele>101.8</ele>
        <time>1970-01-01T00:00:00Z</time>
      </trkpt>
      <trkpt lat="43.57768" lon="3.73197">
        <ele>101.9</ele>
        <time>1970-01-01T00:00:00Z</time>
      </trkpt>
      <trkpt lat="43.57754" lon="3.73211">
        <ele>102.1</ele>
        <time>1970-01-01T00:00:00Z</time>
      </trkpt>
      <trkpt lat="43.57723" lon="3.73247">
        <ele>103.3</ele>
        <time>1970-01-01T00:00:00Z</time>
      </trkpt>
      <trkpt lat="43.57718" lon="3.73258">
        <ele>103.6</ele>
        <time>1970-01-01T00:00:00Z</time>
      </trkpt>
      <trkpt lat="43.57685" lon="3.73309">
        <ele>104.8</ele>
        <time>1970-01-01T00:00:00Z</time>
      </trkpt>
      <trkpt lat="43.5768" lon="3.73331">
        <ele>105.1</ele>
        <time>1970-01-01T00:00:00Z</time>
      </trkpt>
      <trkpt lat="43.57697" lon="3.73388">
        <ele>102.8</ele>
        <time>1970-01-01T00:00:00Z</time>
      </trkpt>
      <trkpt lat="43.57684" lon="3.73421">
        <ele>100.6</ele>
        <time>1970-01-01T00:00:00Z</time>
      </trkpt>
      <trkpt lat="43.57683" lon="3.73465">
        <ele>98</ele>
        <time>1970-01-01T00:00:00Z</time>
      </trkpt>
      <trkpt lat="43.57696" lon="3.73491">
        <ele>97.2</ele>
        <time>1970-01-01T00:00:00Z</time>
      </trkpt>
      <trkpt lat="43.57736" lon="3.73508">
        <ele>98.5</ele>
        <time>1970-01-01T00:00:00Z</time>
      </trkpt>
      <trkpt lat="43.57752" lon="3.73522">
        <ele>98.2</ele>
        <time>1970-01-01T00:00:00Z</time>
      </trkpt>
      <trkpt lat="43.57773" lon="3.73564">
        <ele>96.5</ele>
        <time>1970-01-01T00:00:00Z</time>
      </trkpt>
      <trkpt lat="43.57781" lon="3.73586">
        <ele>95.8</ele>
        <time>1970-01-01T00:00:00Z</time>
      </trkpt>
      <trkpt lat="43.57828" lon="3.73635">
        <ele>97.5</ele>
        <time>1970-01-01T00:00:00Z</time>
      </trkpt>
      <trkpt lat="43.57835" lon="3.73673">
        <ele>95.5</ele>
        <time>1970-01-01T00:00:00Z</time>
      </trkpt>
      <trkpt lat="43.5785" lon="3.73709">
        <ele>92.5</ele>
        <time>1970-01-01T00:00:00Z</time>
      </trkpt>
      <trkpt lat="43.5786" lon="3.73743">
        <ele>89.6</ele>
        <time>1970-01-01T00:00:00Z</time>
      </trkpt>
      <trkpt lat="43.5787" lon="3.73774">
        <ele>87</ele>
        <time>1970-01-01T00:00:00Z</time>
      </trkpt>
      <trkpt lat="43.5788" lon="3.7379">
        <ele>85.4</ele>
        <time>1970-01-01T00:00:00Z</time>
      </trkpt>
      <trkpt lat="43.57884" lon="3.73802">
        <ele>84.3</ele>
        <time>1970-01-01T00:00:00Z</time>
      </trkpt>
      <trkpt lat="43.57896" lon="3.73821">
        <ele>82.2</ele>
        <time>1970-01-01T00:00:00Z</time>
      </trkpt>
      <trkpt lat="43.57909" lon="3.73844">
        <ele>79.3</ele>
        <time>1970-01-01T00:00:00Z</time>
      </trkpt>
      <trkpt lat="43.57919" lon="3.7386">
        <ele>77</ele>
        <time>1970-01-01T00:00:00Z</time>
      </trkpt>
      <trkpt lat="43.57919" lon="3.73861">
        <ele>76.9</ele>
        <time>1970-01-01T00:00:00Z</time>
      </trkpt>
      <trkpt lat="43.57926" lon="3.73871">
        <ele>75.5</ele>
        <time>1970-01-01T00:00:00Z</time>
      </trkpt>
      <trkpt lat="43.57926" lon="3.73873">
        <ele>75.3</ele>
        <time>1970-01-01T00:00:00Z</time>
      </trkpt>
      <trkpt lat="43.57926" lon="3.73875">
        <ele>75.1</ele>
        <time>1970-01-01T00:00:00Z</time>
      </trkpt>
      <trkpt lat="43.57927" lon="3.73886">
        <ele>74.1</ele>
        <time>1970-01-01T00:00:00Z</time>
      </trkpt>
      <trkpt lat="43.57933" lon="3.73906">
        <ele>72.2</ele>
        <time>1970-01-01T00:00:00Z</time>
      </trkpt>
      <trkpt lat="43.57938" lon="3.73925">
        <ele>71.3</ele>
        <time>1970-01-01T00:00:00Z</time>
      </trkpt>
      <trkpt lat="43.57939" lon="3.73959">
        <ele>70.5</ele>
        <time>1970-01-01T00:00:00Z</time>
      </trkpt>
      <trkpt lat="43.57941" lon="3.73981">
        <ele>70.1</ele>
        <time>1970-01-01T00:00:00Z</time>
      </trkpt>
      <trkpt lat="43.57945" lon="3.74">
        <ele>70.1</ele>
        <time>1970-01-01T00:00:00Z</time>
      </trkpt>
      <trkpt lat="43.57952" lon="3.73987">
        <ele>71</ele>
        <time>1970-01-01T00:00:00Z</time>
      </trkpt>
      <trkpt lat="43.57956" lon="3.73975">
        <ele>71.4</ele>
        <time>1970-01-01T00:00:00Z</time>
      </trkpt>
      <trkpt lat="43.57983" lon="3.73936">
        <ele>72.9</ele>
        <time>1970-01-01T00:00:00Z</time>
      </trkpt>
      <trkpt lat="43.57993" lon="3.73905">
        <ele>72.7</ele>
        <time>1970-01-01T00:00:00Z</time>
      </trkpt>
      <trkpt lat="43.57997" lon="3.73892">
        <ele>72.4</ele>
        <time>1970-01-01T00:00:00Z</time>
      </trkpt>
      <trkpt lat="43.58013" lon="3.73862">
        <ele>72.7</ele>
        <time>1970-01-01T00:00:00Z</time>
      </trkpt>
      <trkpt lat="43.58023" lon="3.73835">
        <ele>71.9</ele>
        <time>1970-01-01T00:00:00Z</time>
      </trkpt>
      <trkpt lat="43.58047" lon="3.738">
        <ele>71.9</ele>
        <time>1970-01-01T00:00:00Z</time>
      </trkpt>
      <trkpt lat="43.58065" lon="3.73797">
        <ele>71.6</ele>
        <time>1970-01-01T00:00:00Z</time>
      </trkpt>
      <trkpt lat="43.58084" lon="3.73838">
        <ele>74.6</ele>
        <time>1970-01-01T00:00:00Z</time>
      </trkpt>
      <trkpt lat="43.58137" lon="3.73918">
        <ele>85.1</ele>
        <time>1970-01-01T00:00:00Z</time>
      </trkpt>
      <trkpt lat="43.58146" lon="3.73937">
        <ele>87.5</ele>
        <time>1970-01-01T00:00:00Z</time>
      </trkpt>
      <trkpt lat="43.58142" lon="3.73949">
        <ele>88.9</ele>
        <time>1970-01-01T00:00:00Z</time>
      </trkpt>
      <trkpt lat="43.58108" lon="3.73974">
        <ele>90.6</ele>
        <time>1970-01-01T00:00:00Z</time>
      </trkpt>
      <trkpt lat="43.58101" lon="3.73985">
        <ele>91.4</ele>
        <time>1970-01-01T00:00:00Z</time>
      </trkpt>
      <trkpt lat="43.58083" lon="3.74002">
        <ele>92</ele>
        <time>1970-01-01T00:00:00Z</time>
      </trkpt>
      <trkpt lat="43.58076" lon="3.74013">
        <ele>91.2</ele>
        <time>1970-01-01T00:00:00Z</time>
      </trkpt>
      <trkpt lat="43.58073" lon="3.74031">
        <ele>91.6</ele>
        <time>1970-01-01T00:00:00Z</time>
      </trkpt>
      <trkpt lat="43.58058" lon="3.74041">
        <ele>89.4</ele>
        <time>1970-01-01T00:00:00Z</time>
      </trkpt>
      <trkpt lat="43.58032" lon="3.74066">
        <ele>86.3</ele>
        <time>1970-01-01T00:00:00Z</time>
      </trkpt>
      <trkpt lat="43.5803" lon="3.74068">
        <ele>86.1</ele>
        <time>1970-01-01T00:00:00Z</time>
      </trkpt>
      <trkpt lat="43.5803" lon="3.7407">
        <ele>86.1</ele>
        <time>1970-01-01T00:00:00Z</time>
      </trkpt>
      <trkpt lat="43.58015" lon="3.74091">
        <ele>84.7</ele>
        <time>1970-01-01T00:00:00Z</time>
      </trkpt>
      <trkpt lat="43.58014" lon="3.74093">
        <ele>84.5</ele>
        <time>1970-01-01T00:00:00Z</time>
      </trkpt>
      <trkpt lat="43.57998" lon="3.74106">
        <ele>82.3</ele>
        <time>1970-01-01T00:00:00Z</time>
      </trkpt>
      <trkpt lat="43.57997" lon="3.74108">
        <ele>82.3</ele>
        <time>1970-01-01T00:00:00Z</time>
      </trkpt>
      <trkpt lat="43.57987" lon="3.74124">
        <ele>81.7</ele>
        <time>1970-01-01T00:00:00Z</time>
      </trkpt>
      <trkpt lat="43.57975" lon="3.74125">
        <ele>80.6</ele>
        <time>1970-01-01T00:00:00Z</time>
      </trkpt>
      <trkpt lat="43.57974" lon="3.74108">
        <ele>79.8</ele>
        <time>1970-01-01T00:00:00Z</time>
      </trkpt>
      <trkpt lat="43.57946" lon="3.74121">
        <ele>77.6</ele>
        <time>1970-01-01T00:00:00Z</time>
      </trkpt>
      <trkpt lat="43.5791" lon="3.7412">
        <ele>74</ele>
        <time>1970-01-01T00:00:00Z</time>
      </trkpt>
      <trkpt lat="43.57883" lon="3.74104">
        <ele>70.7</ele>
        <time>1970-01-01T00:00:00Z</time>
      </trkpt>
      <trkpt lat="43.57858" lon="3.74107">
        <ele>68.9</ele>
        <time>1970-01-01T00:00:00Z</time>
      </trkpt>
      <trkpt lat="43.57842" lon="3.74142">
        <ele>68.9</ele>
        <time>1970-01-01T00:00:00Z</time>
      </trkpt>
      <trkpt lat="43.57848" lon="3.74187">
        <ele>69.7</ele>
        <time>1970-01-01T00:00:00Z</time>
      </trkpt>
      <trkpt lat="43.57853" lon="3.74218">
        <ele>68.9</ele>
        <time>1970-01-01T00:00:00Z</time>
      </trkpt>
      <trkpt lat="43.57854" lon="3.74219">
        <ele>69</ele>
        <time>1970-01-01T00:00:00Z</time>
      </trkpt>
      <trkpt lat="43.57869" lon="3.74243">
        <ele>70</ele>
        <time>1970-01-01T00:00:00Z</time>
      </trkpt>
      <trkpt lat="43.57908" lon="3.7427">
        <ele>74.4</ele>
        <time>1970-01-01T00:00:00Z</time>
      </trkpt>
      <trkpt lat="43.57917" lon="3.74301">
        <ele>74.8</ele>
        <time>1970-01-01T00:00:00Z</time>
      </trkpt>
      <trkpt lat="43.57921" lon="3.74331">
        <ele>74.5</ele>
        <time>1970-01-01T00:00:00Z</time>
      </trkpt>
      <trkpt lat="43.57924" lon="3.74343">
        <ele>74.4</ele>
        <time>1970-01-01T00:00:00Z</time>
      </trkpt>
      <trkpt lat="43.57913" lon="3.74347">
        <ele>73.1</ele>
        <time>1970-01-01T00:00:00Z</time>
      </trkpt>
      <trkpt lat="43.57892" lon="3.74356">
        <ele>70.2</ele>
        <time>1970-01-01T00:00:00Z</time>
      </trkpt>
      <trkpt lat="43.57877" lon="3.74377">
        <ele>68</ele>
        <time>1970-01-01T00:00:00Z</time>
      </trkpt>
      <trkpt lat="43.57867" lon="3.74403">
        <ele>66.4</ele>
        <time>1970-01-01T00:00:00Z</time>
      </trkpt>
      <trkpt lat="43.57874" lon="3.74428">
        <ele>66.1</ele>
        <time>1970-01-01T00:00:00Z</time>
      </trkpt>
      <trkpt lat="43.57905" lon="3.74494">
        <ele>64.4</ele>
        <time>1970-01-01T00:00:00Z</time>
      </trkpt>
      <trkpt lat="43.57918" lon="3.74528">
        <ele>63.5</ele>
        <time>1970-01-01T00:00:00Z</time>
      </trkpt>
      <trkpt lat="43.57918" lon="3.74529">
        <ele>63.4</ele>
        <time>1970-01-01T00:00:00Z</time>
      </trkpt>
      <trkpt lat="43.57926" lon="3.74557">
        <ele>62.6</ele>
        <time>1970-01-01T00:00:00Z</time>
      </trkpt>
      <trkpt lat="43.57928" lon="3.74561">
        <ele>62.5</ele>
        <time>1970-01-01T00:00:00Z</time>
      </trkpt>
      <trkpt lat="43.57936" lon="3.74585">
        <ele>61.7</ele>
        <time>1970-01-01T00:00:00Z</time>
      </trkpt>
      <trkpt lat="43.57936" lon="3.74588">
        <ele>61.6</ele>
        <time>1970-01-01T00:00:00Z</time>
      </trkpt>
      <trkpt lat="43.57937" lon="3.7459">
        <ele>61.6</ele>
        <time>1970-01-01T00:00:00Z</time>
      </trkpt>
      <trkpt lat="43.57966" lon="3.74654">
        <ele>60.3</ele>
        <time>1970-01-01T00:00:00Z</time>
      </trkpt>
      <trkpt lat="43.58032" lon="3.748">
        <ele>58.5</ele>
        <time>1970-01-01T00:00:00Z</time>
      </trkpt>
      <trkpt lat="43.58121" lon="3.74987">
        <ele>58.4</ele>
        <time>1970-01-01T00:00:00Z</time>
      </trkpt>
    </trkseg>
  </trk>
</gpx>